<?xml version="1.0" encoding="UTF-8" standalone="no" ?>
<gpx xmlns="http://www.topografix.com/GPX/1/1" xmlns:xsi="http://www.w3.org/2001/XMLSchema-instance" xsi:schemaLocation="http://www.topografix.com/GPX/1/1 http://www.topografix.com/GPX/1/1/gpx.xsd" version="1.1" creator="VisuGPX - https://www.visugpx.com">
  <metadata>
    <name>Gorges d'héric</name>
    <desc><![CDATA[Gorges d'héric, de Mons la Trivalle à Héric, aller et retour]]></desc>
  </metadata>
  <trk>
    <name><![CDATA[Route des Gorges d'Heric]]></name>
    <desc><![CDATA[]]></desc>
    <trkseg>
      <trkpt lat="43.56728" lon="2.96076">
        <ele>233.3</ele>
        <time>2014-02-20T12:21:06.729Z</time>
      </trkpt>
      <trkpt lat="43.56724" lon="2.96076">
        <ele>235.4</ele>
        <time>2014-02-20T12:21:12.759Z</time>
      </trkpt>
      <trkpt lat="43.56724" lon="2.96076">
        <ele>236.1</ele>
        <time>2014-02-20T12:21:13.559Z</time>
      </trkpt>
      <trkpt lat="43.56725" lon="2.96076">
        <ele>235.9</ele>
        <time>2014-02-20T12:21:14.513Z</time>
      </trkpt>
      <trkpt lat="43.56726" lon="2.96077">
        <ele>236.4</ele>
        <time>2014-02-20T12:21:19.512Z</time>
      </trkpt>
      <trkpt lat="43.56726" lon="2.96077">
        <ele>236.4</ele>
        <time>2014-02-20T12:21:20.849Z</time>
      </trkpt>
      <trkpt lat="43.56726" lon="2.96077">
        <ele>236.7</ele>
        <time>2014-02-20T12:21:22.511Z</time>
      </trkpt>
      <trkpt lat="43.56727" lon="2.96077">
        <ele>237</ele>
        <time>2014-02-20T12:21:23.511Z</time>
      </trkpt>
      <trkpt lat="43.56735" lon="2.96082">
        <ele>237.5</ele>
        <time>2014-02-20T12:21:31.551Z</time>
      </trkpt>
      <trkpt lat="43.56737" lon="2.96088">
        <ele>238.2</ele>
        <time>2014-02-20T12:21:32.532Z</time>
      </trkpt>
      <trkpt lat="43.56738" lon="2.96099">
        <ele>239.5</ele>
        <time>2014-02-20T12:21:33.557Z</time>
      </trkpt>
      <trkpt lat="43.5674" lon="2.96107">
        <ele>239.6</ele>
        <time>2014-02-20T12:21:34.513Z</time>
      </trkpt>
      <trkpt lat="43.56743" lon="2.96114">
        <ele>239</ele>
        <time>2014-02-20T12:21:35.515Z</time>
      </trkpt>
      <trkpt lat="43.56746" lon="2.96121">
        <ele>238.7</ele>
        <time>2014-02-20T12:21:36.504Z</time>
      </trkpt>
      <trkpt lat="43.5675" lon="2.96127">
        <ele>238.6</ele>
        <time>2014-02-20T12:21:37.507Z</time>
      </trkpt>
      <trkpt lat="43.56752" lon="2.96134">
        <ele>238.7</ele>
        <time>2014-02-20T12:21:38.599Z</time>
      </trkpt>
      <trkpt lat="43.56754" lon="2.9614">
        <ele>238.4</ele>
        <time>2014-02-20T12:21:39.509Z</time>
      </trkpt>
      <trkpt lat="43.56755" lon="2.96146">
        <ele>238.6</ele>
        <time>2014-02-20T12:21:40.504Z</time>
      </trkpt>
      <trkpt lat="43.56758" lon="2.96155">
        <ele>238.8</ele>
        <time>2014-02-20T12:21:41.699Z</time>
      </trkpt>
      <trkpt lat="43.56759" lon="2.9616">
        <ele>239.1</ele>
        <time>2014-02-20T12:21:42.502Z</time>
      </trkpt>
      <trkpt lat="43.56761" lon="2.96168">
        <ele>238.9</ele>
        <time>2014-02-20T12:21:43.562Z</time>
      </trkpt>
      <trkpt lat="43.56763" lon="2.96174">
        <ele>238.9</ele>
        <time>2014-02-20T12:21:44.511Z</time>
      </trkpt>
      <trkpt lat="43.56765" lon="2.9618">
        <ele>239</ele>
        <time>2014-02-20T12:21:45.560Z</time>
      </trkpt>
      <trkpt lat="43.56769" lon="2.96188">
        <ele>238.9</ele>
        <time>2014-02-20T12:21:48.050Z</time>
      </trkpt>
      <trkpt lat="43.56772" lon="2.96195">
        <ele>238.9</ele>
        <time>2014-02-20T12:21:49.644Z</time>
      </trkpt>
      <trkpt lat="43.56776" lon="2.96199">
        <ele>239</ele>
        <time>2014-02-20T12:21:50.553Z</time>
      </trkpt>
      <trkpt lat="43.5678" lon="2.96204">
        <ele>238.8</ele>
        <time>2014-02-20T12:21:51.561Z</time>
      </trkpt>
      <trkpt lat="43.56784" lon="2.9621">
        <ele>238.5</ele>
        <time>2014-02-20T12:21:52.593Z</time>
      </trkpt>
      <trkpt lat="43.56787" lon="2.96215">
        <ele>238.5</ele>
        <time>2014-02-20T12:21:53.510Z</time>
      </trkpt>
      <trkpt lat="43.5679" lon="2.96219">
        <ele>238.5</ele>
        <time>2014-02-20T12:21:54.507Z</time>
      </trkpt>
      <trkpt lat="43.56795" lon="2.96229">
        <ele>238.4</ele>
        <time>2014-02-20T12:21:56.510Z</time>
      </trkpt>
      <trkpt lat="43.56798" lon="2.96233">
        <ele>238.4</ele>
        <time>2014-02-20T12:21:57.513Z</time>
      </trkpt>
      <trkpt lat="43.56801" lon="2.96239">
        <ele>238.6</ele>
        <time>2014-02-20T12:21:58.521Z</time>
      </trkpt>
      <trkpt lat="43.56805" lon="2.96244">
        <ele>238.6</ele>
        <time>2014-02-20T12:21:59.526Z</time>
      </trkpt>
      <trkpt lat="43.56809" lon="2.96249">
        <ele>238.6</ele>
        <time>2014-02-20T12:22:00.515Z</time>
      </trkpt>
      <trkpt lat="43.56813" lon="2.96256">
        <ele>238.7</ele>
        <time>2014-02-20T12:22:01.511Z</time>
      </trkpt>
      <trkpt lat="43.56816" lon="2.96262">
        <ele>238.7</ele>
        <time>2014-02-20T12:22:02.522Z</time>
      </trkpt>
      <trkpt lat="43.5682" lon="2.96268">
        <ele>238.9</ele>
        <time>2014-02-20T12:22:03.515Z</time>
      </trkpt>
      <trkpt lat="43.56824" lon="2.96274">
        <ele>238.9</ele>
        <time>2014-02-20T12:22:04.511Z</time>
      </trkpt>
      <trkpt lat="43.56829" lon="2.96281">
        <ele>238.3</ele>
        <time>2014-02-20T12:22:05.546Z</time>
      </trkpt>
      <trkpt lat="43.56834" lon="2.96289">
        <ele>238.7</ele>
        <time>2014-02-20T12:22:06.522Z</time>
      </trkpt>
      <trkpt lat="43.56839" lon="2.96297">
        <ele>238.7</ele>
        <time>2014-02-20T12:22:07.506Z</time>
      </trkpt>
      <trkpt lat="43.56844" lon="2.96304">
        <ele>238.6</ele>
        <time>2014-02-20T12:22:08.592Z</time>
      </trkpt>
      <trkpt lat="43.56848" lon="2.9631">
        <ele>238.1</ele>
        <time>2014-02-20T12:22:09.505Z</time>
      </trkpt>
      <trkpt lat="43.56853" lon="2.96317">
        <ele>238.1</ele>
        <time>2014-02-20T12:22:10.531Z</time>
      </trkpt>
      <trkpt lat="43.56855" lon="2.96322">
        <ele>238.1</ele>
        <time>2014-02-20T12:22:11.551Z</time>
      </trkpt>
      <trkpt lat="43.56855" lon="2.96333">
        <ele>237.9</ele>
        <time>2014-02-20T12:22:13.512Z</time>
      </trkpt>
      <trkpt lat="43.56855" lon="2.96339">
        <ele>238.2</ele>
        <time>2014-02-20T12:22:14.517Z</time>
      </trkpt>
      <trkpt lat="43.56855" lon="2.96349">
        <ele>238.3</ele>
        <time>2014-02-20T12:22:16.523Z</time>
      </trkpt>
      <trkpt lat="43.56857" lon="2.96356">
        <ele>237.1</ele>
        <time>2014-02-20T12:22:17.570Z</time>
      </trkpt>
      <trkpt lat="43.56859" lon="2.96362">
        <ele>237.1</ele>
        <time>2014-02-20T12:22:18.504Z</time>
      </trkpt>
      <trkpt lat="43.56863" lon="2.96367">
        <ele>236.2</ele>
        <time>2014-02-20T12:22:19.504Z</time>
      </trkpt>
      <trkpt lat="43.56866" lon="2.96371">
        <ele>237.3</ele>
        <time>2014-02-20T12:22:20.510Z</time>
      </trkpt>
      <trkpt lat="43.56869" lon="2.96376">
        <ele>236.9</ele>
        <time>2014-02-20T12:22:21.530Z</time>
      </trkpt>
      <trkpt lat="43.56872" lon="2.96386">
        <ele>238.4</ele>
        <time>2014-02-20T12:22:23.515Z</time>
      </trkpt>
      <trkpt lat="43.56876" lon="2.96391">
        <ele>239</ele>
        <time>2014-02-20T12:22:24.504Z</time>
      </trkpt>
      <trkpt lat="43.5688" lon="2.96395">
        <ele>239.4</ele>
        <time>2014-02-20T12:22:25.504Z</time>
      </trkpt>
      <trkpt lat="43.56884" lon="2.96399">
        <ele>239.7</ele>
        <time>2014-02-20T12:22:26.554Z</time>
      </trkpt>
      <trkpt lat="43.56889" lon="2.96408">
        <ele>239.6</ele>
        <time>2014-02-20T12:22:28.513Z</time>
      </trkpt>
      <trkpt lat="43.5689" lon="2.96412">
        <ele>239.7</ele>
        <time>2014-02-20T12:22:29.509Z</time>
      </trkpt>
      <trkpt lat="43.56894" lon="2.96422">
        <ele>239.8</ele>
        <time>2014-02-20T12:22:31.548Z</time>
      </trkpt>
      <trkpt lat="43.56896" lon="2.96428">
        <ele>239.8</ele>
        <time>2014-02-20T12:22:32.507Z</time>
      </trkpt>
      <trkpt lat="43.56898" lon="2.96434">
        <ele>239.9</ele>
        <time>2014-02-20T12:22:33.583Z</time>
      </trkpt>
      <trkpt lat="43.569" lon="2.96439">
        <ele>239.8</ele>
        <time>2014-02-20T12:22:34.503Z</time>
      </trkpt>
      <trkpt lat="43.56901" lon="2.96445">
        <ele>238.8</ele>
        <time>2014-02-20T12:22:35.506Z</time>
      </trkpt>
      <trkpt lat="43.56904" lon="2.96452">
        <ele>240.2</ele>
        <time>2014-02-20T12:22:36.550Z</time>
      </trkpt>
      <trkpt lat="43.56906" lon="2.96458">
        <ele>239.5</ele>
        <time>2014-02-20T12:22:37.585Z</time>
      </trkpt>
      <trkpt lat="43.56907" lon="2.96466">
        <ele>239.1</ele>
        <time>2014-02-20T12:22:38.510Z</time>
      </trkpt>
      <trkpt lat="43.56908" lon="2.96472">
        <ele>239.2</ele>
        <time>2014-02-20T12:22:39.504Z</time>
      </trkpt>
      <trkpt lat="43.56911" lon="2.96479">
        <ele>238.9</ele>
        <time>2014-02-20T12:22:40.506Z</time>
      </trkpt>
      <trkpt lat="43.56916" lon="2.96489">
        <ele>238.4</ele>
        <time>2014-02-20T12:22:41.550Z</time>
      </trkpt>
      <trkpt lat="43.5692" lon="2.96496">
        <ele>238.5</ele>
        <time>2014-02-20T12:22:42.503Z</time>
      </trkpt>
      <trkpt lat="43.56923" lon="2.96502">
        <ele>238.4</ele>
        <time>2014-02-20T12:22:43.521Z</time>
      </trkpt>
      <trkpt lat="43.56927" lon="2.96508">
        <ele>239</ele>
        <time>2014-02-20T12:22:44.508Z</time>
      </trkpt>
      <trkpt lat="43.56931" lon="2.96515">
        <ele>238.8</ele>
        <time>2014-02-20T12:22:45.502Z</time>
      </trkpt>
      <trkpt lat="43.56935" lon="2.96523">
        <ele>238.4</ele>
        <time>2014-02-20T12:22:46.499Z</time>
      </trkpt>
      <trkpt lat="43.56938" lon="2.96531">
        <ele>238.6</ele>
        <time>2014-02-20T12:22:47.505Z</time>
      </trkpt>
      <trkpt lat="43.56941" lon="2.96537">
        <ele>237.7</ele>
        <time>2014-02-20T12:22:48.499Z</time>
      </trkpt>
      <trkpt lat="43.56945" lon="2.96543">
        <ele>236.8</ele>
        <time>2014-02-20T12:22:49.501Z</time>
      </trkpt>
      <trkpt lat="43.56949" lon="2.96547">
        <ele>236.9</ele>
        <time>2014-02-20T12:22:50.501Z</time>
      </trkpt>
      <trkpt lat="43.56952" lon="2.96552">
        <ele>236.7</ele>
        <time>2014-02-20T12:22:51.497Z</time>
      </trkpt>
      <trkpt lat="43.56955" lon="2.96557">
        <ele>237.5</ele>
        <time>2014-02-20T12:22:52.500Z</time>
      </trkpt>
      <trkpt lat="43.56956" lon="2.96563">
        <ele>236.9</ele>
        <time>2014-02-20T12:22:53.501Z</time>
      </trkpt>
      <trkpt lat="43.56958" lon="2.9657">
        <ele>237.8</ele>
        <time>2014-02-20T12:22:54.499Z</time>
      </trkpt>
      <trkpt lat="43.56961" lon="2.96579">
        <ele>237.9</ele>
        <time>2014-02-20T12:22:55.501Z</time>
      </trkpt>
      <trkpt lat="43.56966" lon="2.96587">
        <ele>238.1</ele>
        <time>2014-02-20T12:22:56.499Z</time>
      </trkpt>
      <trkpt lat="43.56969" lon="2.96593">
        <ele>240</ele>
        <time>2014-02-20T12:22:57.501Z</time>
      </trkpt>
      <trkpt lat="43.56973" lon="2.96601">
        <ele>241.9</ele>
        <time>2014-02-20T12:22:58.501Z</time>
      </trkpt>
      <trkpt lat="43.56975" lon="2.96607">
        <ele>241.6</ele>
        <time>2014-02-20T12:22:59.500Z</time>
      </trkpt>
      <trkpt lat="43.56977" lon="2.96613">
        <ele>241.7</ele>
        <time>2014-02-20T12:23:00.497Z</time>
      </trkpt>
      <trkpt lat="43.5698" lon="2.96619">
        <ele>242.9</ele>
        <time>2014-02-20T12:23:01.501Z</time>
      </trkpt>
      <trkpt lat="43.56984" lon="2.96627">
        <ele>243.6</ele>
        <time>2014-02-20T12:23:02.502Z</time>
      </trkpt>
      <trkpt lat="43.56988" lon="2.96634">
        <ele>243.8</ele>
        <time>2014-02-20T12:23:03.499Z</time>
      </trkpt>
      <trkpt lat="43.56992" lon="2.96641">
        <ele>243.3</ele>
        <time>2014-02-20T12:23:04.500Z</time>
      </trkpt>
      <trkpt lat="43.56995" lon="2.96647">
        <ele>243.3</ele>
        <time>2014-02-20T12:23:05.501Z</time>
      </trkpt>
      <trkpt lat="43.56997" lon="2.96651">
        <ele>243.4</ele>
        <time>2014-02-20T12:23:06.505Z</time>
      </trkpt>
      <trkpt lat="43.57001" lon="2.96658">
        <ele>243.9</ele>
        <time>2014-02-20T12:23:08.501Z</time>
      </trkpt>
      <trkpt lat="43.57002" lon="2.96663">
        <ele>244.1</ele>
        <time>2014-02-20T12:23:09.502Z</time>
      </trkpt>
      <trkpt lat="43.57006" lon="2.96669">
        <ele>267.2</ele>
        <time>2014-02-20T12:23:10.529Z</time>
      </trkpt>
      <trkpt lat="43.57009" lon="2.96676">
        <ele>266.1</ele>
        <time>2014-02-20T12:23:11.693Z</time>
      </trkpt>
      <trkpt lat="43.57013" lon="2.96684">
        <ele>264.2</ele>
        <time>2014-02-20T12:23:13.501Z</time>
      </trkpt>
      <trkpt lat="43.57015" lon="2.96688">
        <ele>263.2</ele>
        <time>2014-02-20T12:23:14.504Z</time>
      </trkpt>
      <trkpt lat="43.57024" lon="2.96686">
        <ele>255.7</ele>
        <time>2014-02-20T12:23:18.497Z</time>
      </trkpt>
      <trkpt lat="43.57026" lon="2.96683">
        <ele>254.1</ele>
        <time>2014-02-20T12:23:19.500Z</time>
      </trkpt>
      <trkpt lat="43.57033" lon="2.96677">
        <ele>253</ele>
        <time>2014-02-20T12:23:22.541Z</time>
      </trkpt>
      <trkpt lat="43.57036" lon="2.96675">
        <ele>252.1</ele>
        <time>2014-02-20T12:23:23.601Z</time>
      </trkpt>
      <trkpt lat="43.57041" lon="2.96673">
        <ele>250.1</ele>
        <time>2014-02-20T12:23:25.502Z</time>
      </trkpt>
      <trkpt lat="43.57044" lon="2.96671">
        <ele>252.8</ele>
        <time>2014-02-20T12:23:26.581Z</time>
      </trkpt>
      <trkpt lat="43.5705" lon="2.96664">
        <ele>251.2</ele>
        <time>2014-02-20T12:23:28.500Z</time>
      </trkpt>
      <trkpt lat="43.57053" lon="2.96662">
        <ele>249.6</ele>
        <time>2014-02-20T12:23:29.500Z</time>
      </trkpt>
      <trkpt lat="43.57059" lon="2.96655">
        <ele>248.1</ele>
        <time>2014-02-20T12:23:32.500Z</time>
      </trkpt>
      <trkpt lat="43.5706" lon="2.96653">
        <ele>247.6</ele>
        <time>2014-02-20T12:23:33.498Z</time>
      </trkpt>
      <trkpt lat="43.57066" lon="2.96645">
        <ele>244.6</ele>
        <time>2014-02-20T12:23:36.499Z</time>
      </trkpt>
      <trkpt lat="43.57068" lon="2.96642">
        <ele>244.1</ele>
        <time>2014-02-20T12:23:37.502Z</time>
      </trkpt>
      <trkpt lat="43.57073" lon="2.96635">
        <ele>241.3</ele>
        <time>2014-02-20T12:23:40.501Z</time>
      </trkpt>
      <trkpt lat="43.57076" lon="2.96633">
        <ele>241</ele>
        <time>2014-02-20T12:23:41.503Z</time>
      </trkpt>
      <trkpt lat="43.57083" lon="2.96627">
        <ele>240.2</ele>
        <time>2014-02-20T12:23:45.499Z</time>
      </trkpt>
      <trkpt lat="43.57086" lon="2.96626">
        <ele>239.9</ele>
        <time>2014-02-20T12:23:46.501Z</time>
      </trkpt>
      <trkpt lat="43.57093" lon="2.96624">
        <ele>239</ele>
        <time>2014-02-20T12:23:49.500Z</time>
      </trkpt>
      <trkpt lat="43.57095" lon="2.96624">
        <ele>238.8</ele>
        <time>2014-02-20T12:23:50.501Z</time>
      </trkpt>
      <trkpt lat="43.57102" lon="2.96628">
        <ele>239.4</ele>
        <time>2014-02-20T12:23:53.501Z</time>
      </trkpt>
      <trkpt lat="43.57105" lon="2.96631">
        <ele>239.9</ele>
        <time>2014-02-20T12:23:54.498Z</time>
      </trkpt>
      <trkpt lat="43.5711" lon="2.96636">
        <ele>240.1</ele>
        <time>2014-02-20T12:23:56.503Z</time>
      </trkpt>
      <trkpt lat="43.57112" lon="2.96639">
        <ele>240</ele>
        <time>2014-02-20T12:23:57.500Z</time>
      </trkpt>
      <trkpt lat="43.57119" lon="2.96644">
        <ele>240.1</ele>
        <time>2014-02-20T12:24:00.499Z</time>
      </trkpt>
      <trkpt lat="43.57121" lon="2.96645">
        <ele>240</ele>
        <time>2014-02-20T12:24:01.502Z</time>
      </trkpt>
      <trkpt lat="43.57127" lon="2.96646">
        <ele>240.3</ele>
        <time>2014-02-20T12:24:03.501Z</time>
      </trkpt>
      <trkpt lat="43.5713" lon="2.96648">
        <ele>240.2</ele>
        <time>2014-02-20T12:24:04.502Z</time>
      </trkpt>
      <trkpt lat="43.57134" lon="2.96649">
        <ele>240.3</ele>
        <time>2014-02-20T12:24:05.505Z</time>
      </trkpt>
      <trkpt lat="43.57139" lon="2.96651">
        <ele>239.8</ele>
        <time>2014-02-20T12:24:06.502Z</time>
      </trkpt>
      <trkpt lat="43.57145" lon="2.96653">
        <ele>239.6</ele>
        <time>2014-02-20T12:24:07.501Z</time>
      </trkpt>
      <trkpt lat="43.57152" lon="2.96655">
        <ele>239.7</ele>
        <time>2014-02-20T12:24:08.502Z</time>
      </trkpt>
      <trkpt lat="43.57161" lon="2.96655">
        <ele>239.9</ele>
        <time>2014-02-20T12:24:09.584Z</time>
      </trkpt>
      <trkpt lat="43.57169" lon="2.96653">
        <ele>240</ele>
        <time>2014-02-20T12:24:10.511Z</time>
      </trkpt>
      <trkpt lat="43.57178" lon="2.96651">
        <ele>240.2</ele>
        <time>2014-02-20T12:24:11.533Z</time>
      </trkpt>
      <trkpt lat="43.57185" lon="2.96647">
        <ele>240.2</ele>
        <time>2014-02-20T12:24:12.542Z</time>
      </trkpt>
      <trkpt lat="43.5719" lon="2.96644">
        <ele>240.3</ele>
        <time>2014-02-20T12:24:13.508Z</time>
      </trkpt>
      <trkpt lat="43.57195" lon="2.96642">
        <ele>240.2</ele>
        <time>2014-02-20T12:24:14.506Z</time>
      </trkpt>
      <trkpt lat="43.572" lon="2.9664">
        <ele>239.7</ele>
        <time>2014-02-20T12:24:15.505Z</time>
      </trkpt>
      <trkpt lat="43.57205" lon="2.96641">
        <ele>240</ele>
        <time>2014-02-20T12:24:16.526Z</time>
      </trkpt>
      <trkpt lat="43.57209" lon="2.96644">
        <ele>240.2</ele>
        <time>2014-02-20T12:24:17.506Z</time>
      </trkpt>
      <trkpt lat="43.57214" lon="2.96648">
        <ele>241.9</ele>
        <time>2014-02-20T12:24:18.502Z</time>
      </trkpt>
      <trkpt lat="43.57219" lon="2.96653">
        <ele>241.9</ele>
        <time>2014-02-20T12:24:19.505Z</time>
      </trkpt>
      <trkpt lat="43.57223" lon="2.96658">
        <ele>241.4</ele>
        <time>2014-02-20T12:24:20.507Z</time>
      </trkpt>
      <trkpt lat="43.57227" lon="2.96664">
        <ele>241.3</ele>
        <time>2014-02-20T12:24:21.525Z</time>
      </trkpt>
      <trkpt lat="43.5723" lon="2.96668">
        <ele>241.4</ele>
        <time>2014-02-20T12:24:22.507Z</time>
      </trkpt>
      <trkpt lat="43.57234" lon="2.96672">
        <ele>241.1</ele>
        <time>2014-02-20T12:24:23.507Z</time>
      </trkpt>
      <trkpt lat="43.5724" lon="2.96679">
        <ele>240.5</ele>
        <time>2014-02-20T12:24:25.555Z</time>
      </trkpt>
      <trkpt lat="43.57244" lon="2.96683">
        <ele>240.5</ele>
        <time>2014-02-20T12:24:26.535Z</time>
      </trkpt>
      <trkpt lat="43.57251" lon="2.9669">
        <ele>240.4</ele>
        <time>2014-02-20T12:24:28.527Z</time>
      </trkpt>
      <trkpt lat="43.57255" lon="2.96693">
        <ele>240.5</ele>
        <time>2014-02-20T12:24:29.509Z</time>
      </trkpt>
      <trkpt lat="43.57261" lon="2.96696">
        <ele>240.2</ele>
        <time>2014-02-20T12:24:30.502Z</time>
      </trkpt>
      <trkpt lat="43.57267" lon="2.96699">
        <ele>240.3</ele>
        <time>2014-02-20T12:24:31.540Z</time>
      </trkpt>
      <trkpt lat="43.57272" lon="2.96701">
        <ele>240.5</ele>
        <time>2014-02-20T12:24:32.508Z</time>
      </trkpt>
      <trkpt lat="43.57276" lon="2.96702">
        <ele>239.7</ele>
        <time>2014-02-20T12:24:33.504Z</time>
      </trkpt>
      <trkpt lat="43.57283" lon="2.96703">
        <ele>239.4</ele>
        <time>2014-02-20T12:24:35.519Z</time>
      </trkpt>
      <trkpt lat="43.57287" lon="2.96703">
        <ele>239.7</ele>
        <time>2014-02-20T12:24:36.546Z</time>
      </trkpt>
      <trkpt lat="43.57294" lon="2.96705">
        <ele>240.5</ele>
        <time>2014-02-20T12:24:38.509Z</time>
      </trkpt>
      <trkpt lat="43.57296" lon="2.96707">
        <ele>241.3</ele>
        <time>2014-02-20T12:24:39.503Z</time>
      </trkpt>
      <trkpt lat="43.57305" lon="2.96711">
        <ele>241.1</ele>
        <time>2014-02-20T12:24:41.554Z</time>
      </trkpt>
      <trkpt lat="43.57308" lon="2.96713">
        <ele>241.8</ele>
        <time>2014-02-20T12:24:42.507Z</time>
      </trkpt>
      <trkpt lat="43.57315" lon="2.96715">
        <ele>241.4</ele>
        <time>2014-02-20T12:24:44.544Z</time>
      </trkpt>
      <trkpt lat="43.57318" lon="2.96717">
        <ele>240.5</ele>
        <time>2014-02-20T12:24:45.505Z</time>
      </trkpt>
      <trkpt lat="43.57325" lon="2.96719">
        <ele>239.9</ele>
        <time>2014-02-20T12:24:47.508Z</time>
      </trkpt>
      <trkpt lat="43.57329" lon="2.96719">
        <ele>240.5</ele>
        <time>2014-02-20T12:24:48.508Z</time>
      </trkpt>
      <trkpt lat="43.57337" lon="2.96717">
        <ele>242.9</ele>
        <time>2014-02-20T12:24:51.502Z</time>
      </trkpt>
      <trkpt lat="43.57339" lon="2.96716">
        <ele>243.1</ele>
        <time>2014-02-20T12:24:52.506Z</time>
      </trkpt>
      <trkpt lat="43.57347" lon="2.96712">
        <ele>243.7</ele>
        <time>2014-02-20T12:24:55.502Z</time>
      </trkpt>
      <trkpt lat="43.57349" lon="2.9671">
        <ele>243.7</ele>
        <time>2014-02-20T12:24:56.506Z</time>
      </trkpt>
      <trkpt lat="43.57356" lon="2.96708">
        <ele>244</ele>
        <time>2014-02-20T12:24:59.504Z</time>
      </trkpt>
      <trkpt lat="43.57359" lon="2.96707">
        <ele>244.2</ele>
        <time>2014-02-20T12:25:00.501Z</time>
      </trkpt>
      <trkpt lat="43.57367" lon="2.96706">
        <ele>245.7</ele>
        <time>2014-02-20T12:25:02.552Z</time>
      </trkpt>
      <trkpt lat="43.5737" lon="2.96706">
        <ele>246.3</ele>
        <time>2014-02-20T12:25:03.500Z</time>
      </trkpt>
      <trkpt lat="43.57377" lon="2.96706">
        <ele>247.5</ele>
        <time>2014-02-20T12:25:05.518Z</time>
      </trkpt>
      <trkpt lat="43.5738" lon="2.96706">
        <ele>247.6</ele>
        <time>2014-02-20T12:25:06.524Z</time>
      </trkpt>
      <trkpt lat="43.57388" lon="2.96704">
        <ele>248.7</ele>
        <time>2014-02-20T12:25:09.503Z</time>
      </trkpt>
      <trkpt lat="43.5739" lon="2.96704">
        <ele>248.5</ele>
        <time>2014-02-20T12:25:10.508Z</time>
      </trkpt>
      <trkpt lat="43.57397" lon="2.96703">
        <ele>249.3</ele>
        <time>2014-02-20T12:25:13.511Z</time>
      </trkpt>
      <trkpt lat="43.57399" lon="2.96702">
        <ele>248.8</ele>
        <time>2014-02-20T12:25:14.511Z</time>
      </trkpt>
      <trkpt lat="43.57407" lon="2.96698">
        <ele>248.7</ele>
        <time>2014-02-20T12:25:17.506Z</time>
      </trkpt>
      <trkpt lat="43.57409" lon="2.96698">
        <ele>249.2</ele>
        <time>2014-02-20T12:25:18.504Z</time>
      </trkpt>
      <trkpt lat="43.57417" lon="2.96697">
        <ele>249.6</ele>
        <time>2014-02-20T12:25:21.564Z</time>
      </trkpt>
      <trkpt lat="43.57419" lon="2.96696">
        <ele>249.4</ele>
        <time>2014-02-20T12:25:22.503Z</time>
      </trkpt>
      <trkpt lat="43.57427" lon="2.96692">
        <ele>249.9</ele>
        <time>2014-02-20T12:25:25.508Z</time>
      </trkpt>
      <trkpt lat="43.57429" lon="2.96691">
        <ele>250.1</ele>
        <time>2014-02-20T12:25:26.583Z</time>
      </trkpt>
      <trkpt lat="43.57435" lon="2.96684">
        <ele>251</ele>
        <time>2014-02-20T12:25:33.505Z</time>
      </trkpt>
      <trkpt lat="43.57435" lon="2.96684">
        <ele>251.4</ele>
        <time>2014-02-20T12:25:34.506Z</time>
      </trkpt>
      <trkpt lat="43.57434" lon="2.96684">
        <ele>251.6</ele>
        <time>2014-02-20T12:25:35.507Z</time>
      </trkpt>
      <trkpt lat="43.57434" lon="2.96684">
        <ele>251.8</ele>
        <time>2014-02-20T12:25:36.505Z</time>
      </trkpt>
      <trkpt lat="43.57434" lon="2.96678">
        <ele>254.1</ele>
        <time>2014-02-20T12:25:43.501Z</time>
      </trkpt>
      <trkpt lat="43.57433" lon="2.96678">
        <ele>253.8</ele>
        <time>2014-02-20T12:25:44.503Z</time>
      </trkpt>
      <trkpt lat="43.57433" lon="2.96679">
        <ele>253.5</ele>
        <time>2014-02-20T12:26:53.501Z</time>
      </trkpt>
      <trkpt lat="43.57434" lon="2.96679">
        <ele>253.9</ele>
        <time>2014-02-20T12:26:54.498Z</time>
      </trkpt>
      <trkpt lat="43.57439" lon="2.96676">
        <ele>253</ele>
        <time>2014-02-20T12:26:56.500Z</time>
      </trkpt>
      <trkpt lat="43.57443" lon="2.96675">
        <ele>253</ele>
        <time>2014-02-20T12:26:57.501Z</time>
      </trkpt>
      <trkpt lat="43.57449" lon="2.96672">
        <ele>252.2</ele>
        <time>2014-02-20T12:26:58.503Z</time>
      </trkpt>
      <trkpt lat="43.57454" lon="2.96669">
        <ele>252.8</ele>
        <time>2014-02-20T12:26:59.507Z</time>
      </trkpt>
      <trkpt lat="43.57459" lon="2.96666">
        <ele>252.7</ele>
        <time>2014-02-20T12:27:00.772Z</time>
      </trkpt>
      <trkpt lat="43.57464" lon="2.96665">
        <ele>253.1</ele>
        <time>2014-02-20T12:27:01.501Z</time>
      </trkpt>
      <trkpt lat="43.57469" lon="2.96664">
        <ele>253.7</ele>
        <time>2014-02-20T12:27:02.503Z</time>
      </trkpt>
      <trkpt lat="43.57475" lon="2.96664">
        <ele>253.3</ele>
        <time>2014-02-20T12:27:03.497Z</time>
      </trkpt>
      <trkpt lat="43.57481" lon="2.96663">
        <ele>253.8</ele>
        <time>2014-02-20T12:27:04.500Z</time>
      </trkpt>
      <trkpt lat="43.57488" lon="2.96663">
        <ele>254.1</ele>
        <time>2014-02-20T12:27:05.502Z</time>
      </trkpt>
      <trkpt lat="43.57494" lon="2.96663">
        <ele>253.7</ele>
        <time>2014-02-20T12:27:06.515Z</time>
      </trkpt>
      <trkpt lat="43.57501" lon="2.96664">
        <ele>253.6</ele>
        <time>2014-02-20T12:27:07.501Z</time>
      </trkpt>
      <trkpt lat="43.57508" lon="2.96665">
        <ele>253.8</ele>
        <time>2014-02-20T12:27:08.501Z</time>
      </trkpt>
      <trkpt lat="43.57515" lon="2.96665">
        <ele>253.8</ele>
        <time>2014-02-20T12:27:09.500Z</time>
      </trkpt>
      <trkpt lat="43.57523" lon="2.96665">
        <ele>253.5</ele>
        <time>2014-02-20T12:27:10.501Z</time>
      </trkpt>
      <trkpt lat="43.57531" lon="2.96664">
        <ele>253.3</ele>
        <time>2014-02-20T12:27:11.530Z</time>
      </trkpt>
      <trkpt lat="43.57539" lon="2.96663">
        <ele>253.4</ele>
        <time>2014-02-20T12:27:12.500Z</time>
      </trkpt>
      <trkpt lat="43.57546" lon="2.96661">
        <ele>253.9</ele>
        <time>2014-02-20T12:27:13.500Z</time>
      </trkpt>
      <trkpt lat="43.57553" lon="2.96659">
        <ele>253.8</ele>
        <time>2014-02-20T12:27:14.504Z</time>
      </trkpt>
      <trkpt lat="43.5756" lon="2.96656">
        <ele>254.2</ele>
        <time>2014-02-20T12:27:15.500Z</time>
      </trkpt>
      <trkpt lat="43.57565" lon="2.96654">
        <ele>253.9</ele>
        <time>2014-02-20T12:27:16.520Z</time>
      </trkpt>
      <trkpt lat="43.5757" lon="2.9665">
        <ele>254.5</ele>
        <time>2014-02-20T12:27:17.506Z</time>
      </trkpt>
      <trkpt lat="43.57575" lon="2.96647">
        <ele>254.9</ele>
        <time>2014-02-20T12:27:18.501Z</time>
      </trkpt>
      <trkpt lat="43.57579" lon="2.96644">
        <ele>254.8</ele>
        <time>2014-02-20T12:27:19.499Z</time>
      </trkpt>
      <trkpt lat="43.57584" lon="2.96642">
        <ele>255.2</ele>
        <time>2014-02-20T12:27:20.500Z</time>
      </trkpt>
      <trkpt lat="43.57588" lon="2.96639">
        <ele>255.6</ele>
        <time>2014-02-20T12:27:21.529Z</time>
      </trkpt>
      <trkpt lat="43.57595" lon="2.96634">
        <ele>255.5</ele>
        <time>2014-02-20T12:27:23.498Z</time>
      </trkpt>
      <trkpt lat="43.57599" lon="2.96631">
        <ele>254.9</ele>
        <time>2014-02-20T12:27:24.494Z</time>
      </trkpt>
      <trkpt lat="43.57605" lon="2.96625">
        <ele>255.1</ele>
        <time>2014-02-20T12:27:26.538Z</time>
      </trkpt>
      <trkpt lat="43.57607" lon="2.96623">
        <ele>255.3</ele>
        <time>2014-02-20T12:27:27.494Z</time>
      </trkpt>
      <trkpt lat="43.57613" lon="2.96614">
        <ele>254.1</ele>
        <time>2014-02-20T12:27:30.500Z</time>
      </trkpt>
      <trkpt lat="43.57616" lon="2.96611">
        <ele>255.1</ele>
        <time>2014-02-20T12:27:31.547Z</time>
      </trkpt>
      <trkpt lat="43.5762" lon="2.96604">
        <ele>255.1</ele>
        <time>2014-02-20T12:27:33.512Z</time>
      </trkpt>
      <trkpt lat="43.57622" lon="2.966">
        <ele>255.3</ele>
        <time>2014-02-20T12:27:34.499Z</time>
      </trkpt>
      <trkpt lat="43.57625" lon="2.96592">
        <ele>255.5</ele>
        <time>2014-02-20T12:27:36.543Z</time>
      </trkpt>
      <trkpt lat="43.57627" lon="2.96588">
        <ele>255.4</ele>
        <time>2014-02-20T12:27:37.504Z</time>
      </trkpt>
      <trkpt lat="43.57647" lon="2.96538">
        <ele>256</ele>
        <time>2014-02-20T12:27:53.500Z</time>
      </trkpt>
      <trkpt lat="43.57655" lon="2.96543">
        <ele>259.1</ele>
        <time>2014-02-20T12:28:17.514Z</time>
      </trkpt>
      <trkpt lat="43.57658" lon="2.96545">
        <ele>259.6</ele>
        <time>2014-02-20T12:28:18.506Z</time>
      </trkpt>
      <trkpt lat="43.57663" lon="2.96548">
        <ele>259.5</ele>
        <time>2014-02-20T12:28:20.509Z</time>
      </trkpt>
      <trkpt lat="43.57666" lon="2.96549">
        <ele>260</ele>
        <time>2014-02-20T12:28:21.687Z</time>
      </trkpt>
      <trkpt lat="43.57674" lon="2.96552">
        <ele>260</ele>
        <time>2014-02-20T12:28:24.506Z</time>
      </trkpt>
      <trkpt lat="43.57677" lon="2.96554">
        <ele>259.6</ele>
        <time>2014-02-20T12:28:25.506Z</time>
      </trkpt>
      <trkpt lat="43.57685" lon="2.96559">
        <ele>259</ele>
        <time>2014-02-20T12:28:28.507Z</time>
      </trkpt>
      <trkpt lat="43.57687" lon="2.9656">
        <ele>258.7</ele>
        <time>2014-02-20T12:28:29.508Z</time>
      </trkpt>
      <trkpt lat="43.57694" lon="2.96565">
        <ele>258.2</ele>
        <time>2014-02-20T12:28:32.503Z</time>
      </trkpt>
      <trkpt lat="43.57696" lon="2.96567">
        <ele>258.3</ele>
        <time>2014-02-20T12:28:33.502Z</time>
      </trkpt>
      <trkpt lat="43.57704" lon="2.96568">
        <ele>258.7</ele>
        <time>2014-02-20T12:28:37.507Z</time>
      </trkpt>
      <trkpt lat="43.57706" lon="2.96568">
        <ele>258.4</ele>
        <time>2014-02-20T12:28:38.508Z</time>
      </trkpt>
      <trkpt lat="43.57713" lon="2.96564">
        <ele>258.5</ele>
        <time>2014-02-20T12:28:42.499Z</time>
      </trkpt>
      <trkpt lat="43.57716" lon="2.96562">
        <ele>259.3</ele>
        <time>2014-02-20T12:28:43.500Z</time>
      </trkpt>
      <trkpt lat="43.57723" lon="2.96561">
        <ele>259.1</ele>
        <time>2014-02-20T12:28:46.498Z</time>
      </trkpt>
      <trkpt lat="43.57725" lon="2.96562">
        <ele>259.5</ele>
        <time>2014-02-20T12:28:47.500Z</time>
      </trkpt>
      <trkpt lat="43.57733" lon="2.96568">
        <ele>258.4</ele>
        <time>2014-02-20T12:28:51.499Z</time>
      </trkpt>
      <trkpt lat="43.57734" lon="2.9657">
        <ele>257.6</ele>
        <time>2014-02-20T12:28:52.501Z</time>
      </trkpt>
      <trkpt lat="43.57736" lon="2.9658">
        <ele>257.7</ele>
        <time>2014-02-20T12:28:55.501Z</time>
      </trkpt>
      <trkpt lat="43.57736" lon="2.96583">
        <ele>258.3</ele>
        <time>2014-02-20T12:28:56.501Z</time>
      </trkpt>
      <trkpt lat="43.57741" lon="2.96593">
        <ele>258.6</ele>
        <time>2014-02-20T12:29:02.502Z</time>
      </trkpt>
      <trkpt lat="43.57742" lon="2.96594">
        <ele>258.4</ele>
        <time>2014-02-20T12:29:03.500Z</time>
      </trkpt>
      <trkpt lat="43.5775" lon="2.966">
        <ele>258.1</ele>
        <time>2014-02-20T12:29:09.497Z</time>
      </trkpt>
      <trkpt lat="43.57752" lon="2.96602">
        <ele>257.9</ele>
        <time>2014-02-20T12:29:10.500Z</time>
      </trkpt>
      <trkpt lat="43.57759" lon="2.96608">
        <ele>257</ele>
        <time>2014-02-20T12:29:15.499Z</time>
      </trkpt>
      <trkpt lat="43.57762" lon="2.96609">
        <ele>257.5</ele>
        <time>2014-02-20T12:29:16.523Z</time>
      </trkpt>
      <trkpt lat="43.5777" lon="2.96613">
        <ele>257.1</ele>
        <time>2014-02-20T12:29:20.503Z</time>
      </trkpt>
      <trkpt lat="43.57772" lon="2.96613">
        <ele>257.1</ele>
        <time>2014-02-20T12:29:21.531Z</time>
      </trkpt>
      <trkpt lat="43.57777" lon="2.96621">
        <ele>256.9</ele>
        <time>2014-02-20T12:29:24.499Z</time>
      </trkpt>
      <trkpt lat="43.57779" lon="2.96622">
        <ele>256.2</ele>
        <time>2014-02-20T12:29:25.501Z</time>
      </trkpt>
      <trkpt lat="43.57788" lon="2.96623">
        <ele>258.1</ele>
        <time>2014-02-20T12:29:30.499Z</time>
      </trkpt>
      <trkpt lat="43.5779" lon="2.96623">
        <ele>258.6</ele>
        <time>2014-02-20T12:29:31.544Z</time>
      </trkpt>
      <trkpt lat="43.57799" lon="2.96625">
        <ele>259.1</ele>
        <time>2014-02-20T12:29:36.540Z</time>
      </trkpt>
      <trkpt lat="43.578" lon="2.96626">
        <ele>259.4</ele>
        <time>2014-02-20T12:29:37.500Z</time>
      </trkpt>
      <trkpt lat="43.57808" lon="2.96629">
        <ele>260.1</ele>
        <time>2014-02-20T12:29:41.544Z</time>
      </trkpt>
      <trkpt lat="43.5781" lon="2.96629">
        <ele>260.1</ele>
        <time>2014-02-20T12:29:42.497Z</time>
      </trkpt>
      <trkpt lat="43.57814" lon="2.96618">
        <ele>261.2</ele>
        <time>2014-02-20T12:29:53.499Z</time>
      </trkpt>
      <trkpt lat="43.57814" lon="2.96616">
        <ele>261.7</ele>
        <time>2014-02-20T12:29:54.497Z</time>
      </trkpt>
      <trkpt lat="43.57816" lon="2.96608">
        <ele>264.1</ele>
        <time>2014-02-20T12:30:02.501Z</time>
      </trkpt>
      <trkpt lat="43.57818" lon="2.96605">
        <ele>263.4</ele>
        <time>2014-02-20T12:30:03.501Z</time>
      </trkpt>
      <trkpt lat="43.57822" lon="2.96597">
        <ele>262.8</ele>
        <time>2014-02-20T12:30:05.505Z</time>
      </trkpt>
      <trkpt lat="43.57827" lon="2.9659">
        <ele>262.9</ele>
        <time>2014-02-20T12:30:06.511Z</time>
      </trkpt>
      <trkpt lat="43.57831" lon="2.96583">
        <ele>263.9</ele>
        <time>2014-02-20T12:30:07.500Z</time>
      </trkpt>
      <trkpt lat="43.57836" lon="2.96577">
        <ele>265.1</ele>
        <time>2014-02-20T12:30:08.502Z</time>
      </trkpt>
      <trkpt lat="43.57839" lon="2.96572">
        <ele>265.8</ele>
        <time>2014-02-20T12:30:09.501Z</time>
      </trkpt>
      <trkpt lat="43.57842" lon="2.96567">
        <ele>265.7</ele>
        <time>2014-02-20T12:30:10.500Z</time>
      </trkpt>
      <trkpt lat="43.57844" lon="2.96557">
        <ele>270.1</ele>
        <time>2014-02-20T12:30:19.500Z</time>
      </trkpt>
      <trkpt lat="43.57844" lon="2.96558">
        <ele>270.3</ele>
        <time>2014-02-20T12:30:20.502Z</time>
      </trkpt>
      <trkpt lat="43.57845" lon="2.96558">
        <ele>271</ele>
        <time>2014-02-20T12:30:23.501Z</time>
      </trkpt>
      <trkpt lat="43.57846" lon="2.96557">
        <ele>271.5</ele>
        <time>2014-02-20T12:30:24.498Z</time>
      </trkpt>
      <trkpt lat="43.57852" lon="2.96554">
        <ele>272</ele>
        <time>2014-02-20T12:30:26.594Z</time>
      </trkpt>
      <trkpt lat="43.57855" lon="2.96551">
        <ele>271.9</ele>
        <time>2014-02-20T12:30:27.499Z</time>
      </trkpt>
      <trkpt lat="43.57862" lon="2.96544">
        <ele>272.8</ele>
        <time>2014-02-20T12:30:29.505Z</time>
      </trkpt>
      <trkpt lat="43.57865" lon="2.96541">
        <ele>273.4</ele>
        <time>2014-02-20T12:30:30.507Z</time>
      </trkpt>
      <trkpt lat="43.57872" lon="2.96533">
        <ele>278.3</ele>
        <time>2014-02-20T12:30:34.502Z</time>
      </trkpt>
      <trkpt lat="43.57873" lon="2.96532">
        <ele>279.2</ele>
        <time>2014-02-20T12:30:35.516Z</time>
      </trkpt>
      <trkpt lat="43.57876" lon="2.96523">
        <ele>281.3</ele>
        <time>2014-02-20T12:30:38.500Z</time>
      </trkpt>
      <trkpt lat="43.57876" lon="2.96519">
        <ele>282.1</ele>
        <time>2014-02-20T12:30:39.498Z</time>
      </trkpt>
      <trkpt lat="43.5788" lon="2.96508">
        <ele>281</ele>
        <time>2014-02-20T12:30:44.500Z</time>
      </trkpt>
      <trkpt lat="43.5788" lon="2.96506">
        <ele>281.5</ele>
        <time>2014-02-20T12:30:45.497Z</time>
      </trkpt>
      <trkpt lat="43.57878" lon="2.96495">
        <ele>284.2</ele>
        <time>2014-02-20T12:30:52.500Z</time>
      </trkpt>
      <trkpt lat="43.57878" lon="2.96494">
        <ele>284.6</ele>
        <time>2014-02-20T12:30:53.502Z</time>
      </trkpt>
      <trkpt lat="43.57886" lon="2.96489">
        <ele>288.2</ele>
        <time>2014-02-20T12:30:57.498Z</time>
      </trkpt>
      <trkpt lat="43.57888" lon="2.96488">
        <ele>288.4</ele>
        <time>2014-02-20T12:30:58.500Z</time>
      </trkpt>
      <trkpt lat="43.57893" lon="2.96481">
        <ele>289.9</ele>
        <time>2014-02-20T12:31:01.499Z</time>
      </trkpt>
      <trkpt lat="43.57895" lon="2.96478">
        <ele>289</ele>
        <time>2014-02-20T12:31:02.501Z</time>
      </trkpt>
      <trkpt lat="43.57901" lon="2.96471">
        <ele>290.7</ele>
        <time>2014-02-20T12:31:05.502Z</time>
      </trkpt>
      <trkpt lat="43.57902" lon="2.96469">
        <ele>291.2</ele>
        <time>2014-02-20T12:31:06.508Z</time>
      </trkpt>
      <trkpt lat="43.5791" lon="2.96464">
        <ele>294</ele>
        <time>2014-02-20T12:31:15.500Z</time>
      </trkpt>
      <trkpt lat="43.57911" lon="2.96465">
        <ele>295</ele>
        <time>2014-02-20T12:31:16.578Z</time>
      </trkpt>
      <trkpt lat="43.57918" lon="2.96463">
        <ele>297.2</ele>
        <time>2014-02-20T12:31:31.549Z</time>
      </trkpt>
      <trkpt lat="43.57918" lon="2.96464">
        <ele>297.2</ele>
        <time>2014-02-20T12:31:32.509Z</time>
      </trkpt>
      <trkpt lat="43.57918" lon="2.96464">
        <ele>296.9</ele>
        <time>2014-02-20T12:31:36.547Z</time>
      </trkpt>
      <trkpt lat="43.57921" lon="2.96462">
        <ele>296.9</ele>
        <time>2014-02-20T12:31:37.505Z</time>
      </trkpt>
      <trkpt lat="43.57926" lon="2.96459">
        <ele>297.2</ele>
        <time>2014-02-20T12:31:38.508Z</time>
      </trkpt>
      <trkpt lat="43.57933" lon="2.96455">
        <ele>297.5</ele>
        <time>2014-02-20T12:31:39.507Z</time>
      </trkpt>
      <trkpt lat="43.5794" lon="2.96452">
        <ele>297.8</ele>
        <time>2014-02-20T12:31:40.506Z</time>
      </trkpt>
      <trkpt lat="43.57948" lon="2.96448">
        <ele>298.1</ele>
        <time>2014-02-20T12:31:41.554Z</time>
      </trkpt>
      <trkpt lat="43.57954" lon="2.96445">
        <ele>298.1</ele>
        <time>2014-02-20T12:31:42.507Z</time>
      </trkpt>
      <trkpt lat="43.57959" lon="2.96443">
        <ele>298.5</ele>
        <time>2014-02-20T12:31:43.506Z</time>
      </trkpt>
      <trkpt lat="43.57967" lon="2.96441">
        <ele>298.8</ele>
        <time>2014-02-20T12:31:45.505Z</time>
      </trkpt>
      <trkpt lat="43.5797" lon="2.96441">
        <ele>298.9</ele>
        <time>2014-02-20T12:31:46.550Z</time>
      </trkpt>
      <trkpt lat="43.57977" lon="2.96439">
        <ele>299.3</ele>
        <time>2014-02-20T12:31:49.506Z</time>
      </trkpt>
      <trkpt lat="43.5798" lon="2.96441">
        <ele>299.4</ele>
        <time>2014-02-20T12:31:50.510Z</time>
      </trkpt>
      <trkpt lat="43.57987" lon="2.96448">
        <ele>299.7</ele>
        <time>2014-02-20T12:31:53.503Z</time>
      </trkpt>
      <trkpt lat="43.57989" lon="2.96449">
        <ele>299.8</ele>
        <time>2014-02-20T12:31:54.500Z</time>
      </trkpt>
      <trkpt lat="43.57994" lon="2.9644">
        <ele>303.1</ele>
        <time>2014-02-20T12:31:59.501Z</time>
      </trkpt>
      <trkpt lat="43.57997" lon="2.96442">
        <ele>300.5</ele>
        <time>2014-02-20T12:32:00.506Z</time>
      </trkpt>
      <trkpt lat="43.58003" lon="2.96449">
        <ele>300.6</ele>
        <time>2014-02-20T12:32:03.498Z</time>
      </trkpt>
      <trkpt lat="43.58004" lon="2.96452">
        <ele>299.5</ele>
        <time>2014-02-20T12:32:04.498Z</time>
      </trkpt>
      <trkpt lat="43.58011" lon="2.96457">
        <ele>299.6</ele>
        <time>2014-02-20T12:32:07.506Z</time>
      </trkpt>
      <trkpt lat="43.58012" lon="2.96459">
        <ele>299.4</ele>
        <time>2014-02-20T12:32:08.506Z</time>
      </trkpt>
      <trkpt lat="43.58017" lon="2.96467">
        <ele>297.4</ele>
        <time>2014-02-20T12:32:11.554Z</time>
      </trkpt>
      <trkpt lat="43.58019" lon="2.96469">
        <ele>296.9</ele>
        <time>2014-02-20T12:32:12.503Z</time>
      </trkpt>
      <trkpt lat="43.58025" lon="2.96474">
        <ele>294</ele>
        <time>2014-02-20T12:32:14.507Z</time>
      </trkpt>
      <trkpt lat="43.58028" lon="2.96476">
        <ele>292.9</ele>
        <time>2014-02-20T12:32:15.501Z</time>
      </trkpt>
      <trkpt lat="43.58036" lon="2.96479">
        <ele>289.8</ele>
        <time>2014-02-20T12:32:20.507Z</time>
      </trkpt>
      <trkpt lat="43.58037" lon="2.9648">
        <ele>289.8</ele>
        <time>2014-02-20T12:32:21.593Z</time>
      </trkpt>
      <trkpt lat="43.58043" lon="2.96487">
        <ele>292.8</ele>
        <time>2014-02-20T12:32:25.499Z</time>
      </trkpt>
      <trkpt lat="43.58044" lon="2.96489">
        <ele>291.4</ele>
        <time>2014-02-20T12:32:26.501Z</time>
      </trkpt>
      <trkpt lat="43.58052" lon="2.96493">
        <ele>289.5</ele>
        <time>2014-02-20T12:32:31.500Z</time>
      </trkpt>
      <trkpt lat="43.58053" lon="2.96492">
        <ele>289.6</ele>
        <time>2014-02-20T12:32:32.503Z</time>
      </trkpt>
      <trkpt lat="43.58061" lon="2.96494">
        <ele>285.3</ele>
        <time>2014-02-20T12:32:36.499Z</time>
      </trkpt>
      <trkpt lat="43.58062" lon="2.96495">
        <ele>284.8</ele>
        <time>2014-02-20T12:32:37.502Z</time>
      </trkpt>
      <trkpt lat="43.5807" lon="2.9649">
        <ele>285.7</ele>
        <time>2014-02-20T12:32:51.499Z</time>
      </trkpt>
      <trkpt lat="43.58071" lon="2.96489">
        <ele>285.7</ele>
        <time>2014-02-20T12:32:52.500Z</time>
      </trkpt>
      <trkpt lat="43.58079" lon="2.96485">
        <ele>286.2</ele>
        <time>2014-02-20T12:32:56.505Z</time>
      </trkpt>
      <trkpt lat="43.5808" lon="2.96485">
        <ele>286.2</ele>
        <time>2014-02-20T12:32:57.505Z</time>
      </trkpt>
      <trkpt lat="43.58087" lon="2.96481">
        <ele>287.2</ele>
        <time>2014-02-20T12:33:06.516Z</time>
      </trkpt>
      <trkpt lat="43.58089" lon="2.96482">
        <ele>286.8</ele>
        <time>2014-02-20T12:33:07.506Z</time>
      </trkpt>
      <trkpt lat="43.58097" lon="2.96484">
        <ele>294.8</ele>
        <time>2014-02-20T12:33:24.506Z</time>
      </trkpt>
      <trkpt lat="43.58097" lon="2.96484">
        <ele>294.9</ele>
        <time>2014-02-20T12:33:25.563Z</time>
      </trkpt>
      <trkpt lat="43.58097" lon="2.96484">
        <ele>294.6</ele>
        <time>2014-02-20T12:33:31.553Z</time>
      </trkpt>
      <trkpt lat="43.58097" lon="2.96482">
        <ele>295</ele>
        <time>2014-02-20T12:33:32.510Z</time>
      </trkpt>
      <trkpt lat="43.58103" lon="2.96476">
        <ele>297.4</ele>
        <time>2014-02-20T12:33:35.509Z</time>
      </trkpt>
      <trkpt lat="43.58106" lon="2.96474">
        <ele>296.2</ele>
        <time>2014-02-20T12:33:36.547Z</time>
      </trkpt>
      <trkpt lat="43.58115" lon="2.9647">
        <ele>297.2</ele>
        <time>2014-02-20T12:33:39.506Z</time>
      </trkpt>
      <trkpt lat="43.58117" lon="2.96469">
        <ele>297.6</ele>
        <time>2014-02-20T12:33:40.509Z</time>
      </trkpt>
      <trkpt lat="43.58123" lon="2.96462">
        <ele>299.3</ele>
        <time>2014-02-20T12:33:43.506Z</time>
      </trkpt>
      <trkpt lat="43.58124" lon="2.9646">
        <ele>300.2</ele>
        <time>2014-02-20T12:33:44.502Z</time>
      </trkpt>
      <trkpt lat="43.5813" lon="2.96462">
        <ele>307.9</ele>
        <time>2014-02-20T12:33:54.499Z</time>
      </trkpt>
      <trkpt lat="43.58133" lon="2.96458">
        <ele>309.9</ele>
        <time>2014-02-20T12:33:55.502Z</time>
      </trkpt>
      <trkpt lat="43.58137" lon="2.96452">
        <ele>310.1</ele>
        <time>2014-02-20T12:33:56.502Z</time>
      </trkpt>
      <trkpt lat="43.58143" lon="2.96442">
        <ele>309.4</ele>
        <time>2014-02-20T12:33:57.500Z</time>
      </trkpt>
      <trkpt lat="43.58146" lon="2.96436">
        <ele>310</ele>
        <time>2014-02-20T12:33:58.501Z</time>
      </trkpt>
      <trkpt lat="43.5815" lon="2.96432">
        <ele>310.3</ele>
        <time>2014-02-20T12:33:59.537Z</time>
      </trkpt>
      <trkpt lat="43.58156" lon="2.96423">
        <ele>312.6</ele>
        <time>2014-02-20T12:34:03.499Z</time>
      </trkpt>
      <trkpt lat="43.58158" lon="2.96423">
        <ele>312.8</ele>
        <time>2014-02-20T12:34:04.506Z</time>
      </trkpt>
      <trkpt lat="43.58167" lon="2.96423">
        <ele>320.2</ele>
        <time>2014-02-20T12:34:11.514Z</time>
      </trkpt>
      <trkpt lat="43.58168" lon="2.96422">
        <ele>320.7</ele>
        <time>2014-02-20T12:34:12.499Z</time>
      </trkpt>
      <trkpt lat="43.58175" lon="2.96417">
        <ele>318.9</ele>
        <time>2014-02-20T12:34:15.498Z</time>
      </trkpt>
      <trkpt lat="43.58177" lon="2.96416">
        <ele>319.2</ele>
        <time>2014-02-20T12:34:16.520Z</time>
      </trkpt>
      <trkpt lat="43.58184" lon="2.96414">
        <ele>320.1</ele>
        <time>2014-02-20T12:34:21.543Z</time>
      </trkpt>
      <trkpt lat="43.58186" lon="2.96413">
        <ele>318.7</ele>
        <time>2014-02-20T12:34:22.500Z</time>
      </trkpt>
      <trkpt lat="43.58194" lon="2.96409">
        <ele>317.8</ele>
        <time>2014-02-20T12:34:25.500Z</time>
      </trkpt>
      <trkpt lat="43.58196" lon="2.96409">
        <ele>317.5</ele>
        <time>2014-02-20T12:34:26.542Z</time>
      </trkpt>
      <trkpt lat="43.58205" lon="2.96405">
        <ele>316.8</ele>
        <time>2014-02-20T12:34:30.501Z</time>
      </trkpt>
      <trkpt lat="43.58207" lon="2.96404">
        <ele>316.7</ele>
        <time>2014-02-20T12:34:31.577Z</time>
      </trkpt>
      <trkpt lat="43.58212" lon="2.96396">
        <ele>316.6</ele>
        <time>2014-02-20T12:34:37.505Z</time>
      </trkpt>
      <trkpt lat="43.58214" lon="2.96396">
        <ele>315.5</ele>
        <time>2014-02-20T12:34:38.524Z</time>
      </trkpt>
      <trkpt lat="43.58221" lon="2.96396">
        <ele>314.7</ele>
        <time>2014-02-20T12:34:42.504Z</time>
      </trkpt>
      <trkpt lat="43.58223" lon="2.96395">
        <ele>315.7</ele>
        <time>2014-02-20T12:34:43.507Z</time>
      </trkpt>
      <trkpt lat="43.58231" lon="2.96394">
        <ele>315.8</ele>
        <time>2014-02-20T12:34:48.506Z</time>
      </trkpt>
      <trkpt lat="43.58233" lon="2.96396">
        <ele>315.5</ele>
        <time>2014-02-20T12:34:49.506Z</time>
      </trkpt>
      <trkpt lat="43.5824" lon="2.96401">
        <ele>314</ele>
        <time>2014-02-20T12:34:53.511Z</time>
      </trkpt>
      <trkpt lat="43.58241" lon="2.96402">
        <ele>314.5</ele>
        <time>2014-02-20T12:34:54.506Z</time>
      </trkpt>
      <trkpt lat="43.58247" lon="2.96405">
        <ele>312.7</ele>
        <time>2014-02-20T12:34:59.514Z</time>
      </trkpt>
      <trkpt lat="43.5825" lon="2.96406">
        <ele>312.6</ele>
        <time>2014-02-20T12:35:00.501Z</time>
      </trkpt>
      <trkpt lat="43.58256" lon="2.96409">
        <ele>311.5</ele>
        <time>2014-02-20T12:35:02.500Z</time>
      </trkpt>
      <trkpt lat="43.58259" lon="2.96411">
        <ele>311</ele>
        <time>2014-02-20T12:35:03.497Z</time>
      </trkpt>
      <trkpt lat="43.58267" lon="2.96415">
        <ele>309</ele>
        <time>2014-02-20T12:35:06.506Z</time>
      </trkpt>
      <trkpt lat="43.58269" lon="2.96415">
        <ele>310.3</ele>
        <time>2014-02-20T12:35:07.499Z</time>
      </trkpt>
      <trkpt lat="43.58276" lon="2.96415">
        <ele>310.2</ele>
        <time>2014-02-20T12:35:17.502Z</time>
      </trkpt>
      <trkpt lat="43.58279" lon="2.96414">
        <ele>310.9</ele>
        <time>2014-02-20T12:35:18.501Z</time>
      </trkpt>
      <trkpt lat="43.58288" lon="2.96414">
        <ele>306.1</ele>
        <time>2014-02-20T12:35:20.501Z</time>
      </trkpt>
      <trkpt lat="43.58293" lon="2.96417">
        <ele>307.1</ele>
        <time>2014-02-20T12:35:21.544Z</time>
      </trkpt>
      <trkpt lat="43.58301" lon="2.96419">
        <ele>308</ele>
        <time>2014-02-20T12:35:24.501Z</time>
      </trkpt>
      <trkpt lat="43.58303" lon="2.96419">
        <ele>309.1</ele>
        <time>2014-02-20T12:35:25.499Z</time>
      </trkpt>
      <trkpt lat="43.58303" lon="2.9643">
        <ele>311</ele>
        <time>2014-02-20T12:35:33.508Z</time>
      </trkpt>
      <trkpt lat="43.58303" lon="2.96432">
        <ele>311.2</ele>
        <time>2014-02-20T12:35:34.510Z</time>
      </trkpt>
      <trkpt lat="43.58303" lon="2.96444">
        <ele>311.5</ele>
        <time>2014-02-20T12:35:40.506Z</time>
      </trkpt>
      <trkpt lat="43.58302" lon="2.96446">
        <ele>312</ele>
        <time>2014-02-20T12:35:41.551Z</time>
      </trkpt>
      <trkpt lat="43.58293" lon="2.96444">
        <ele>312.3</ele>
        <time>2014-02-20T12:35:52.498Z</time>
      </trkpt>
      <trkpt lat="43.58294" lon="2.96444">
        <ele>312</ele>
        <time>2014-02-20T12:35:53.501Z</time>
      </trkpt>
      <trkpt lat="43.58294" lon="2.96445">
        <ele>311.7</ele>
        <time>2014-02-20T12:35:57.498Z</time>
      </trkpt>
      <trkpt lat="43.58294" lon="2.96445">
        <ele>311.2</ele>
        <time>2014-02-20T12:35:58.501Z</time>
      </trkpt>
      <trkpt lat="43.58295" lon="2.96445">
        <ele>311</ele>
        <time>2014-02-20T12:35:59.507Z</time>
      </trkpt>
      <trkpt lat="43.58295" lon="2.96446">
        <ele>311</ele>
        <time>2014-02-20T12:36:00.815Z</time>
      </trkpt>
      <trkpt lat="43.58295" lon="2.96446">
        <ele>310.5</ele>
        <time>2014-02-20T12:36:14.506Z</time>
      </trkpt>
      <trkpt lat="43.58295" lon="2.96446">
        <ele>310.6</ele>
        <time>2014-02-20T12:36:15.503Z</time>
      </trkpt>
      <trkpt lat="43.58303" lon="2.96441">
        <ele>308.4</ele>
        <time>2014-02-20T12:36:32.506Z</time>
      </trkpt>
      <trkpt lat="43.58303" lon="2.9644">
        <ele>308.7</ele>
        <time>2014-02-20T12:36:33.505Z</time>
      </trkpt>
      <trkpt lat="43.5831" lon="2.96438">
        <ele>308.9</ele>
        <time>2014-02-20T12:36:44.512Z</time>
      </trkpt>
      <trkpt lat="43.5831" lon="2.96438">
        <ele>309</ele>
        <time>2014-02-20T12:36:45.500Z</time>
      </trkpt>
      <trkpt lat="43.5831" lon="2.96438">
        <ele>309.1</ele>
        <time>2014-02-20T12:36:49.500Z</time>
      </trkpt>
      <trkpt lat="43.58309" lon="2.96438">
        <ele>308.9</ele>
        <time>2014-02-20T12:36:50.500Z</time>
      </trkpt>
      <trkpt lat="43.58308" lon="2.96437">
        <ele>309</ele>
        <time>2014-02-20T12:36:54.499Z</time>
      </trkpt>
      <trkpt lat="43.58308" lon="2.96437">
        <ele>308.9</ele>
        <time>2014-02-20T12:36:56.027Z</time>
      </trkpt>
      <trkpt lat="43.58308" lon="2.96437">
        <ele>308.5</ele>
        <time>2014-02-20T12:37:31.608Z</time>
      </trkpt>
      <trkpt lat="43.58307" lon="2.96437">
        <ele>308.3</ele>
        <time>2014-02-20T12:37:32.503Z</time>
      </trkpt>
      <trkpt lat="43.58304" lon="2.96427">
        <ele>311.6</ele>
        <time>2014-02-20T12:37:38.502Z</time>
      </trkpt>
      <trkpt lat="43.58303" lon="2.96423">
        <ele>312.1</ele>
        <time>2014-02-20T12:37:39.498Z</time>
      </trkpt>
      <trkpt lat="43.58301" lon="2.96411">
        <ele>312.8</ele>
        <time>2014-02-20T12:37:43.501Z</time>
      </trkpt>
      <trkpt lat="43.58301" lon="2.96408">
        <ele>313.5</ele>
        <time>2014-02-20T12:37:44.506Z</time>
      </trkpt>
      <trkpt lat="43.58304" lon="2.96399">
        <ele>313.9</ele>
        <time>2014-02-20T12:37:47.497Z</time>
      </trkpt>
      <trkpt lat="43.58304" lon="2.96395">
        <ele>314.2</ele>
        <time>2014-02-20T12:37:48.494Z</time>
      </trkpt>
      <trkpt lat="43.58305" lon="2.96385">
        <ele>318.4</ele>
        <time>2014-02-20T12:37:50.535Z</time>
      </trkpt>
      <trkpt lat="43.58305" lon="2.96379">
        <ele>319.7</ele>
        <time>2014-02-20T12:37:51.492Z</time>
      </trkpt>
      <trkpt lat="43.58305" lon="2.96367">
        <ele>320.5</ele>
        <time>2014-02-20T12:37:53.535Z</time>
      </trkpt>
      <trkpt lat="43.58305" lon="2.9636">
        <ele>321.9</ele>
        <time>2014-02-20T12:37:54.505Z</time>
      </trkpt>
      <trkpt lat="43.58307" lon="2.96352">
        <ele>320.4</ele>
        <time>2014-02-20T12:37:55.507Z</time>
      </trkpt>
      <trkpt lat="43.58308" lon="2.96346">
        <ele>320.1</ele>
        <time>2014-02-20T12:37:56.508Z</time>
      </trkpt>
      <trkpt lat="43.5831" lon="2.96339">
        <ele>319.6</ele>
        <time>2014-02-20T12:37:57.505Z</time>
      </trkpt>
      <trkpt lat="43.58312" lon="2.96334">
        <ele>319.5</ele>
        <time>2014-02-20T12:37:58.507Z</time>
      </trkpt>
      <trkpt lat="43.58316" lon="2.96325">
        <ele>318.6</ele>
        <time>2014-02-20T12:38:00.501Z</time>
      </trkpt>
      <trkpt lat="43.58318" lon="2.96322">
        <ele>318.3</ele>
        <time>2014-02-20T12:38:01.504Z</time>
      </trkpt>
      <trkpt lat="43.58325" lon="2.96315">
        <ele>317.9</ele>
        <time>2014-02-20T12:38:04.499Z</time>
      </trkpt>
      <trkpt lat="43.58328" lon="2.96316">
        <ele>317.5</ele>
        <time>2014-02-20T12:38:05.493Z</time>
      </trkpt>
      <trkpt lat="43.58334" lon="2.96315">
        <ele>316.9</ele>
        <time>2014-02-20T12:38:07.493Z</time>
      </trkpt>
      <trkpt lat="43.58337" lon="2.96313">
        <ele>316.8</ele>
        <time>2014-02-20T12:38:08.493Z</time>
      </trkpt>
      <trkpt lat="43.58344" lon="2.96304">
        <ele>319.5</ele>
        <time>2014-02-20T12:38:12.494Z</time>
      </trkpt>
      <trkpt lat="43.58345" lon="2.96303">
        <ele>319.7</ele>
        <time>2014-02-20T12:38:13.496Z</time>
      </trkpt>
      <trkpt lat="43.58346" lon="2.96295">
        <ele>321.5</ele>
        <time>2014-02-20T12:38:15.496Z</time>
      </trkpt>
      <trkpt lat="43.58347" lon="2.9629">
        <ele>321.4</ele>
        <time>2014-02-20T12:38:16.524Z</time>
      </trkpt>
      <trkpt lat="43.5835" lon="2.96278">
        <ele>322.9</ele>
        <time>2014-02-20T12:38:19.499Z</time>
      </trkpt>
      <trkpt lat="43.58351" lon="2.96275">
        <ele>323.1</ele>
        <time>2014-02-20T12:38:20.498Z</time>
      </trkpt>
      <trkpt lat="43.58357" lon="2.96269">
        <ele>322.7</ele>
        <time>2014-02-20T12:38:22.497Z</time>
      </trkpt>
      <trkpt lat="43.5836" lon="2.96266">
        <ele>322.7</ele>
        <time>2014-02-20T12:38:23.501Z</time>
      </trkpt>
      <trkpt lat="43.58363" lon="2.96255">
        <ele>322.5</ele>
        <time>2014-02-20T12:38:27.504Z</time>
      </trkpt>
      <trkpt lat="43.58363" lon="2.96253">
        <ele>322.3</ele>
        <time>2014-02-20T12:38:28.502Z</time>
      </trkpt>
      <trkpt lat="43.58369" lon="2.96244">
        <ele>322.3</ele>
        <time>2014-02-20T12:38:33.498Z</time>
      </trkpt>
      <trkpt lat="43.5837" lon="2.96241">
        <ele>322.5</ele>
        <time>2014-02-20T12:38:34.504Z</time>
      </trkpt>
      <trkpt lat="43.58376" lon="2.96233">
        <ele>321.7</ele>
        <time>2014-02-20T12:38:39.500Z</time>
      </trkpt>
      <trkpt lat="43.58377" lon="2.96232">
        <ele>321.6</ele>
        <time>2014-02-20T12:38:40.503Z</time>
      </trkpt>
      <trkpt lat="43.58379" lon="2.9622">
        <ele>322.6</ele>
        <time>2014-02-20T12:38:43.497Z</time>
      </trkpt>
      <trkpt lat="43.58379" lon="2.96215">
        <ele>323.1</ele>
        <time>2014-02-20T12:38:44.500Z</time>
      </trkpt>
      <trkpt lat="43.58383" lon="2.96206">
        <ele>322.8</ele>
        <time>2014-02-20T12:38:51.497Z</time>
      </trkpt>
      <trkpt lat="43.58384" lon="2.96204">
        <ele>322.1</ele>
        <time>2014-02-20T12:38:52.498Z</time>
      </trkpt>
      <trkpt lat="43.58382" lon="2.96196">
        <ele>323.5</ele>
        <time>2014-02-20T12:38:55.498Z</time>
      </trkpt>
      <trkpt lat="43.58381" lon="2.96192">
        <ele>324.3</ele>
        <time>2014-02-20T12:38:56.498Z</time>
      </trkpt>
      <trkpt lat="43.5838" lon="2.9618">
        <ele>325.9</ele>
        <time>2014-02-20T12:38:59.499Z</time>
      </trkpt>
      <trkpt lat="43.58379" lon="2.96177">
        <ele>326.4</ele>
        <time>2014-02-20T12:39:00.496Z</time>
      </trkpt>
      <trkpt lat="43.58381" lon="2.96165">
        <ele>326.3</ele>
        <time>2014-02-20T12:39:04.498Z</time>
      </trkpt>
      <trkpt lat="43.58381" lon="2.96162">
        <ele>327.6</ele>
        <time>2014-02-20T12:39:05.500Z</time>
      </trkpt>
      <trkpt lat="43.58383" lon="2.96152">
        <ele>328.5</ele>
        <time>2014-02-20T12:39:09.496Z</time>
      </trkpt>
      <trkpt lat="43.58384" lon="2.96149">
        <ele>328.8</ele>
        <time>2014-02-20T12:39:10.498Z</time>
      </trkpt>
      <trkpt lat="43.58387" lon="2.96138">
        <ele>332.2</ele>
        <time>2014-02-20T12:39:15.495Z</time>
      </trkpt>
      <trkpt lat="43.58387" lon="2.96136">
        <ele>332.6</ele>
        <time>2014-02-20T12:39:16.660Z</time>
      </trkpt>
      <trkpt lat="43.58385" lon="2.96125">
        <ele>334.3</ele>
        <time>2014-02-20T12:39:20.498Z</time>
      </trkpt>
      <trkpt lat="43.58385" lon="2.96122">
        <ele>335.6</ele>
        <time>2014-02-20T12:39:21.534Z</time>
      </trkpt>
      <trkpt lat="43.58385" lon="2.96111">
        <ele>335.2</ele>
        <time>2014-02-20T12:39:25.499Z</time>
      </trkpt>
      <trkpt lat="43.58385" lon="2.96107">
        <ele>335.6</ele>
        <time>2014-02-20T12:39:26.541Z</time>
      </trkpt>
      <trkpt lat="43.58384" lon="2.96098">
        <ele>335.7</ele>
        <time>2014-02-20T12:39:29.498Z</time>
      </trkpt>
      <trkpt lat="43.58384" lon="2.96094">
        <ele>335.7</ele>
        <time>2014-02-20T12:39:30.498Z</time>
      </trkpt>
      <trkpt lat="43.58383" lon="2.96082">
        <ele>336.5</ele>
        <time>2014-02-20T12:39:33.495Z</time>
      </trkpt>
      <trkpt lat="43.58383" lon="2.96079">
        <ele>336.6</ele>
        <time>2014-02-20T12:39:34.497Z</time>
      </trkpt>
      <trkpt lat="43.58384" lon="2.96067">
        <ele>338.1</ele>
        <time>2014-02-20T12:39:40.502Z</time>
      </trkpt>
      <trkpt lat="43.58384" lon="2.96066">
        <ele>337.9</ele>
        <time>2014-02-20T12:39:41.565Z</time>
      </trkpt>
      <trkpt lat="43.58385" lon="2.96054">
        <ele>338.3</ele>
        <time>2014-02-20T12:39:46.497Z</time>
      </trkpt>
      <trkpt lat="43.58385" lon="2.96052">
        <ele>339</ele>
        <time>2014-02-20T12:39:47.504Z</time>
      </trkpt>
      <trkpt lat="43.58385" lon="2.9604">
        <ele>338.1</ele>
        <time>2014-02-20T12:39:51.497Z</time>
      </trkpt>
      <trkpt lat="43.58384" lon="2.96038">
        <ele>338.6</ele>
        <time>2014-02-20T12:39:52.499Z</time>
      </trkpt>
      <trkpt lat="43.58382" lon="2.96028">
        <ele>337.6</ele>
        <time>2014-02-20T12:39:56.501Z</time>
      </trkpt>
      <trkpt lat="43.58382" lon="2.96025">
        <ele>337.6</ele>
        <time>2014-02-20T12:39:57.497Z</time>
      </trkpt>
      <trkpt lat="43.58386" lon="2.96018">
        <ele>337</ele>
        <time>2014-02-20T12:40:02.498Z</time>
      </trkpt>
      <trkpt lat="43.58388" lon="2.96016">
        <ele>337</ele>
        <time>2014-02-20T12:40:03.496Z</time>
      </trkpt>
      <trkpt lat="43.58394" lon="2.96007">
        <ele>336.8</ele>
        <time>2014-02-20T12:40:06.691Z</time>
      </trkpt>
      <trkpt lat="43.58395" lon="2.96004">
        <ele>336.6</ele>
        <time>2014-02-20T12:40:07.499Z</time>
      </trkpt>
      <trkpt lat="43.58401" lon="2.95996">
        <ele>336.5</ele>
        <time>2014-02-20T12:40:10.499Z</time>
      </trkpt>
      <trkpt lat="43.58404" lon="2.95992">
        <ele>336.9</ele>
        <time>2014-02-20T12:40:11.523Z</time>
      </trkpt>
      <trkpt lat="43.58411" lon="2.95987">
        <ele>338.2</ele>
        <time>2014-02-20T12:40:13.497Z</time>
      </trkpt>
      <trkpt lat="43.58413" lon="2.95984">
        <ele>339.3</ele>
        <time>2014-02-20T12:40:14.497Z</time>
      </trkpt>
      <trkpt lat="43.58418" lon="2.95978">
        <ele>337.6</ele>
        <time>2014-02-20T12:40:17.531Z</time>
      </trkpt>
      <trkpt lat="43.5842" lon="2.95976">
        <ele>337.2</ele>
        <time>2014-02-20T12:40:18.496Z</time>
      </trkpt>
      <trkpt lat="43.58426" lon="2.95971">
        <ele>337.8</ele>
        <time>2014-02-20T12:40:21.537Z</time>
      </trkpt>
      <trkpt lat="43.58428" lon="2.9597">
        <ele>336.2</ele>
        <time>2014-02-20T12:40:22.500Z</time>
      </trkpt>
      <trkpt lat="43.58435" lon="2.95965">
        <ele>335.1</ele>
        <time>2014-02-20T12:40:25.496Z</time>
      </trkpt>
      <trkpt lat="43.58438" lon="2.95964">
        <ele>335</ele>
        <time>2014-02-20T12:40:26.542Z</time>
      </trkpt>
      <trkpt lat="43.58443" lon="2.95973">
        <ele>346.1</ele>
        <time>2014-02-20T12:40:34.500Z</time>
      </trkpt>
      <trkpt lat="43.58443" lon="2.95973">
        <ele>346.2</ele>
        <time>2014-02-20T12:40:35.498Z</time>
      </trkpt>
      <trkpt lat="43.58443" lon="2.95973">
        <ele>346.5</ele>
        <time>2014-02-20T12:40:36.538Z</time>
      </trkpt>
      <trkpt lat="43.58443" lon="2.95973">
        <ele>346.5</ele>
        <time>2014-02-20T12:40:38.159Z</time>
      </trkpt>
      <trkpt lat="43.58443" lon="2.95973">
        <ele>346.5</ele>
        <time>2014-02-20T12:41:14.500Z</time>
      </trkpt>
      <trkpt lat="43.58444" lon="2.95973">
        <ele>346.4</ele>
        <time>2014-02-20T12:41:15.548Z</time>
      </trkpt>
      <trkpt lat="43.58448" lon="2.95967">
        <ele>346.4</ele>
        <time>2014-02-20T12:41:17.502Z</time>
      </trkpt>
      <trkpt lat="43.58453" lon="2.95963">
        <ele>346</ele>
        <time>2014-02-20T12:41:18.497Z</time>
      </trkpt>
      <trkpt lat="43.58458" lon="2.95959">
        <ele>345.4</ele>
        <time>2014-02-20T12:41:19.497Z</time>
      </trkpt>
      <trkpt lat="43.58464" lon="2.95955">
        <ele>345.7</ele>
        <time>2014-02-20T12:41:23.302Z</time>
      </trkpt>
      <trkpt lat="43.58471" lon="2.95951">
        <ele>346.1</ele>
        <time>2014-02-20T12:41:24.500Z</time>
      </trkpt>
      <trkpt lat="43.58475" lon="2.95949">
        <ele>345.4</ele>
        <time>2014-02-20T12:41:25.501Z</time>
      </trkpt>
      <trkpt lat="43.5848" lon="2.95948">
        <ele>345.4</ele>
        <time>2014-02-20T12:41:26.529Z</time>
      </trkpt>
      <trkpt lat="43.58485" lon="2.95946">
        <ele>344.4</ele>
        <time>2014-02-20T12:41:27.501Z</time>
      </trkpt>
      <trkpt lat="43.58491" lon="2.9594">
        <ele>345.2</ele>
        <time>2014-02-20T12:41:29.499Z</time>
      </trkpt>
      <trkpt lat="43.58494" lon="2.95937">
        <ele>344.9</ele>
        <time>2014-02-20T12:41:30.496Z</time>
      </trkpt>
      <trkpt lat="43.58502" lon="2.95936">
        <ele>344.3</ele>
        <time>2014-02-20T12:41:33.495Z</time>
      </trkpt>
      <trkpt lat="43.58505" lon="2.95936">
        <ele>344.2</ele>
        <time>2014-02-20T12:41:34.501Z</time>
      </trkpt>
      <trkpt lat="43.5851" lon="2.95935">
        <ele>344.1</ele>
        <time>2014-02-20T12:41:37.499Z</time>
      </trkpt>
      <trkpt lat="43.58514" lon="2.95935">
        <ele>343.9</ele>
        <time>2014-02-20T12:41:38.497Z</time>
      </trkpt>
      <trkpt lat="43.58519" lon="2.95933">
        <ele>343.7</ele>
        <time>2014-02-20T12:41:39.500Z</time>
      </trkpt>
      <trkpt lat="43.58523" lon="2.95932">
        <ele>343.4</ele>
        <time>2014-02-20T12:41:40.501Z</time>
      </trkpt>
      <trkpt lat="43.58532" lon="2.95928">
        <ele>343.1</ele>
        <time>2014-02-20T12:41:42.498Z</time>
      </trkpt>
      <trkpt lat="43.58535" lon="2.95927">
        <ele>343.4</ele>
        <time>2014-02-20T12:41:43.498Z</time>
      </trkpt>
      <trkpt lat="43.58543" lon="2.95928">
        <ele>342.2</ele>
        <time>2014-02-20T12:41:46.499Z</time>
      </trkpt>
      <trkpt lat="43.58546" lon="2.95928">
        <ele>342.1</ele>
        <time>2014-02-20T12:41:47.505Z</time>
      </trkpt>
      <trkpt lat="43.58553" lon="2.95925">
        <ele>341.6</ele>
        <time>2014-02-20T12:41:50.500Z</time>
      </trkpt>
      <trkpt lat="43.58555" lon="2.95925">
        <ele>342.1</ele>
        <time>2014-02-20T12:41:51.499Z</time>
      </trkpt>
      <trkpt lat="43.58559" lon="2.95917">
        <ele>343.2</ele>
        <time>2014-02-20T12:41:59.497Z</time>
      </trkpt>
      <trkpt lat="43.58558" lon="2.95912">
        <ele>344</ele>
        <time>2014-02-20T12:42:00.502Z</time>
      </trkpt>
      <trkpt lat="43.58558" lon="2.95902">
        <ele>345.2</ele>
        <time>2014-02-20T12:42:02.505Z</time>
      </trkpt>
      <trkpt lat="43.58559" lon="2.95898">
        <ele>345.5</ele>
        <time>2014-02-20T12:42:03.502Z</time>
      </trkpt>
      <trkpt lat="43.58564" lon="2.95892">
        <ele>345.2</ele>
        <time>2014-02-20T12:42:06.524Z</time>
      </trkpt>
      <trkpt lat="43.58567" lon="2.95892">
        <ele>345.2</ele>
        <time>2014-02-20T12:42:07.504Z</time>
      </trkpt>
      <trkpt lat="43.58574" lon="2.95889">
        <ele>345.2</ele>
        <time>2014-02-20T12:42:10.506Z</time>
      </trkpt>
      <trkpt lat="43.58576" lon="2.95888">
        <ele>345.3</ele>
        <time>2014-02-20T12:42:11.550Z</time>
      </trkpt>
      <trkpt lat="43.58577" lon="2.95877">
        <ele>342.4</ele>
        <time>2014-02-20T12:42:25.503Z</time>
      </trkpt>
      <trkpt lat="43.5858" lon="2.95875">
        <ele>343.2</ele>
        <time>2014-02-20T12:42:26.547Z</time>
      </trkpt>
      <trkpt lat="43.58586" lon="2.95867">
        <ele>343.3</ele>
        <time>2014-02-20T12:42:33.500Z</time>
      </trkpt>
      <trkpt lat="43.58586" lon="2.95867">
        <ele>343.3</ele>
        <time>2014-02-20T12:42:34.493Z</time>
      </trkpt>
      <trkpt lat="43.58588" lon="2.9587">
        <ele>339.3</ele>
        <time>2014-02-20T12:42:40.497Z</time>
      </trkpt>
      <trkpt lat="43.58588" lon="2.9587">
        <ele>339.3</ele>
        <time>2014-02-20T12:42:41.501Z</time>
      </trkpt>
      <trkpt lat="43.58588" lon="2.9587">
        <ele>339.6</ele>
        <time>2014-02-20T12:42:42.497Z</time>
      </trkpt>
      <trkpt lat="43.58594" lon="2.95866">
        <ele>337.6</ele>
        <time>2014-02-20T12:42:44.502Z</time>
      </trkpt>
      <trkpt lat="43.58597" lon="2.95864">
        <ele>337.9</ele>
        <time>2014-02-20T12:42:45.497Z</time>
      </trkpt>
      <trkpt lat="43.58601" lon="2.95859">
        <ele>338.5</ele>
        <time>2014-02-20T12:42:46.500Z</time>
      </trkpt>
      <trkpt lat="43.58605" lon="2.95854">
        <ele>338.6</ele>
        <time>2014-02-20T12:42:47.499Z</time>
      </trkpt>
      <trkpt lat="43.5861" lon="2.95845">
        <ele>340.2</ele>
        <time>2014-02-20T12:42:49.500Z</time>
      </trkpt>
      <trkpt lat="43.58614" lon="2.95838">
        <ele>340.6</ele>
        <time>2014-02-20T12:42:50.497Z</time>
      </trkpt>
      <trkpt lat="43.58618" lon="2.95831">
        <ele>340.9</ele>
        <time>2014-02-20T12:42:51.496Z</time>
      </trkpt>
      <trkpt lat="43.5862" lon="2.95824">
        <ele>341.2</ele>
        <time>2014-02-20T12:42:52.497Z</time>
      </trkpt>
      <trkpt lat="43.58627" lon="2.95816">
        <ele>341.9</ele>
        <time>2014-02-20T12:42:55.501Z</time>
      </trkpt>
      <trkpt lat="43.58628" lon="2.95814">
        <ele>342.2</ele>
        <time>2014-02-20T12:42:56.530Z</time>
      </trkpt>
      <trkpt lat="43.58633" lon="2.95806">
        <ele>343.2</ele>
        <time>2014-02-20T12:43:00.499Z</time>
      </trkpt>
      <trkpt lat="43.58635" lon="2.95805">
        <ele>343.2</ele>
        <time>2014-02-20T12:43:01.499Z</time>
      </trkpt>
      <trkpt lat="43.5864" lon="2.95801">
        <ele>343.1</ele>
        <time>2014-02-20T12:43:03.498Z</time>
      </trkpt>
      <trkpt lat="43.58642" lon="2.95796">
        <ele>343.2</ele>
        <time>2014-02-20T12:43:04.497Z</time>
      </trkpt>
      <trkpt lat="43.58647" lon="2.95788">
        <ele>343.8</ele>
        <time>2014-02-20T12:43:07.497Z</time>
      </trkpt>
      <trkpt lat="43.58648" lon="2.95786">
        <ele>344.3</ele>
        <time>2014-02-20T12:43:08.499Z</time>
      </trkpt>
      <trkpt lat="43.58649" lon="2.95792">
        <ele>341.5</ele>
        <time>2014-02-20T12:43:16.531Z</time>
      </trkpt>
      <trkpt lat="43.58649" lon="2.95792">
        <ele>341.6</ele>
        <time>2014-02-20T12:43:20.795Z</time>
      </trkpt>
      <trkpt lat="43.58648" lon="2.95791">
        <ele>341.6</ele>
        <time>2014-02-20T12:43:21.547Z</time>
      </trkpt>
      <trkpt lat="43.58648" lon="2.95788">
        <ele>342.7</ele>
        <time>2014-02-20T12:43:29.516Z</time>
      </trkpt>
      <trkpt lat="43.58648" lon="2.95787">
        <ele>342.7</ele>
        <time>2014-02-20T12:43:30.504Z</time>
      </trkpt>
      <trkpt lat="43.58647" lon="2.95786">
        <ele>343.8</ele>
        <time>2014-02-20T12:43:38.506Z</time>
      </trkpt>
      <trkpt lat="43.58647" lon="2.95785">
        <ele>343.9</ele>
        <time>2014-02-20T12:43:39.499Z</time>
      </trkpt>
      <trkpt lat="43.58647" lon="2.95775">
        <ele>345.3</ele>
        <time>2014-02-20T12:43:42.500Z</time>
      </trkpt>
      <trkpt lat="43.58648" lon="2.95768">
        <ele>346</ele>
        <time>2014-02-20T12:43:43.501Z</time>
      </trkpt>
      <trkpt lat="43.58651" lon="2.95761">
        <ele>345.6</ele>
        <time>2014-02-20T12:43:44.535Z</time>
      </trkpt>
      <trkpt lat="43.58653" lon="2.95755">
        <ele>345.8</ele>
        <time>2014-02-20T12:43:45.497Z</time>
      </trkpt>
      <trkpt lat="43.58659" lon="2.95746">
        <ele>346.8</ele>
        <time>2014-02-20T12:43:47.497Z</time>
      </trkpt>
      <trkpt lat="43.58663" lon="2.95742">
        <ele>349.9</ele>
        <time>2014-02-20T12:43:48.496Z</time>
      </trkpt>
      <trkpt lat="43.58669" lon="2.95735">
        <ele>351.3</ele>
        <time>2014-02-20T12:43:50.498Z</time>
      </trkpt>
      <trkpt lat="43.58672" lon="2.95732">
        <ele>351.4</ele>
        <time>2014-02-20T12:43:51.495Z</time>
      </trkpt>
      <trkpt lat="43.58679" lon="2.95726">
        <ele>356.9</ele>
        <time>2014-02-20T12:43:53.496Z</time>
      </trkpt>
      <trkpt lat="43.58682" lon="2.95722">
        <ele>357.4</ele>
        <time>2014-02-20T12:43:54.496Z</time>
      </trkpt>
      <trkpt lat="43.58689" lon="2.95717">
        <ele>357.2</ele>
        <time>2014-02-20T12:43:57.499Z</time>
      </trkpt>
      <trkpt lat="43.58691" lon="2.95715">
        <ele>357.7</ele>
        <time>2014-02-20T12:43:58.498Z</time>
      </trkpt>
      <trkpt lat="43.58698" lon="2.95712">
        <ele>358.5</ele>
        <time>2014-02-20T12:44:02.499Z</time>
      </trkpt>
      <trkpt lat="43.58701" lon="2.95711">
        <ele>358.2</ele>
        <time>2014-02-20T12:44:03.494Z</time>
      </trkpt>
      <trkpt lat="43.58707" lon="2.9571">
        <ele>357.8</ele>
        <time>2014-02-20T12:44:07.496Z</time>
      </trkpt>
      <trkpt lat="43.58733" lon="2.95715">
        <ele>360.2</ele>
        <time>2014-02-20T12:44:20.504Z</time>
      </trkpt>
      <trkpt lat="43.58739" lon="2.95715">
        <ele>359.5</ele>
        <time>2014-02-20T12:44:22.508Z</time>
      </trkpt>
      <trkpt lat="43.58742" lon="2.95715">
        <ele>360.3</ele>
        <time>2014-02-20T12:44:23.503Z</time>
      </trkpt>
      <trkpt lat="43.58748" lon="2.95715">
        <ele>358.7</ele>
        <time>2014-02-20T12:44:25.507Z</time>
      </trkpt>
      <trkpt lat="43.58751" lon="2.95714">
        <ele>358.4</ele>
        <time>2014-02-20T12:44:26.504Z</time>
      </trkpt>
      <trkpt lat="43.58759" lon="2.9571">
        <ele>357.7</ele>
        <time>2014-02-20T12:44:28.508Z</time>
      </trkpt>
      <trkpt lat="43.58764" lon="2.95708">
        <ele>357.3</ele>
        <time>2014-02-20T12:44:29.513Z</time>
      </trkpt>
      <trkpt lat="43.58769" lon="2.95706">
        <ele>356.8</ele>
        <time>2014-02-20T12:44:30.506Z</time>
      </trkpt>
      <trkpt lat="43.58775" lon="2.95703">
        <ele>357</ele>
        <time>2014-02-20T12:44:31.625Z</time>
      </trkpt>
      <trkpt lat="43.58782" lon="2.95697">
        <ele>357.3</ele>
        <time>2014-02-20T12:44:33.506Z</time>
      </trkpt>
      <trkpt lat="43.58785" lon="2.95694">
        <ele>357.3</ele>
        <time>2014-02-20T12:44:34.509Z</time>
      </trkpt>
      <trkpt lat="43.58792" lon="2.95693">
        <ele>357.5</ele>
        <time>2014-02-20T12:44:37.510Z</time>
      </trkpt>
      <trkpt lat="43.58794" lon="2.95693">
        <ele>357.7</ele>
        <time>2014-02-20T12:44:38.513Z</time>
      </trkpt>
      <trkpt lat="43.58803" lon="2.9569">
        <ele>357.7</ele>
        <time>2014-02-20T12:44:42.503Z</time>
      </trkpt>
      <trkpt lat="43.58804" lon="2.95688">
        <ele>357.7</ele>
        <time>2014-02-20T12:44:43.507Z</time>
      </trkpt>
      <trkpt lat="43.58811" lon="2.95682">
        <ele>358.6</ele>
        <time>2014-02-20T12:44:51.506Z</time>
      </trkpt>
      <trkpt lat="43.58812" lon="2.95682">
        <ele>358.5</ele>
        <time>2014-02-20T12:44:52.507Z</time>
      </trkpt>
      <trkpt lat="43.58819" lon="2.95688">
        <ele>358.2</ele>
        <time>2014-02-20T12:44:59.503Z</time>
      </trkpt>
      <trkpt lat="43.58819" lon="2.9569">
        <ele>357.5</ele>
        <time>2014-02-20T12:45:00.502Z</time>
      </trkpt>
      <trkpt lat="43.58825" lon="2.95693">
        <ele>356.4</ele>
        <time>2014-02-20T12:45:05.504Z</time>
      </trkpt>
      <trkpt lat="43.58829" lon="2.95694">
        <ele>358.8</ele>
        <time>2014-02-20T12:45:06.541Z</time>
      </trkpt>
      <trkpt lat="43.58835" lon="2.95697">
        <ele>360.6</ele>
        <time>2014-02-20T12:45:08.512Z</time>
      </trkpt>
      <trkpt lat="43.58838" lon="2.95698">
        <ele>360.7</ele>
        <time>2014-02-20T12:45:09.502Z</time>
      </trkpt>
      <trkpt lat="43.58846" lon="2.95696">
        <ele>363.1</ele>
        <time>2014-02-20T12:45:15.508Z</time>
      </trkpt>
      <trkpt lat="43.58848" lon="2.95695">
        <ele>364.1</ele>
        <time>2014-02-20T12:45:16.618Z</time>
      </trkpt>
      <trkpt lat="43.58856" lon="2.95691">
        <ele>364</ele>
        <time>2014-02-20T12:45:20.504Z</time>
      </trkpt>
      <trkpt lat="43.58857" lon="2.9569">
        <ele>364</ele>
        <time>2014-02-20T12:45:21.548Z</time>
      </trkpt>
      <trkpt lat="43.58866" lon="2.9569">
        <ele>367</ele>
        <time>2014-02-20T12:45:25.506Z</time>
      </trkpt>
      <trkpt lat="43.5887" lon="2.95689">
        <ele>367.2</ele>
        <time>2014-02-20T12:45:26.554Z</time>
      </trkpt>
      <trkpt lat="43.58879" lon="2.95686">
        <ele>369</ele>
        <time>2014-02-20T12:45:30.504Z</time>
      </trkpt>
      <trkpt lat="43.5888" lon="2.95683">
        <ele>369</ele>
        <time>2014-02-20T12:45:31.560Z</time>
      </trkpt>
      <trkpt lat="43.58884" lon="2.95672">
        <ele>369.3</ele>
        <time>2014-02-20T12:45:34.506Z</time>
      </trkpt>
      <trkpt lat="43.58885" lon="2.95667">
        <ele>369.3</ele>
        <time>2014-02-20T12:45:35.504Z</time>
      </trkpt>
      <trkpt lat="43.58887" lon="2.95658">
        <ele>369.6</ele>
        <time>2014-02-20T12:45:37.564Z</time>
      </trkpt>
      <trkpt lat="43.58888" lon="2.95654">
        <ele>369.5</ele>
        <time>2014-02-20T12:45:38.505Z</time>
      </trkpt>
      <trkpt lat="43.58893" lon="2.95645">
        <ele>369.6</ele>
        <time>2014-02-20T12:45:42.507Z</time>
      </trkpt>
      <trkpt lat="43.58893" lon="2.95643">
        <ele>369.6</ele>
        <time>2014-02-20T12:45:43.510Z</time>
      </trkpt>
      <trkpt lat="43.58895" lon="2.95632">
        <ele>373.4</ele>
        <time>2014-02-20T12:45:57.506Z</time>
      </trkpt>
      <trkpt lat="43.58892" lon="2.95629">
        <ele>375.3</ele>
        <time>2014-02-20T12:45:58.620Z</time>
      </trkpt>
      <trkpt lat="43.58885" lon="2.95627">
        <ele>375.5</ele>
        <time>2014-02-20T12:46:00.500Z</time>
      </trkpt>
      <trkpt lat="43.58881" lon="2.95626">
        <ele>377.1</ele>
        <time>2014-02-20T12:46:01.501Z</time>
      </trkpt>
      <trkpt lat="43.58877" lon="2.95625">
        <ele>380.2</ele>
        <time>2014-02-20T12:46:02.504Z</time>
      </trkpt>
      <trkpt lat="43.58872" lon="2.95624">
        <ele>381.3</ele>
        <time>2014-02-20T12:46:03.502Z</time>
      </trkpt>
      <trkpt lat="43.58866" lon="2.95621">
        <ele>381.2</ele>
        <time>2014-02-20T12:46:05.520Z</time>
      </trkpt>
      <trkpt lat="43.58863" lon="2.95619">
        <ele>382.4</ele>
        <time>2014-02-20T12:46:06.539Z</time>
      </trkpt>
      <trkpt lat="43.58858" lon="2.95609">
        <ele>382.9</ele>
        <time>2014-02-20T12:46:09.502Z</time>
      </trkpt>
      <trkpt lat="43.58856" lon="2.95608">
        <ele>384.8</ele>
        <time>2014-02-20T12:46:10.505Z</time>
      </trkpt>
      <trkpt lat="43.58848" lon="2.95603">
        <ele>385.6</ele>
        <time>2014-02-20T12:46:13.515Z</time>
      </trkpt>
      <trkpt lat="43.58846" lon="2.95601">
        <ele>386.7</ele>
        <time>2014-02-20T12:46:14.505Z</time>
      </trkpt>
      <trkpt lat="43.58847" lon="2.9559">
        <ele>385.7</ele>
        <time>2014-02-20T12:46:17.544Z</time>
      </trkpt>
      <trkpt lat="43.58849" lon="2.95586">
        <ele>386.5</ele>
        <time>2014-02-20T12:46:18.503Z</time>
      </trkpt>
      <trkpt lat="43.58853" lon="2.95579">
        <ele>392.3</ele>
        <time>2014-02-20T12:46:28.502Z</time>
      </trkpt>
      <trkpt lat="43.58854" lon="2.95579">
        <ele>392.1</ele>
        <time>2014-02-20T12:46:29.501Z</time>
      </trkpt>
      <trkpt lat="43.58854" lon="2.95579">
        <ele>392.9</ele>
        <time>2014-02-20T12:46:35.511Z</time>
      </trkpt>
      <trkpt lat="43.58853" lon="2.95578">
        <ele>392.4</ele>
        <time>2014-02-20T12:46:36.504Z</time>
      </trkpt>
      <trkpt lat="43.58851" lon="2.95574">
        <ele>397.8</ele>
        <time>2014-02-20T12:46:44.497Z</time>
      </trkpt>
      <trkpt lat="43.58851" lon="2.95574">
        <ele>397.3</ele>
        <time>2014-02-20T12:46:45.496Z</time>
      </trkpt>
      <trkpt lat="43.58851" lon="2.95574">
        <ele>396.7</ele>
        <time>2014-02-20T12:46:47.500Z</time>
      </trkpt>
      <trkpt lat="43.58852" lon="2.95573">
        <ele>396.9</ele>
        <time>2014-02-20T12:46:48.496Z</time>
      </trkpt>
      <trkpt lat="43.58852" lon="2.95573">
        <ele>396.6</ele>
        <time>2014-02-20T12:46:50.497Z</time>
      </trkpt>
      <trkpt lat="43.58852" lon="2.95573">
        <ele>396.7</ele>
        <time>2014-02-20T12:46:51.497Z</time>
      </trkpt>
      <trkpt lat="43.58852" lon="2.95573">
        <ele>397</ele>
        <time>2014-02-20T12:47:55.495Z</time>
      </trkpt>
      <trkpt lat="43.58851" lon="2.95573">
        <ele>397.7</ele>
        <time>2014-02-20T12:47:56.500Z</time>
      </trkpt>
      <trkpt lat="43.58851" lon="2.95572">
        <ele>400.2</ele>
        <time>2014-02-20T12:47:58.840Z</time>
      </trkpt>
      <trkpt lat="43.58849" lon="2.95575">
        <ele>402.3</ele>
        <time>2014-02-20T12:48:00.021Z</time>
      </trkpt>
      <trkpt lat="43.58842" lon="2.95578">
        <ele>405.5</ele>
        <time>2014-02-20T12:48:04.502Z</time>
      </trkpt>
      <trkpt lat="43.58843" lon="2.95577">
        <ele>404.9</ele>
        <time>2014-02-20T12:48:07.254Z</time>
      </trkpt>
      <trkpt lat="43.58848" lon="2.95581">
        <ele>403.9</ele>
        <time>2014-02-20T12:48:08.546Z</time>
      </trkpt>
      <trkpt lat="43.58854" lon="2.95584">
        <ele>403.6</ele>
        <time>2014-02-20T12:48:10.076Z</time>
      </trkpt>
      <trkpt lat="43.58859" lon="2.95589">
        <ele>403</ele>
        <time>2014-02-20T12:48:11.621Z</time>
      </trkpt>
      <trkpt lat="43.58863" lon="2.95595">
        <ele>402.5</ele>
        <time>2014-02-20T12:48:13.268Z</time>
      </trkpt>
      <trkpt lat="43.58869" lon="2.95602">
        <ele>401.6</ele>
        <time>2014-02-20T12:48:14.883Z</time>
      </trkpt>
      <trkpt lat="43.5888" lon="2.95613">
        <ele>400.6</ele>
        <time>2014-02-20T12:48:16.958Z</time>
      </trkpt>
      <trkpt lat="43.58884" lon="2.95618">
        <ele>400.2</ele>
        <time>2014-02-20T12:48:17.707Z</time>
      </trkpt>
      <trkpt lat="43.58889" lon="2.95625">
        <ele>399.8</ele>
        <time>2014-02-20T12:48:18.599Z</time>
      </trkpt>
      <trkpt lat="43.58895" lon="2.9563">
        <ele>399.6</ele>
        <time>2014-02-20T12:48:19.535Z</time>
      </trkpt>
      <trkpt lat="43.58899" lon="2.95636">
        <ele>399.1</ele>
        <time>2014-02-20T12:48:20.508Z</time>
      </trkpt>
      <trkpt lat="43.58903" lon="2.95641">
        <ele>398.9</ele>
        <time>2014-02-20T12:48:21.516Z</time>
      </trkpt>
      <trkpt lat="43.58907" lon="2.95645">
        <ele>398.8</ele>
        <time>2014-02-20T12:48:23.095Z</time>
      </trkpt>
      <trkpt lat="43.58902" lon="2.95635">
        <ele>397</ele>
        <time>2014-02-20T12:48:26.929Z</time>
      </trkpt>
      <trkpt lat="43.58899" lon="2.9563">
        <ele>396.7</ele>
        <time>2014-02-20T12:48:27.538Z</time>
      </trkpt>
      <trkpt lat="43.58894" lon="2.95622">
        <ele>396.7</ele>
        <time>2014-02-20T12:48:28.524Z</time>
      </trkpt>
      <trkpt lat="43.5889" lon="2.95613">
        <ele>397.5</ele>
        <time>2014-02-20T12:48:29.519Z</time>
      </trkpt>
      <trkpt lat="43.58885" lon="2.95603">
        <ele>397.7</ele>
        <time>2014-02-20T12:48:30.524Z</time>
      </trkpt>
      <trkpt lat="43.58881" lon="2.95594">
        <ele>398.3</ele>
        <time>2014-02-20T12:48:31.622Z</time>
      </trkpt>
      <trkpt lat="43.58879" lon="2.95587">
        <ele>398.6</ele>
        <time>2014-02-20T12:48:32.538Z</time>
      </trkpt>
      <trkpt lat="43.58877" lon="2.95581">
        <ele>399.2</ele>
        <time>2014-02-20T12:48:33.601Z</time>
      </trkpt>
      <trkpt lat="43.58874" lon="2.9557">
        <ele>400</ele>
        <time>2014-02-20T12:48:35.526Z</time>
      </trkpt>
      <trkpt lat="43.58873" lon="2.95565">
        <ele>400.1</ele>
        <time>2014-02-20T12:48:36.579Z</time>
      </trkpt>
      <trkpt lat="43.58873" lon="2.95555">
        <ele>400.6</ele>
        <time>2014-02-20T12:48:38.629Z</time>
      </trkpt>
      <trkpt lat="43.58873" lon="2.95551">
        <ele>400.5</ele>
        <time>2014-02-20T12:48:39.586Z</time>
      </trkpt>
      <trkpt lat="43.58875" lon="2.95542">
        <ele>400.5</ele>
        <time>2014-02-20T12:48:41.526Z</time>
      </trkpt>
      <trkpt lat="43.58877" lon="2.95538">
        <ele>400.3</ele>
        <time>2014-02-20T12:48:42.568Z</time>
      </trkpt>
      <trkpt lat="43.58881" lon="2.95528">
        <ele>400.5</ele>
        <time>2014-02-20T12:48:45.110Z</time>
      </trkpt>
      <trkpt lat="43.58882" lon="2.95527">
        <ele>400.7</ele>
        <time>2014-02-20T12:48:45.516Z</time>
      </trkpt>
      <trkpt lat="43.58881" lon="2.9553">
        <ele>401.7</ele>
        <time>2014-02-20T12:48:47.511Z</time>
      </trkpt>
      <trkpt lat="43.58872" lon="2.95547">
        <ele>401.2</ele>
        <time>2014-02-20T12:48:48.609Z</time>
      </trkpt>
      <trkpt lat="43.58865" lon="2.95562">
        <ele>401</ele>
        <time>2014-02-20T12:48:49.524Z</time>
      </trkpt>
      <trkpt lat="43.58861" lon="2.9557">
        <ele>400.1</ele>
        <time>2014-02-20T12:48:50.566Z</time>
      </trkpt>
      <trkpt lat="43.5886" lon="2.95574">
        <ele>400</ele>
        <time>2014-02-20T12:48:51.527Z</time>
      </trkpt>
      <trkpt lat="43.58854" lon="2.95567">
        <ele>402.2</ele>
        <time>2014-02-20T12:49:08.512Z</time>
      </trkpt>
      <trkpt lat="43.58854" lon="2.95567">
        <ele>399.8</ele>
        <time>2014-02-20T12:49:09.506Z</time>
      </trkpt>
      <trkpt lat="43.58855" lon="2.95567">
        <ele>399.9</ele>
        <time>2014-02-20T12:49:11.538Z</time>
      </trkpt>
      <trkpt lat="43.58854" lon="2.95568">
        <ele>400.4</ele>
        <time>2014-02-20T12:49:12.512Z</time>
      </trkpt>
      <trkpt lat="43.58858" lon="2.95575">
        <ele>402.2</ele>
        <time>2014-02-20T12:49:21.675Z</time>
      </trkpt>
      <trkpt lat="43.58857" lon="2.95574">
        <ele>402.7</ele>
        <time>2014-02-20T12:49:22.505Z</time>
      </trkpt>
      <trkpt lat="43.58856" lon="2.95574">
        <ele>402.9</ele>
        <time>2014-02-20T12:49:23.506Z</time>
      </trkpt>
      <trkpt lat="43.58853" lon="2.9557">
        <ele>402.4</ele>
        <time>2014-02-20T12:49:33.506Z</time>
      </trkpt>
      <trkpt lat="43.58854" lon="2.9557">
        <ele>402.3</ele>
        <time>2014-02-20T12:49:34.510Z</time>
      </trkpt>
      <trkpt lat="43.58852" lon="2.95569">
        <ele>404.4</ele>
        <time>2014-02-20T12:49:59.499Z</time>
      </trkpt>
      <trkpt lat="43.58852" lon="2.95569">
        <ele>404.9</ele>
        <time>2014-02-20T12:50:00.499Z</time>
      </trkpt>
      <trkpt lat="43.58845" lon="2.9557">
        <ele>406.9</ele>
        <time>2014-02-20T12:50:03.496Z</time>
      </trkpt>
      <trkpt lat="43.58842" lon="2.95567">
        <ele>407.8</ele>
        <time>2014-02-20T12:50:04.500Z</time>
      </trkpt>
      <trkpt lat="43.58838" lon="2.95562">
        <ele>408.6</ele>
        <time>2014-02-20T12:50:05.500Z</time>
      </trkpt>
      <trkpt lat="43.58834" lon="2.95556">
        <ele>409.9</ele>
        <time>2014-02-20T12:50:06.523Z</time>
      </trkpt>
      <trkpt lat="43.58829" lon="2.95551">
        <ele>410.3</ele>
        <time>2014-02-20T12:50:07.497Z</time>
      </trkpt>
      <trkpt lat="43.58826" lon="2.95544">
        <ele>411.4</ele>
        <time>2014-02-20T12:50:08.497Z</time>
      </trkpt>
      <trkpt lat="43.58822" lon="2.95538">
        <ele>411.4</ele>
        <time>2014-02-20T12:50:09.495Z</time>
      </trkpt>
      <trkpt lat="43.58818" lon="2.95533">
        <ele>411.7</ele>
        <time>2014-02-20T12:50:10.498Z</time>
      </trkpt>
      <trkpt lat="43.58814" lon="2.95529">
        <ele>411</ele>
        <time>2014-02-20T12:50:11.531Z</time>
      </trkpt>
      <trkpt lat="43.58811" lon="2.95525">
        <ele>410.8</ele>
        <time>2014-02-20T12:50:12.528Z</time>
      </trkpt>
      <trkpt lat="43.58808" lon="2.95514">
        <ele>411.7</ele>
        <time>2014-02-20T12:50:14.497Z</time>
      </trkpt>
      <trkpt lat="43.58808" lon="2.95509">
        <ele>412.7</ele>
        <time>2014-02-20T12:50:15.494Z</time>
      </trkpt>
      <trkpt lat="43.58808" lon="2.95497">
        <ele>413.8</ele>
        <time>2014-02-20T12:50:19.499Z</time>
      </trkpt>
      <trkpt lat="43.58808" lon="2.95495">
        <ele>414</ele>
        <time>2014-02-20T12:50:20.499Z</time>
      </trkpt>
      <trkpt lat="43.58802" lon="2.9549">
        <ele>414</ele>
        <time>2014-02-20T12:50:25.501Z</time>
      </trkpt>
      <trkpt lat="43.58799" lon="2.95489">
        <ele>414.5</ele>
        <time>2014-02-20T12:50:26.654Z</time>
      </trkpt>
      <trkpt lat="43.58793" lon="2.95482">
        <ele>414</ele>
        <time>2014-02-20T12:50:31.498Z</time>
      </trkpt>
      <trkpt lat="43.58791" lon="2.95478">
        <ele>414.2</ele>
        <time>2014-02-20T12:50:32.502Z</time>
      </trkpt>
      <trkpt lat="43.58788" lon="2.9547">
        <ele>414.3</ele>
        <time>2014-02-20T12:50:34.501Z</time>
      </trkpt>
      <trkpt lat="43.58786" lon="2.95466">
        <ele>414.7</ele>
        <time>2014-02-20T12:50:35.499Z</time>
      </trkpt>
      <trkpt lat="43.58781" lon="2.95461">
        <ele>412.9</ele>
        <time>2014-02-20T12:50:37.499Z</time>
      </trkpt>
      <trkpt lat="43.58779" lon="2.9546">
        <ele>412.6</ele>
        <time>2014-02-20T12:50:38.499Z</time>
      </trkpt>
      <trkpt lat="43.58774" lon="2.95449">
        <ele>413.1</ele>
        <time>2014-02-20T12:50:42.497Z</time>
      </trkpt>
      <trkpt lat="43.58774" lon="2.95446">
        <ele>412.7</ele>
        <time>2014-02-20T12:50:43.503Z</time>
      </trkpt>
      <trkpt lat="43.58775" lon="2.95434">
        <ele>410.8</ele>
        <time>2014-02-20T12:50:46.497Z</time>
      </trkpt>
      <trkpt lat="43.58775" lon="2.9543">
        <ele>411</ele>
        <time>2014-02-20T12:50:47.502Z</time>
      </trkpt>
      <trkpt lat="43.58776" lon="2.95418">
        <ele>409.5</ele>
        <time>2014-02-20T12:50:50.620Z</time>
      </trkpt>
      <trkpt lat="43.58775" lon="2.95415">
        <ele>411.5</ele>
        <time>2014-02-20T12:50:51.493Z</time>
      </trkpt>
      <trkpt lat="43.58775" lon="2.95403">
        <ele>412.9</ele>
        <time>2014-02-20T12:50:55.496Z</time>
      </trkpt>
      <trkpt lat="43.58776" lon="2.95398">
        <ele>412.7</ele>
        <time>2014-02-20T12:50:56.496Z</time>
      </trkpt>
      <trkpt lat="43.58778" lon="2.95388">
        <ele>412.5</ele>
        <time>2014-02-20T12:50:58.497Z</time>
      </trkpt>
      <trkpt lat="43.58779" lon="2.95385">
        <ele>412.5</ele>
        <time>2014-02-20T12:50:59.501Z</time>
      </trkpt>
      <trkpt lat="43.5878" lon="2.95373">
        <ele>413.3</ele>
        <time>2014-02-20T12:51:06.527Z</time>
      </trkpt>
      <trkpt lat="43.58779" lon="2.95372">
        <ele>413.3</ele>
        <time>2014-02-20T12:51:07.497Z</time>
      </trkpt>
      <trkpt lat="43.5878" lon="2.95359">
        <ele>414.7</ele>
        <time>2014-02-20T12:51:11.552Z</time>
      </trkpt>
      <trkpt lat="43.58781" lon="2.95357">
        <ele>414.8</ele>
        <time>2014-02-20T12:51:12.493Z</time>
      </trkpt>
      <trkpt lat="43.58782" lon="2.95345">
        <ele>417</ele>
        <time>2014-02-20T12:51:16.584Z</time>
      </trkpt>
      <trkpt lat="43.58782" lon="2.95342">
        <ele>416.8</ele>
        <time>2014-02-20T12:51:17.503Z</time>
      </trkpt>
      <trkpt lat="43.58782" lon="2.95332">
        <ele>416.3</ele>
        <time>2014-02-20T12:51:20.496Z</time>
      </trkpt>
      <trkpt lat="43.58782" lon="2.95329">
        <ele>416</ele>
        <time>2014-02-20T12:51:21.498Z</time>
      </trkpt>
      <trkpt lat="43.58782" lon="2.9532">
        <ele>419.1</ele>
        <time>2014-02-20T12:51:24.497Z</time>
      </trkpt>
      <trkpt lat="43.58782" lon="2.95316">
        <ele>418.5</ele>
        <time>2014-02-20T12:51:25.500Z</time>
      </trkpt>
      <trkpt lat="43.58781" lon="2.95305">
        <ele>418.5</ele>
        <time>2014-02-20T12:51:27.497Z</time>
      </trkpt>
      <trkpt lat="43.5878" lon="2.95299">
        <ele>419.4</ele>
        <time>2014-02-20T12:51:28.499Z</time>
      </trkpt>
      <trkpt lat="43.58778" lon="2.9529">
        <ele>420.7</ele>
        <time>2014-02-20T12:51:30.499Z</time>
      </trkpt>
      <trkpt lat="43.58778" lon="2.95287">
        <ele>421.2</ele>
        <time>2014-02-20T12:51:31.500Z</time>
      </trkpt>
      <trkpt lat="43.58778" lon="2.95275">
        <ele>420.7</ele>
        <time>2014-02-20T12:51:45.496Z</time>
      </trkpt>
      <trkpt lat="43.58778" lon="2.95275">
        <ele>420.7</ele>
        <time>2014-02-20T12:51:46.499Z</time>
      </trkpt>
      <trkpt lat="43.58778" lon="2.95275">
        <ele>420.8</ele>
        <time>2014-02-20T12:51:48.493Z</time>
      </trkpt>
      <trkpt lat="43.58779" lon="2.95274">
        <ele>421</ele>
        <time>2014-02-20T12:51:49.499Z</time>
      </trkpt>
      <trkpt lat="43.58783" lon="2.95264">
        <ele>420.2</ele>
        <time>2014-02-20T12:51:51.497Z</time>
      </trkpt>
      <trkpt lat="43.58786" lon="2.95257">
        <ele>420.1</ele>
        <time>2014-02-20T12:51:52.501Z</time>
      </trkpt>
      <trkpt lat="43.58788" lon="2.95248">
        <ele>419.8</ele>
        <time>2014-02-20T12:51:53.504Z</time>
      </trkpt>
      <trkpt lat="43.58789" lon="2.95239">
        <ele>419.5</ele>
        <time>2014-02-20T12:51:54.499Z</time>
      </trkpt>
      <trkpt lat="43.58789" lon="2.95231">
        <ele>419.6</ele>
        <time>2014-02-20T12:51:55.501Z</time>
      </trkpt>
      <trkpt lat="43.5879" lon="2.95224">
        <ele>420.7</ele>
        <time>2014-02-20T12:51:56.501Z</time>
      </trkpt>
      <trkpt lat="43.5879" lon="2.95212">
        <ele>421.3</ele>
        <time>2014-02-20T12:51:58.502Z</time>
      </trkpt>
      <trkpt lat="43.5879" lon="2.95208">
        <ele>420.9</ele>
        <time>2014-02-20T12:51:59.504Z</time>
      </trkpt>
      <trkpt lat="43.58789" lon="2.95197">
        <ele>421</ele>
        <time>2014-02-20T12:52:03.500Z</time>
      </trkpt>
      <trkpt lat="43.58789" lon="2.95194">
        <ele>420.2</ele>
        <time>2014-02-20T12:52:04.502Z</time>
      </trkpt>
      <trkpt lat="43.58789" lon="2.95182">
        <ele>420.6</ele>
        <time>2014-02-20T12:52:08.496Z</time>
      </trkpt>
      <trkpt lat="43.58789" lon="2.95179">
        <ele>420.6</ele>
        <time>2014-02-20T12:52:09.499Z</time>
      </trkpt>
      <trkpt lat="43.58792" lon="2.9517">
        <ele>421.3</ele>
        <time>2014-02-20T12:52:14.503Z</time>
      </trkpt>
      <trkpt lat="43.58794" lon="2.95167">
        <ele>421.3</ele>
        <time>2014-02-20T12:52:15.505Z</time>
      </trkpt>
      <trkpt lat="43.58799" lon="2.9516">
        <ele>420.3</ele>
        <time>2014-02-20T12:52:18.501Z</time>
      </trkpt>
      <trkpt lat="43.58801" lon="2.95157">
        <ele>419.9</ele>
        <time>2014-02-20T12:52:19.500Z</time>
      </trkpt>
      <trkpt lat="43.58806" lon="2.95153">
        <ele>419.1</ele>
        <time>2014-02-20T12:52:22.500Z</time>
      </trkpt>
      <trkpt lat="43.58809" lon="2.95151">
        <ele>418.8</ele>
        <time>2014-02-20T12:52:25.434Z</time>
      </trkpt>
      <trkpt lat="43.58814" lon="2.95152">
        <ele>419.8</ele>
        <time>2014-02-20T12:52:26.501Z</time>
      </trkpt>
      <trkpt lat="43.58818" lon="2.95153">
        <ele>419.7</ele>
        <time>2014-02-20T12:52:27.501Z</time>
      </trkpt>
      <trkpt lat="43.58823" lon="2.95147">
        <ele>419</ele>
        <time>2014-02-20T12:52:29.516Z</time>
      </trkpt>
      <trkpt lat="43.58825" lon="2.95145">
        <ele>419</ele>
        <time>2014-02-20T12:52:30.500Z</time>
      </trkpt>
      <trkpt lat="43.58834" lon="2.95141">
        <ele>418.7</ele>
        <time>2014-02-20T12:52:34.521Z</time>
      </trkpt>
      <trkpt lat="43.58835" lon="2.95139">
        <ele>418.8</ele>
        <time>2014-02-20T12:52:35.515Z</time>
      </trkpt>
      <trkpt lat="43.58842" lon="2.95134">
        <ele>418.6</ele>
        <time>2014-02-20T12:52:40.516Z</time>
      </trkpt>
      <trkpt lat="43.58842" lon="2.95131">
        <ele>418.2</ele>
        <time>2014-02-20T12:52:41.529Z</time>
      </trkpt>
      <trkpt lat="43.58848" lon="2.95128">
        <ele>416.7</ele>
        <time>2014-02-20T12:52:45.500Z</time>
      </trkpt>
      <trkpt lat="43.58852" lon="2.95129">
        <ele>416.8</ele>
        <time>2014-02-20T12:52:46.502Z</time>
      </trkpt>
      <trkpt lat="43.58859" lon="2.9513">
        <ele>415.6</ele>
        <time>2014-02-20T12:52:48.501Z</time>
      </trkpt>
      <trkpt lat="43.58862" lon="2.95131">
        <ele>415.7</ele>
        <time>2014-02-20T12:52:49.505Z</time>
      </trkpt>
      <trkpt lat="43.5887" lon="2.95127">
        <ele>417.1</ele>
        <time>2014-02-20T12:52:57.497Z</time>
      </trkpt>
      <trkpt lat="43.58874" lon="2.95127">
        <ele>416.8</ele>
        <time>2014-02-20T12:52:58.521Z</time>
      </trkpt>
      <trkpt lat="43.58881" lon="2.95127">
        <ele>416.7</ele>
        <time>2014-02-20T12:53:00.499Z</time>
      </trkpt>
      <trkpt lat="43.58884" lon="2.95125">
        <ele>417.2</ele>
        <time>2014-02-20T12:53:01.502Z</time>
      </trkpt>
      <trkpt lat="43.58891" lon="2.9512">
        <ele>419.1</ele>
        <time>2014-02-20T12:53:04.501Z</time>
      </trkpt>
      <trkpt lat="43.58893" lon="2.95118">
        <ele>418.9</ele>
        <time>2014-02-20T12:53:05.500Z</time>
      </trkpt>
      <trkpt lat="43.58899" lon="2.95109">
        <ele>418.9</ele>
        <time>2014-02-20T12:53:09.493Z</time>
      </trkpt>
      <trkpt lat="43.58901" lon="2.95105">
        <ele>419</ele>
        <time>2014-02-20T12:53:10.500Z</time>
      </trkpt>
      <trkpt lat="43.58907" lon="2.951">
        <ele>418.4</ele>
        <time>2014-02-20T12:53:12.497Z</time>
      </trkpt>
      <trkpt lat="43.5891" lon="2.95099">
        <ele>418.3</ele>
        <time>2014-02-20T12:53:13.500Z</time>
      </trkpt>
      <trkpt lat="43.58917" lon="2.95099">
        <ele>418.2</ele>
        <time>2014-02-20T12:53:15.499Z</time>
      </trkpt>
      <trkpt lat="43.58919" lon="2.95098">
        <ele>418</ele>
        <time>2014-02-20T12:53:16.536Z</time>
      </trkpt>
      <trkpt lat="43.58926" lon="2.951">
        <ele>417.9</ele>
        <time>2014-02-20T12:53:18.499Z</time>
      </trkpt>
      <trkpt lat="43.58928" lon="2.95101">
        <ele>417.7</ele>
        <time>2014-02-20T12:53:19.501Z</time>
      </trkpt>
      <trkpt lat="43.58937" lon="2.95103">
        <ele>416.4</ele>
        <time>2014-02-20T12:53:22.530Z</time>
      </trkpt>
      <trkpt lat="43.5894" lon="2.95101">
        <ele>416.3</ele>
        <time>2014-02-20T12:53:23.531Z</time>
      </trkpt>
      <trkpt lat="43.58948" lon="2.95098">
        <ele>415.2</ele>
        <time>2014-02-20T12:53:26.506Z</time>
      </trkpt>
      <trkpt lat="43.58951" lon="2.95097">
        <ele>415</ele>
        <time>2014-02-20T12:53:27.503Z</time>
      </trkpt>
      <trkpt lat="43.58958" lon="2.95096">
        <ele>415.2</ele>
        <time>2014-02-20T12:53:29.518Z</time>
      </trkpt>
      <trkpt lat="43.5896" lon="2.95095">
        <ele>415.2</ele>
        <time>2014-02-20T12:53:30.502Z</time>
      </trkpt>
      <trkpt lat="43.58967" lon="2.95095">
        <ele>414.2</ele>
        <time>2014-02-20T12:53:32.511Z</time>
      </trkpt>
      <trkpt lat="43.5897" lon="2.95096">
        <ele>414.1</ele>
        <time>2014-02-20T12:53:33.501Z</time>
      </trkpt>
      <trkpt lat="43.58978" lon="2.95097">
        <ele>413</ele>
        <time>2014-02-20T12:53:35.505Z</time>
      </trkpt>
      <trkpt lat="43.58981" lon="2.95097">
        <ele>413.1</ele>
        <time>2014-02-20T12:53:36.500Z</time>
      </trkpt>
      <trkpt lat="43.58987" lon="2.95096">
        <ele>413.2</ele>
        <time>2014-02-20T12:53:38.504Z</time>
      </trkpt>
      <trkpt lat="43.58992" lon="2.95095">
        <ele>413.3</ele>
        <time>2014-02-20T12:53:43.825Z</time>
      </trkpt>
      <trkpt lat="43.59" lon="2.95095">
        <ele>414.9</ele>
        <time>2014-02-20T12:53:44.498Z</time>
      </trkpt>
      <trkpt lat="43.59008" lon="2.95098">
        <ele>415.4</ele>
        <time>2014-02-20T12:53:45.510Z</time>
      </trkpt>
      <trkpt lat="43.59015" lon="2.95103">
        <ele>414.3</ele>
        <time>2014-02-20T12:53:47.527Z</time>
      </trkpt>
      <trkpt lat="43.59018" lon="2.95105">
        <ele>414.6</ele>
        <time>2014-02-20T12:53:48.504Z</time>
      </trkpt>
      <trkpt lat="43.59026" lon="2.95106">
        <ele>415.2</ele>
        <time>2014-02-20T12:53:51.503Z</time>
      </trkpt>
      <trkpt lat="43.59031" lon="2.95107">
        <ele>416.9</ele>
        <time>2014-02-20T12:53:52.507Z</time>
      </trkpt>
      <trkpt lat="43.59038" lon="2.95109">
        <ele>417.5</ele>
        <time>2014-02-20T12:53:54.507Z</time>
      </trkpt>
      <trkpt lat="43.59042" lon="2.95112">
        <ele>417.2</ele>
        <time>2014-02-20T12:53:55.501Z</time>
      </trkpt>
      <trkpt lat="43.59048" lon="2.95118">
        <ele>414</ele>
        <time>2014-02-20T12:53:57.506Z</time>
      </trkpt>
      <trkpt lat="43.59051" lon="2.95121">
        <ele>411.8</ele>
        <time>2014-02-20T12:53:58.509Z</time>
      </trkpt>
      <trkpt lat="43.59059" lon="2.95123">
        <ele>409.7</ele>
        <time>2014-02-20T12:54:01.507Z</time>
      </trkpt>
      <trkpt lat="43.59061" lon="2.95123">
        <ele>408.6</ele>
        <time>2014-02-20T12:54:02.504Z</time>
      </trkpt>
      <trkpt lat="43.59068" lon="2.95116">
        <ele>409</ele>
        <time>2014-02-20T12:54:06.533Z</time>
      </trkpt>
      <trkpt lat="43.59069" lon="2.95115">
        <ele>409.1</ele>
        <time>2014-02-20T12:54:07.506Z</time>
      </trkpt>
      <trkpt lat="43.59077" lon="2.95117">
        <ele>408</ele>
        <time>2014-02-20T12:54:13.532Z</time>
      </trkpt>
      <trkpt lat="43.59079" lon="2.95116">
        <ele>407.6</ele>
        <time>2014-02-20T12:54:14.504Z</time>
      </trkpt>
      <trkpt lat="43.59085" lon="2.95114">
        <ele>408.2</ele>
        <time>2014-02-20T12:54:18.501Z</time>
      </trkpt>
      <trkpt lat="43.59088" lon="2.95113">
        <ele>408.9</ele>
        <time>2014-02-20T12:54:19.502Z</time>
      </trkpt>
      <trkpt lat="43.59095" lon="2.95117">
        <ele>409.2</ele>
        <time>2014-02-20T12:54:22.569Z</time>
      </trkpt>
      <trkpt lat="43.59097" lon="2.95116">
        <ele>409.6</ele>
        <time>2014-02-20T12:54:23.499Z</time>
      </trkpt>
      <trkpt lat="43.59102" lon="2.9511">
        <ele>409.6</ele>
        <time>2014-02-20T12:54:26.500Z</time>
      </trkpt>
      <trkpt lat="43.59104" lon="2.95108">
        <ele>409.4</ele>
        <time>2014-02-20T12:54:27.497Z</time>
      </trkpt>
      <trkpt lat="43.59112" lon="2.95104">
        <ele>409.9</ele>
        <time>2014-02-20T12:54:31.500Z</time>
      </trkpt>
      <trkpt lat="43.59113" lon="2.95102">
        <ele>411.2</ele>
        <time>2014-02-20T12:54:32.564Z</time>
      </trkpt>
      <trkpt lat="43.59115" lon="2.95094">
        <ele>414.2</ele>
        <time>2014-02-20T12:54:36.553Z</time>
      </trkpt>
      <trkpt lat="43.59117" lon="2.95089">
        <ele>414.9</ele>
        <time>2014-02-20T12:54:37.505Z</time>
      </trkpt>
      <trkpt lat="43.59123" lon="2.9508">
        <ele>417.6</ele>
        <time>2014-02-20T12:54:39.498Z</time>
      </trkpt>
      <trkpt lat="43.59123" lon="2.95077">
        <ele>419.1</ele>
        <time>2014-02-20T12:54:40.542Z</time>
      </trkpt>
      <trkpt lat="43.59127" lon="2.95067">
        <ele>420.5</ele>
        <time>2014-02-20T12:54:46.506Z</time>
      </trkpt>
      <trkpt lat="43.5913" lon="2.95065">
        <ele>418.5</ele>
        <time>2014-02-20T12:54:47.562Z</time>
      </trkpt>
      <trkpt lat="43.59138" lon="2.95063">
        <ele>415.9</ele>
        <time>2014-02-20T12:54:50.500Z</time>
      </trkpt>
      <trkpt lat="43.59141" lon="2.95062">
        <ele>415.7</ele>
        <time>2014-02-20T12:54:51.504Z</time>
      </trkpt>
      <trkpt lat="43.59145" lon="2.95055">
        <ele>416</ele>
        <time>2014-02-20T12:54:53.514Z</time>
      </trkpt>
      <trkpt lat="43.59147" lon="2.95053">
        <ele>415.8</ele>
        <time>2014-02-20T12:54:54.516Z</time>
      </trkpt>
      <trkpt lat="43.59149" lon="2.95046">
        <ele>417</ele>
        <time>2014-02-20T12:54:56.554Z</time>
      </trkpt>
      <trkpt lat="43.59151" lon="2.9504">
        <ele>416.9</ele>
        <time>2014-02-20T12:54:59.811Z</time>
      </trkpt>
      <trkpt lat="43.59154" lon="2.95036">
        <ele>417</ele>
        <time>2014-02-20T12:55:00.500Z</time>
      </trkpt>
      <trkpt lat="43.59158" lon="2.95029">
        <ele>416.8</ele>
        <time>2014-02-20T12:55:01.513Z</time>
      </trkpt>
      <trkpt lat="43.59162" lon="2.95019">
        <ele>417.5</ele>
        <time>2014-02-20T12:55:03.509Z</time>
      </trkpt>
      <trkpt lat="43.59163" lon="2.95015">
        <ele>417.7</ele>
        <time>2014-02-20T12:55:04.508Z</time>
      </trkpt>
      <trkpt lat="43.59169" lon="2.95006">
        <ele>418.5</ele>
        <time>2014-02-20T12:55:09.502Z</time>
      </trkpt>
      <trkpt lat="43.5917" lon="2.95003">
        <ele>419.3</ele>
        <time>2014-02-20T12:55:10.503Z</time>
      </trkpt>
      <trkpt lat="43.59173" lon="2.94994">
        <ele>419.9</ele>
        <time>2014-02-20T12:55:14.509Z</time>
      </trkpt>
      <trkpt lat="43.59174" lon="2.94992">
        <ele>419.5</ele>
        <time>2014-02-20T12:55:15.521Z</time>
      </trkpt>
      <trkpt lat="43.59179" lon="2.94984">
        <ele>420.6</ele>
        <time>2014-02-20T12:55:20.506Z</time>
      </trkpt>
      <trkpt lat="43.5918" lon="2.94982">
        <ele>421.1</ele>
        <time>2014-02-20T12:55:21.529Z</time>
      </trkpt>
      <trkpt lat="43.59186" lon="2.94977">
        <ele>423.1</ele>
        <time>2014-02-20T12:55:24.505Z</time>
      </trkpt>
      <trkpt lat="43.59187" lon="2.94974">
        <ele>423.6</ele>
        <time>2014-02-20T12:55:25.546Z</time>
      </trkpt>
      <trkpt lat="43.59194" lon="2.94967">
        <ele>424.3</ele>
        <time>2014-02-20T12:55:30.524Z</time>
      </trkpt>
      <trkpt lat="43.59196" lon="2.94966">
        <ele>425.2</ele>
        <time>2014-02-20T12:55:31.572Z</time>
      </trkpt>
      <trkpt lat="43.59203" lon="2.94969">
        <ele>424.3</ele>
        <time>2014-02-20T12:55:34.551Z</time>
      </trkpt>
      <trkpt lat="43.59205" lon="2.94968">
        <ele>424.6</ele>
        <time>2014-02-20T12:55:35.505Z</time>
      </trkpt>
      <trkpt lat="43.59214" lon="2.94965">
        <ele>425.2</ele>
        <time>2014-02-20T12:55:39.506Z</time>
      </trkpt>
      <trkpt lat="43.59216" lon="2.94965">
        <ele>424.6</ele>
        <time>2014-02-20T12:55:40.513Z</time>
      </trkpt>
      <trkpt lat="43.59224" lon="2.94968">
        <ele>426.9</ele>
        <time>2014-02-20T12:55:45.546Z</time>
      </trkpt>
      <trkpt lat="43.59226" lon="2.94968">
        <ele>427.2</ele>
        <time>2014-02-20T12:55:46.510Z</time>
      </trkpt>
      <trkpt lat="43.59234" lon="2.94971">
        <ele>429.8</ele>
        <time>2014-02-20T12:55:51.500Z</time>
      </trkpt>
      <trkpt lat="43.59235" lon="2.94971">
        <ele>429.9</ele>
        <time>2014-02-20T12:55:52.503Z</time>
      </trkpt>
      <trkpt lat="43.59242" lon="2.94972">
        <ele>429.6</ele>
        <time>2014-02-20T12:55:55.504Z</time>
      </trkpt>
      <trkpt lat="43.59245" lon="2.94972">
        <ele>430.2</ele>
        <time>2014-02-20T12:55:56.506Z</time>
      </trkpt>
      <trkpt lat="43.59252" lon="2.94972">
        <ele>429.8</ele>
        <time>2014-02-20T12:56:00.509Z</time>
      </trkpt>
      <trkpt lat="43.59254" lon="2.94972">
        <ele>430.3</ele>
        <time>2014-02-20T12:56:01.522Z</time>
      </trkpt>
      <trkpt lat="43.59262" lon="2.94972">
        <ele>431.8</ele>
        <time>2014-02-20T12:56:06.518Z</time>
      </trkpt>
      <trkpt lat="43.59265" lon="2.94972">
        <ele>431.7</ele>
        <time>2014-02-20T12:56:07.510Z</time>
      </trkpt>
      <trkpt lat="43.5927" lon="2.94973">
        <ele>432.8</ele>
        <time>2014-02-20T12:56:09.501Z</time>
      </trkpt>
      <trkpt lat="43.59274" lon="2.94974">
        <ele>433.4</ele>
        <time>2014-02-20T12:56:10.537Z</time>
      </trkpt>
      <trkpt lat="43.5928" lon="2.94981">
        <ele>435.7</ele>
        <time>2014-02-20T12:56:13.502Z</time>
      </trkpt>
      <trkpt lat="43.59281" lon="2.94982">
        <ele>435.9</ele>
        <time>2014-02-20T12:56:14.509Z</time>
      </trkpt>
      <trkpt lat="43.59286" lon="2.94992">
        <ele>436.4</ele>
        <time>2014-02-20T12:56:18.514Z</time>
      </trkpt>
      <trkpt lat="43.59289" lon="2.94994">
        <ele>438.3</ele>
        <time>2014-02-20T12:56:19.522Z</time>
      </trkpt>
      <trkpt lat="43.59297" lon="2.95">
        <ele>440.1</ele>
        <time>2014-02-20T12:56:22.541Z</time>
      </trkpt>
      <trkpt lat="43.59299" lon="2.95001">
        <ele>439.9</ele>
        <time>2014-02-20T12:56:23.523Z</time>
      </trkpt>
      <trkpt lat="43.59304" lon="2.95008">
        <ele>439.2</ele>
        <time>2014-02-20T12:56:27.503Z</time>
      </trkpt>
      <trkpt lat="43.59306" lon="2.9501">
        <ele>439.1</ele>
        <time>2014-02-20T12:56:28.501Z</time>
      </trkpt>
      <trkpt lat="43.59311" lon="2.95019">
        <ele>442.6</ele>
        <time>2014-02-20T12:56:32.506Z</time>
      </trkpt>
      <trkpt lat="43.59313" lon="2.95021">
        <ele>442.5</ele>
        <time>2014-02-20T12:56:33.509Z</time>
      </trkpt>
      <trkpt lat="43.59318" lon="2.95029">
        <ele>440.6</ele>
        <time>2014-02-20T12:56:37.522Z</time>
      </trkpt>
      <trkpt lat="43.59319" lon="2.95031">
        <ele>440.5</ele>
        <time>2014-02-20T12:56:38.522Z</time>
      </trkpt>
      <trkpt lat="43.59325" lon="2.95038">
        <ele>440.6</ele>
        <time>2014-02-20T12:56:41.502Z</time>
      </trkpt>
      <trkpt lat="43.59328" lon="2.95041">
        <ele>440.4</ele>
        <time>2014-02-20T12:56:42.503Z</time>
      </trkpt>
      <trkpt lat="43.59333" lon="2.95047">
        <ele>440.9</ele>
        <time>2014-02-20T12:56:44.514Z</time>
      </trkpt>
      <trkpt lat="43.59335" lon="2.95049">
        <ele>441</ele>
        <time>2014-02-20T12:56:45.726Z</time>
      </trkpt>
      <trkpt lat="43.59341" lon="2.95059">
        <ele>440.7</ele>
        <time>2014-02-20T12:56:49.531Z</time>
      </trkpt>
      <trkpt lat="43.59342" lon="2.95062">
        <ele>440.3</ele>
        <time>2014-02-20T12:56:50.549Z</time>
      </trkpt>
      <trkpt lat="43.59347" lon="2.9507">
        <ele>442</ele>
        <time>2014-02-20T12:56:56.541Z</time>
      </trkpt>
      <trkpt lat="43.59349" lon="2.95071">
        <ele>443.1</ele>
        <time>2014-02-20T12:56:57.506Z</time>
      </trkpt>
      <trkpt lat="43.59357" lon="2.95074">
        <ele>442.9</ele>
        <time>2014-02-20T12:57:00.591Z</time>
      </trkpt>
      <trkpt lat="43.59359" lon="2.95076">
        <ele>443.2</ele>
        <time>2014-02-20T12:57:01.513Z</time>
      </trkpt>
      <trkpt lat="43.59364" lon="2.95081">
        <ele>443.3</ele>
        <time>2014-02-20T12:57:03.511Z</time>
      </trkpt>
      <trkpt lat="43.59367" lon="2.95085">
        <ele>443.1</ele>
        <time>2014-02-20T12:57:04.509Z</time>
      </trkpt>
      <trkpt lat="43.59373" lon="2.95089">
        <ele>443.7</ele>
        <time>2014-02-20T12:57:07.507Z</time>
      </trkpt>
      <trkpt lat="43.59375" lon="2.95092">
        <ele>443.7</ele>
        <time>2014-02-20T12:57:08.507Z</time>
      </trkpt>
      <trkpt lat="43.59381" lon="2.95096">
        <ele>444.8</ele>
        <time>2014-02-20T12:57:10.507Z</time>
      </trkpt>
      <trkpt lat="43.59384" lon="2.95097">
        <ele>445.4</ele>
        <time>2014-02-20T12:57:11.751Z</time>
      </trkpt>
      <trkpt lat="43.59393" lon="2.95099">
        <ele>444.9</ele>
        <time>2014-02-20T12:57:16.507Z</time>
      </trkpt>
      <trkpt lat="43.59395" lon="2.95101">
        <ele>444.8</ele>
        <time>2014-02-20T12:57:17.509Z</time>
      </trkpt>
      <trkpt lat="43.59403" lon="2.95107">
        <ele>444.2</ele>
        <time>2014-02-20T12:57:20.510Z</time>
      </trkpt>
      <trkpt lat="43.59404" lon="2.95108">
        <ele>444.2</ele>
        <time>2014-02-20T12:57:21.508Z</time>
      </trkpt>
      <trkpt lat="43.59411" lon="2.95111">
        <ele>443</ele>
        <time>2014-02-20T12:57:24.505Z</time>
      </trkpt>
      <trkpt lat="43.59414" lon="2.95111">
        <ele>443</ele>
        <time>2014-02-20T12:57:25.915Z</time>
      </trkpt>
      <trkpt lat="43.59423" lon="2.95109">
        <ele>441.8</ele>
        <time>2014-02-20T12:57:28.509Z</time>
      </trkpt>
      <trkpt lat="43.59426" lon="2.95107">
        <ele>441.6</ele>
        <time>2014-02-20T12:57:29.510Z</time>
      </trkpt>
      <trkpt lat="43.59434" lon="2.95104">
        <ele>441.3</ele>
        <time>2014-02-20T12:57:32.497Z</time>
      </trkpt>
      <trkpt lat="43.59436" lon="2.95103">
        <ele>441.4</ele>
        <time>2014-02-20T12:57:33.508Z</time>
      </trkpt>
      <trkpt lat="43.59441" lon="2.95098">
        <ele>441.5</ele>
        <time>2014-02-20T12:57:36.503Z</time>
      </trkpt>
      <trkpt lat="43.59443" lon="2.95095">
        <ele>442.2</ele>
        <time>2014-02-20T12:57:37.502Z</time>
      </trkpt>
      <trkpt lat="43.59448" lon="2.95087">
        <ele>443.5</ele>
        <time>2014-02-20T12:57:40.500Z</time>
      </trkpt>
      <trkpt lat="43.59452" lon="2.95085">
        <ele>445.4</ele>
        <time>2014-02-20T12:57:41.499Z</time>
      </trkpt>
      <trkpt lat="43.59456" lon="2.95077">
        <ele>448.6</ele>
        <time>2014-02-20T12:57:44.502Z</time>
      </trkpt>
      <trkpt lat="43.59458" lon="2.95075">
        <ele>449.6</ele>
        <time>2014-02-20T12:57:45.702Z</time>
      </trkpt>
      <trkpt lat="43.59463" lon="2.9507">
        <ele>453.4</ele>
        <time>2014-02-20T12:57:48.496Z</time>
      </trkpt>
      <trkpt lat="43.59465" lon="2.95067">
        <ele>453.6</ele>
        <time>2014-02-20T12:57:49.499Z</time>
      </trkpt>
      <trkpt lat="43.59473" lon="2.95064">
        <ele>453.7</ele>
        <time>2014-02-20T12:57:52.500Z</time>
      </trkpt>
      <trkpt lat="43.59477" lon="2.95064">
        <ele>453.8</ele>
        <time>2014-02-20T12:57:53.522Z</time>
      </trkpt>
      <trkpt lat="43.59485" lon="2.95062">
        <ele>454.5</ele>
        <time>2014-02-20T12:57:58.521Z</time>
      </trkpt>
      <trkpt lat="43.59487" lon="2.9506">
        <ele>456.2</ele>
        <time>2014-02-20T12:57:59.496Z</time>
      </trkpt>
      <trkpt lat="43.59491" lon="2.95051">
        <ele>458.4</ele>
        <time>2014-02-20T12:58:05.499Z</time>
      </trkpt>
      <trkpt lat="43.59492" lon="2.9505">
        <ele>459.2</ele>
        <time>2014-02-20T12:58:06.527Z</time>
      </trkpt>
      <trkpt lat="43.595" lon="2.95047">
        <ele>459.4</ele>
        <time>2014-02-20T12:58:11.537Z</time>
      </trkpt>
      <trkpt lat="43.59502" lon="2.95046">
        <ele>459.4</ele>
        <time>2014-02-20T12:58:12.494Z</time>
      </trkpt>
      <trkpt lat="43.59508" lon="2.95042">
        <ele>460.9</ele>
        <time>2014-02-20T12:58:16.544Z</time>
      </trkpt>
      <trkpt lat="43.59511" lon="2.9504">
        <ele>459.5</ele>
        <time>2014-02-20T12:58:17.498Z</time>
      </trkpt>
      <trkpt lat="43.59519" lon="2.95043">
        <ele>455</ele>
        <time>2014-02-20T12:58:21.541Z</time>
      </trkpt>
      <trkpt lat="43.5952" lon="2.95045">
        <ele>455.3</ele>
        <time>2014-02-20T12:58:22.497Z</time>
      </trkpt>
      <trkpt lat="43.59528" lon="2.95046">
        <ele>455.6</ele>
        <time>2014-02-20T12:58:26.540Z</time>
      </trkpt>
      <trkpt lat="43.5953" lon="2.95046">
        <ele>455.4</ele>
        <time>2014-02-20T12:58:27.497Z</time>
      </trkpt>
      <trkpt lat="43.59536" lon="2.9504">
        <ele>455.5</ele>
        <time>2014-02-20T12:58:31.500Z</time>
      </trkpt>
      <trkpt lat="43.59537" lon="2.95039">
        <ele>455.4</ele>
        <time>2014-02-20T12:58:32.498Z</time>
      </trkpt>
      <trkpt lat="43.59544" lon="2.95037">
        <ele>456.1</ele>
        <time>2014-02-20T12:58:37.498Z</time>
      </trkpt>
      <trkpt lat="43.59546" lon="2.95036">
        <ele>455.9</ele>
        <time>2014-02-20T12:58:38.499Z</time>
      </trkpt>
      <trkpt lat="43.59554" lon="2.95031">
        <ele>456</ele>
        <time>2014-02-20T12:58:41.500Z</time>
      </trkpt>
      <trkpt lat="43.59556" lon="2.9503">
        <ele>455.8</ele>
        <time>2014-02-20T12:58:42.499Z</time>
      </trkpt>
      <trkpt lat="43.59564" lon="2.95025">
        <ele>457.2</ele>
        <time>2014-02-20T12:58:49.501Z</time>
      </trkpt>
      <trkpt lat="43.59565" lon="2.95024">
        <ele>457.1</ele>
        <time>2014-02-20T12:58:50.500Z</time>
      </trkpt>
      <trkpt lat="43.59572" lon="2.95019">
        <ele>472.5</ele>
        <time>2014-02-20T12:58:55.496Z</time>
      </trkpt>
      <trkpt lat="43.59574" lon="2.95017">
        <ele>459.8</ele>
        <time>2014-02-20T12:58:57.492Z</time>
      </trkpt>
      <trkpt lat="43.59582" lon="2.95015">
        <ele>459.9</ele>
        <time>2014-02-20T12:59:01.501Z</time>
      </trkpt>
      <trkpt lat="43.59584" lon="2.95015">
        <ele>459.8</ele>
        <time>2014-02-20T12:59:02.524Z</time>
      </trkpt>
      <trkpt lat="43.59593" lon="2.95016">
        <ele>459.6</ele>
        <time>2014-02-20T12:59:08.499Z</time>
      </trkpt>
      <trkpt lat="43.59595" lon="2.95017">
        <ele>459.6</ele>
        <time>2014-02-20T12:59:09.497Z</time>
      </trkpt>
      <trkpt lat="43.59603" lon="2.95021">
        <ele>461</ele>
        <time>2014-02-20T12:59:12.497Z</time>
      </trkpt>
      <trkpt lat="43.59605" lon="2.9502">
        <ele>460.8</ele>
        <time>2014-02-20T12:59:13.498Z</time>
      </trkpt>
      <trkpt lat="43.59611" lon="2.95011">
        <ele>461.2</ele>
        <time>2014-02-20T12:59:19.499Z</time>
      </trkpt>
      <trkpt lat="43.59611" lon="2.95009">
        <ele>461.3</ele>
        <time>2014-02-20T12:59:20.500Z</time>
      </trkpt>
      <trkpt lat="43.59616" lon="2.95">
        <ele>465</ele>
        <time>2014-02-20T12:59:26.511Z</time>
      </trkpt>
      <trkpt lat="43.59618" lon="2.95">
        <ele>465.1</ele>
        <time>2014-02-20T12:59:27.492Z</time>
      </trkpt>
      <trkpt lat="43.59625" lon="2.94999">
        <ele>468.1</ele>
        <time>2014-02-20T12:59:31.496Z</time>
      </trkpt>
      <trkpt lat="43.59627" lon="2.94998">
        <ele>468</ele>
        <time>2014-02-20T12:59:32.499Z</time>
      </trkpt>
      <trkpt lat="43.59634" lon="2.94993">
        <ele>468.7</ele>
        <time>2014-02-20T12:59:39.499Z</time>
      </trkpt>
      <trkpt lat="43.59636" lon="2.94994">
        <ele>468.7</ele>
        <time>2014-02-20T12:59:40.501Z</time>
      </trkpt>
      <trkpt lat="43.59644" lon="2.94991">
        <ele>468.2</ele>
        <time>2014-02-20T12:59:44.500Z</time>
      </trkpt>
      <trkpt lat="43.59645" lon="2.9499">
        <ele>468.3</ele>
        <time>2014-02-20T12:59:45.585Z</time>
      </trkpt>
      <trkpt lat="43.59653" lon="2.9499">
        <ele>469.3</ele>
        <time>2014-02-20T12:59:51.500Z</time>
      </trkpt>
      <trkpt lat="43.59654" lon="2.94992">
        <ele>469</ele>
        <time>2014-02-20T12:59:52.499Z</time>
      </trkpt>
      <trkpt lat="43.59662" lon="2.94997">
        <ele>469.3</ele>
        <time>2014-02-20T12:59:59.500Z</time>
      </trkpt>
      <trkpt lat="43.59664" lon="2.94997">
        <ele>469.3</ele>
        <time>2014-02-20T13:00:00.525Z</time>
      </trkpt>
      <trkpt lat="43.59673" lon="2.94995">
        <ele>470.3</ele>
        <time>2014-02-20T13:00:04.116Z</time>
      </trkpt>
      <trkpt lat="43.59674" lon="2.94995">
        <ele>470.1</ele>
        <time>2014-02-20T13:00:04.502Z</time>
      </trkpt>
      <trkpt lat="43.59681" lon="2.95001">
        <ele>468.9</ele>
        <time>2014-02-20T13:00:09.498Z</time>
      </trkpt>
      <trkpt lat="43.59682" lon="2.95002">
        <ele>469.5</ele>
        <time>2014-02-20T13:00:10.501Z</time>
      </trkpt>
      <trkpt lat="43.59691" lon="2.95006">
        <ele>467.8</ele>
        <time>2014-02-20T13:00:15.497Z</time>
      </trkpt>
      <trkpt lat="43.59693" lon="2.95006">
        <ele>467.9</ele>
        <time>2014-02-20T13:00:16.593Z</time>
      </trkpt>
      <trkpt lat="43.597" lon="2.95008">
        <ele>465.5</ele>
        <time>2014-02-20T13:00:20.498Z</time>
      </trkpt>
      <trkpt lat="43.59702" lon="2.95009">
        <ele>465.9</ele>
        <time>2014-02-20T13:00:21.540Z</time>
      </trkpt>
      <trkpt lat="43.5971" lon="2.95016">
        <ele>467.1</ele>
        <time>2014-02-20T13:00:27.498Z</time>
      </trkpt>
      <trkpt lat="43.59711" lon="2.95018">
        <ele>467.7</ele>
        <time>2014-02-20T13:00:28.532Z</time>
      </trkpt>
      <trkpt lat="43.59717" lon="2.95025">
        <ele>470.6</ele>
        <time>2014-02-20T13:00:35.504Z</time>
      </trkpt>
      <trkpt lat="43.59719" lon="2.95025">
        <ele>470.5</ele>
        <time>2014-02-20T13:00:36.496Z</time>
      </trkpt>
      <trkpt lat="43.59727" lon="2.95031">
        <ele>473.5</ele>
        <time>2014-02-20T13:00:46.501Z</time>
      </trkpt>
      <trkpt lat="43.59728" lon="2.95032">
        <ele>474.2</ele>
        <time>2014-02-20T13:00:47.499Z</time>
      </trkpt>
      <trkpt lat="43.59736" lon="2.95035">
        <ele>473.5</ele>
        <time>2014-02-20T13:00:52.499Z</time>
      </trkpt>
      <trkpt lat="43.59738" lon="2.95037">
        <ele>472.7</ele>
        <time>2014-02-20T13:00:53.498Z</time>
      </trkpt>
      <trkpt lat="43.59742" lon="2.95046">
        <ele>476</ele>
        <time>2014-02-20T13:01:00.497Z</time>
      </trkpt>
      <trkpt lat="43.59742" lon="2.95049">
        <ele>476.7</ele>
        <time>2014-02-20T13:01:01.500Z</time>
      </trkpt>
      <trkpt lat="43.5974" lon="2.95058">
        <ele>479.1</ele>
        <time>2014-02-20T13:01:05.497Z</time>
      </trkpt>
      <trkpt lat="43.59736" lon="2.9506">
        <ele>478.1</ele>
        <time>2014-02-20T13:01:06.532Z</time>
      </trkpt>
      <trkpt lat="43.59732" lon="2.95066">
        <ele>484</ele>
        <time>2014-02-20T13:01:08.499Z</time>
      </trkpt>
      <trkpt lat="43.59728" lon="2.95066">
        <ele>484</ele>
        <time>2014-02-20T13:01:09.496Z</time>
      </trkpt>
      <trkpt lat="43.59721" lon="2.95069">
        <ele>486.5</ele>
        <time>2014-02-20T13:01:13.498Z</time>
      </trkpt>
      <trkpt lat="43.59719" lon="2.9507">
        <ele>487.5</ele>
        <time>2014-02-20T13:01:14.501Z</time>
      </trkpt>
      <trkpt lat="43.59711" lon="2.95075">
        <ele>490.7</ele>
        <time>2014-02-20T13:01:20.498Z</time>
      </trkpt>
      <trkpt lat="43.59711" lon="2.95076">
        <ele>489.7</ele>
        <time>2014-02-20T13:01:21.494Z</time>
      </trkpt>
      <trkpt lat="43.59703" lon="2.95073">
        <ele>489.7</ele>
        <time>2014-02-20T13:01:28.499Z</time>
      </trkpt>
      <trkpt lat="43.59701" lon="2.95074">
        <ele>490.6</ele>
        <time>2014-02-20T13:01:29.496Z</time>
      </trkpt>
      <trkpt lat="43.59693" lon="2.95073">
        <ele>491.6</ele>
        <time>2014-02-20T13:01:35.498Z</time>
      </trkpt>
      <trkpt lat="43.59691" lon="2.95074">
        <ele>492</ele>
        <time>2014-02-20T13:01:36.497Z</time>
      </trkpt>
      <trkpt lat="43.59683" lon="2.95075">
        <ele>493.2</ele>
        <time>2014-02-20T13:01:44.500Z</time>
      </trkpt>
      <trkpt lat="43.59681" lon="2.95073">
        <ele>493.5</ele>
        <time>2014-02-20T13:01:45.497Z</time>
      </trkpt>
      <trkpt lat="43.59674" lon="2.9507">
        <ele>494.6</ele>
        <time>2014-02-20T13:01:50.499Z</time>
      </trkpt>
      <trkpt lat="43.59672" lon="2.95069">
        <ele>494.6</ele>
        <time>2014-02-20T13:01:51.496Z</time>
      </trkpt>
      <trkpt lat="43.59664" lon="2.95065">
        <ele>495</ele>
        <time>2014-02-20T13:01:54.505Z</time>
      </trkpt>
      <trkpt lat="43.59662" lon="2.95063">
        <ele>496.8</ele>
        <time>2014-02-20T13:01:55.501Z</time>
      </trkpt>
      <trkpt lat="43.59654" lon="2.95059">
        <ele>496.4</ele>
        <time>2014-02-20T13:02:01.503Z</time>
      </trkpt>
      <trkpt lat="43.59653" lon="2.9506">
        <ele>496.3</ele>
        <time>2014-02-20T13:02:02.504Z</time>
      </trkpt>
      <trkpt lat="43.5966" lon="2.95063">
        <ele>494.6</ele>
        <time>2014-02-20T13:02:05.498Z</time>
      </trkpt>
      <trkpt lat="43.59662" lon="2.95064">
        <ele>494.7</ele>
        <time>2014-02-20T13:02:06.539Z</time>
      </trkpt>
      <trkpt lat="43.59671" lon="2.95063">
        <ele>495.2</ele>
        <time>2014-02-20T13:02:17.498Z</time>
      </trkpt>
      <trkpt lat="43.59672" lon="2.95064">
        <ele>494.9</ele>
        <time>2014-02-20T13:02:18.495Z</time>
      </trkpt>
      <trkpt lat="43.5968" lon="2.95069">
        <ele>496.2</ele>
        <time>2014-02-20T13:02:26.497Z</time>
      </trkpt>
      <trkpt lat="43.59681" lon="2.9507">
        <ele>495.5</ele>
        <time>2014-02-20T13:02:27.496Z</time>
      </trkpt>
      <trkpt lat="43.59689" lon="2.95076">
        <ele>497.6</ele>
        <time>2014-02-20T13:02:33.496Z</time>
      </trkpt>
      <trkpt lat="43.59691" lon="2.95077">
        <ele>497.9</ele>
        <time>2014-02-20T13:02:34.498Z</time>
      </trkpt>
      <trkpt lat="43.59697" lon="2.95084">
        <ele>498.6</ele>
        <time>2014-02-20T13:02:40.498Z</time>
      </trkpt>
      <trkpt lat="43.59698" lon="2.95085">
        <ele>498.3</ele>
        <time>2014-02-20T13:02:41.500Z</time>
      </trkpt>
      <trkpt lat="43.59702" lon="2.95089">
        <ele>499.3</ele>
        <time>2014-02-20T13:02:47.501Z</time>
      </trkpt>
      <trkpt lat="43.59702" lon="2.95088">
        <ele>499.2</ele>
        <time>2014-02-20T13:02:48.500Z</time>
      </trkpt>
      <trkpt lat="43.59703" lon="2.95089">
        <ele>498.6</ele>
        <time>2014-02-20T13:02:49.499Z</time>
      </trkpt>
      <trkpt lat="43.5971" lon="2.95094">
        <ele>496.5</ele>
        <time>2014-02-20T13:02:55.512Z</time>
      </trkpt>
      <trkpt lat="43.59712" lon="2.95094">
        <ele>497.8</ele>
        <time>2014-02-20T13:02:56.497Z</time>
      </trkpt>
      <trkpt lat="43.59718" lon="2.95098">
        <ele>496.5</ele>
        <time>2014-02-20T13:03:02.497Z</time>
      </trkpt>
      <trkpt lat="43.5972" lon="2.95099">
        <ele>496.2</ele>
        <time>2014-02-20T13:03:03.497Z</time>
      </trkpt>
      <trkpt lat="43.59727" lon="2.95104">
        <ele>496.3</ele>
        <time>2014-02-20T13:03:06.733Z</time>
      </trkpt>
      <trkpt lat="43.59728" lon="2.95106">
        <ele>496.2</ele>
        <time>2014-02-20T13:03:07.499Z</time>
      </trkpt>
      <trkpt lat="43.59735" lon="2.95113">
        <ele>496.4</ele>
        <time>2014-02-20T13:03:12.495Z</time>
      </trkpt>
      <trkpt lat="43.59737" lon="2.95114">
        <ele>496.8</ele>
        <time>2014-02-20T13:03:13.499Z</time>
      </trkpt>
      <trkpt lat="43.59744" lon="2.9512">
        <ele>499.9</ele>
        <time>2014-02-20T13:03:22.493Z</time>
      </trkpt>
      <trkpt lat="43.59746" lon="2.95122">
        <ele>499.4</ele>
        <time>2014-02-20T13:03:23.491Z</time>
      </trkpt>
      <trkpt lat="43.59754" lon="2.95128">
        <ele>500</ele>
        <time>2014-02-20T13:03:28.626Z</time>
      </trkpt>
      <trkpt lat="43.59755" lon="2.95129">
        <ele>499.5</ele>
        <time>2014-02-20T13:03:29.697Z</time>
      </trkpt>
      <trkpt lat="43.5976" lon="2.95138">
        <ele>495.8</ele>
        <time>2014-02-20T13:03:32.507Z</time>
      </trkpt>
      <trkpt lat="43.59761" lon="2.95139">
        <ele>495.9</ele>
        <time>2014-02-20T13:03:33.599Z</time>
      </trkpt>
      <trkpt lat="43.59766" lon="2.95143">
        <ele>497.2</ele>
        <time>2014-02-20T13:03:36.496Z</time>
      </trkpt>
      <trkpt lat="43.5977" lon="2.95145">
        <ele>497</ele>
        <time>2014-02-20T13:03:37.501Z</time>
      </trkpt>
      <trkpt lat="43.59776" lon="2.9515">
        <ele>497.4</ele>
        <time>2014-02-20T13:03:40.502Z</time>
      </trkpt>
      <trkpt lat="43.59778" lon="2.95151">
        <ele>499.4</ele>
        <time>2014-02-20T13:03:41.503Z</time>
      </trkpt>
      <trkpt lat="43.59782" lon="2.95161">
        <ele>497.7</ele>
        <time>2014-02-20T13:03:47.509Z</time>
      </trkpt>
      <trkpt lat="43.59783" lon="2.95164">
        <ele>496.7</ele>
        <time>2014-02-20T13:03:48.500Z</time>
      </trkpt>
      <trkpt lat="43.59789" lon="2.95172">
        <ele>495.5</ele>
        <time>2014-02-20T13:03:55.496Z</time>
      </trkpt>
      <trkpt lat="43.5979" lon="2.95174">
        <ele>495.4</ele>
        <time>2014-02-20T13:03:56.505Z</time>
      </trkpt>
      <trkpt lat="43.59792" lon="2.95184">
        <ele>495.8</ele>
        <time>2014-02-20T13:04:02.499Z</time>
      </trkpt>
      <trkpt lat="43.59793" lon="2.95186">
        <ele>495</ele>
        <time>2014-02-20T13:04:03.496Z</time>
      </trkpt>
      <trkpt lat="43.59798" lon="2.95193">
        <ele>495.9</ele>
        <time>2014-02-20T13:04:05.499Z</time>
      </trkpt>
      <trkpt lat="43.598" lon="2.95196">
        <ele>496.1</ele>
        <time>2014-02-20T13:04:06.536Z</time>
      </trkpt>
      <trkpt lat="43.59807" lon="2.95203">
        <ele>496.7</ele>
        <time>2014-02-20T13:04:13.498Z</time>
      </trkpt>
      <trkpt lat="43.59809" lon="2.95206">
        <ele>495.9</ele>
        <time>2014-02-20T13:04:14.512Z</time>
      </trkpt>
      <trkpt lat="43.59814" lon="2.95216">
        <ele>495.8</ele>
        <time>2014-02-20T13:04:17.500Z</time>
      </trkpt>
      <trkpt lat="43.59815" lon="2.95218">
        <ele>496.2</ele>
        <time>2014-02-20T13:04:18.495Z</time>
      </trkpt>
      <trkpt lat="43.5982" lon="2.95228">
        <ele>494.9</ele>
        <time>2014-02-20T13:04:24.498Z</time>
      </trkpt>
      <trkpt lat="43.59821" lon="2.95232">
        <ele>494</ele>
        <time>2014-02-20T13:04:25.497Z</time>
      </trkpt>
      <trkpt lat="43.59828" lon="2.9524">
        <ele>493.8</ele>
        <time>2014-02-20T13:04:30.496Z</time>
      </trkpt>
      <trkpt lat="43.59829" lon="2.9524">
        <ele>494.2</ele>
        <time>2014-02-20T13:04:31.498Z</time>
      </trkpt>
      <trkpt lat="43.59837" lon="2.95245">
        <ele>495.3</ele>
        <time>2014-02-20T13:04:38.497Z</time>
      </trkpt>
      <trkpt lat="43.59839" lon="2.95246">
        <ele>496</ele>
        <time>2014-02-20T13:04:39.497Z</time>
      </trkpt>
      <trkpt lat="43.59846" lon="2.95252">
        <ele>500.5</ele>
        <time>2014-02-20T13:04:46.499Z</time>
      </trkpt>
      <trkpt lat="43.59846" lon="2.95253">
        <ele>501.3</ele>
        <time>2014-02-20T13:04:47.499Z</time>
      </trkpt>
      <trkpt lat="43.59852" lon="2.95262">
        <ele>502.9</ele>
        <time>2014-02-20T13:04:55.505Z</time>
      </trkpt>
      <trkpt lat="43.59853" lon="2.95264">
        <ele>503.7</ele>
        <time>2014-02-20T13:04:56.503Z</time>
      </trkpt>
      <trkpt lat="43.59857" lon="2.95273">
        <ele>503</ele>
        <time>2014-02-20T13:05:02.506Z</time>
      </trkpt>
      <trkpt lat="43.59858" lon="2.95276">
        <ele>502.6</ele>
        <time>2014-02-20T13:05:03.503Z</time>
      </trkpt>
      <trkpt lat="43.59861" lon="2.95285">
        <ele>502.2</ele>
        <time>2014-02-20T13:05:06.539Z</time>
      </trkpt>
      <trkpt lat="43.59861" lon="2.95288">
        <ele>502.3</ele>
        <time>2014-02-20T13:05:07.502Z</time>
      </trkpt>
      <trkpt lat="43.59859" lon="2.95299">
        <ele>504.3</ele>
        <time>2014-02-20T13:05:13.498Z</time>
      </trkpt>
      <trkpt lat="43.5986" lon="2.95301">
        <ele>504.8</ele>
        <time>2014-02-20T13:05:14.498Z</time>
      </trkpt>
      <trkpt lat="43.59862" lon="2.9531">
        <ele>505.7</ele>
        <time>2014-02-20T13:05:17.504Z</time>
      </trkpt>
      <trkpt lat="43.59863" lon="2.95313">
        <ele>506</ele>
        <time>2014-02-20T13:05:18.502Z</time>
      </trkpt>
      <trkpt lat="43.59867" lon="2.95323">
        <ele>506.5</ele>
        <time>2014-02-20T13:05:23.501Z</time>
      </trkpt>
      <trkpt lat="43.59868" lon="2.95325">
        <ele>507.1</ele>
        <time>2014-02-20T13:05:24.499Z</time>
      </trkpt>
      <trkpt lat="43.59869" lon="2.95335">
        <ele>507</ele>
        <time>2014-02-20T13:05:29.504Z</time>
      </trkpt>
      <trkpt lat="43.59868" lon="2.95338">
        <ele>506.9</ele>
        <time>2014-02-20T13:05:30.501Z</time>
      </trkpt>
      <trkpt lat="43.59869" lon="2.95349">
        <ele>508.7</ele>
        <time>2014-02-20T13:05:34.498Z</time>
      </trkpt>
      <trkpt lat="43.59869" lon="2.95351">
        <ele>508.8</ele>
        <time>2014-02-20T13:05:35.497Z</time>
      </trkpt>
      <trkpt lat="43.59873" lon="2.95361">
        <ele>509.2</ele>
        <time>2014-02-20T13:05:40.499Z</time>
      </trkpt>
      <trkpt lat="43.59874" lon="2.95364">
        <ele>508.6</ele>
        <time>2014-02-20T13:05:41.498Z</time>
      </trkpt>
      <trkpt lat="43.59874" lon="2.95375">
        <ele>508.8</ele>
        <time>2014-02-20T13:05:45.496Z</time>
      </trkpt>
      <trkpt lat="43.59874" lon="2.95377">
        <ele>509.1</ele>
        <time>2014-02-20T13:05:46.497Z</time>
      </trkpt>
      <trkpt lat="43.59877" lon="2.95388">
        <ele>512.7</ele>
        <time>2014-02-20T13:05:51.496Z</time>
      </trkpt>
      <trkpt lat="43.59877" lon="2.9539">
        <ele>513.6</ele>
        <time>2014-02-20T13:05:52.498Z</time>
      </trkpt>
      <trkpt lat="43.59878" lon="2.95401">
        <ele>514.8</ele>
        <time>2014-02-20T13:05:56.497Z</time>
      </trkpt>
      <trkpt lat="43.59879" lon="2.95404">
        <ele>514.5</ele>
        <time>2014-02-20T13:05:57.496Z</time>
      </trkpt>
      <trkpt lat="43.59881" lon="2.95415">
        <ele>517.9</ele>
        <time>2014-02-20T13:06:03.496Z</time>
      </trkpt>
      <trkpt lat="43.59881" lon="2.95418">
        <ele>518.6</ele>
        <time>2014-02-20T13:06:04.503Z</time>
      </trkpt>
      <trkpt lat="43.59884" lon="2.95428">
        <ele>521.6</ele>
        <time>2014-02-20T13:06:08.497Z</time>
      </trkpt>
      <trkpt lat="43.59885" lon="2.9543">
        <ele>522.7</ele>
        <time>2014-02-20T13:06:09.496Z</time>
      </trkpt>
      <trkpt lat="43.59887" lon="2.95442">
        <ele>522.6</ele>
        <time>2014-02-20T13:06:12.496Z</time>
      </trkpt>
      <trkpt lat="43.59888" lon="2.95444">
        <ele>523.1</ele>
        <time>2014-02-20T13:06:13.501Z</time>
      </trkpt>
      <trkpt lat="43.59892" lon="2.95453">
        <ele>524.4</ele>
        <time>2014-02-20T13:06:17.498Z</time>
      </trkpt>
      <trkpt lat="43.59894" lon="2.95456">
        <ele>524.9</ele>
        <time>2014-02-20T13:06:18.496Z</time>
      </trkpt>
      <trkpt lat="43.59896" lon="2.95467">
        <ele>525.9</ele>
        <time>2014-02-20T13:06:22.533Z</time>
      </trkpt>
      <trkpt lat="43.59896" lon="2.9547">
        <ele>526.7</ele>
        <time>2014-02-20T13:06:23.497Z</time>
      </trkpt>
      <trkpt lat="43.59893" lon="2.9548">
        <ele>526.9</ele>
        <time>2014-02-20T13:06:27.498Z</time>
      </trkpt>
      <trkpt lat="43.59894" lon="2.95484">
        <ele>528.8</ele>
        <time>2014-02-20T13:06:28.503Z</time>
      </trkpt>
      <trkpt lat="43.59895" lon="2.95494">
        <ele>528.5</ele>
        <time>2014-02-20T13:06:31.507Z</time>
      </trkpt>
      <trkpt lat="43.59895" lon="2.95496">
        <ele>528.8</ele>
        <time>2014-02-20T13:06:32.503Z</time>
      </trkpt>
      <trkpt lat="43.59894" lon="2.95507">
        <ele>528.7</ele>
        <time>2014-02-20T13:06:37.506Z</time>
      </trkpt>
      <trkpt lat="43.59893" lon="2.95509">
        <ele>528.6</ele>
        <time>2014-02-20T13:06:38.611Z</time>
      </trkpt>
      <trkpt lat="43.59893" lon="2.95519">
        <ele>528.1</ele>
        <time>2014-02-20T13:06:43.503Z</time>
      </trkpt>
      <trkpt lat="43.59895" lon="2.95521">
        <ele>528.3</ele>
        <time>2014-02-20T13:06:44.500Z</time>
      </trkpt>
      <trkpt lat="43.59897" lon="2.95532">
        <ele>530</ele>
        <time>2014-02-20T13:06:49.546Z</time>
      </trkpt>
      <trkpt lat="43.59898" lon="2.95534">
        <ele>530.6</ele>
        <time>2014-02-20T13:06:50.616Z</time>
      </trkpt>
      <trkpt lat="43.599" lon="2.95545">
        <ele>530.6</ele>
        <time>2014-02-20T13:06:55.528Z</time>
      </trkpt>
      <trkpt lat="43.59903" lon="2.95549">
        <ele>532.7</ele>
        <time>2014-02-20T13:06:56.505Z</time>
      </trkpt>
      <trkpt lat="43.59907" lon="2.95555">
        <ele>533</ele>
        <time>2014-02-20T13:06:58.505Z</time>
      </trkpt>
      <trkpt lat="43.59909" lon="2.95557">
        <ele>533.4</ele>
        <time>2014-02-20T13:06:59.506Z</time>
      </trkpt>
      <trkpt lat="43.59916" lon="2.95563">
        <ele>536</ele>
        <time>2014-02-20T13:07:03.500Z</time>
      </trkpt>
      <trkpt lat="43.59918" lon="2.95565">
        <ele>536.8</ele>
        <time>2014-02-20T13:07:04.503Z</time>
      </trkpt>
      <trkpt lat="43.59922" lon="2.95571">
        <ele>538.7</ele>
        <time>2014-02-20T13:07:08.506Z</time>
      </trkpt>
      <trkpt lat="43.59925" lon="2.95574">
        <ele>539.4</ele>
        <time>2014-02-20T13:07:09.497Z</time>
      </trkpt>
      <trkpt lat="43.59932" lon="2.9558">
        <ele>542.3</ele>
        <time>2014-02-20T13:07:12.494Z</time>
      </trkpt>
      <trkpt lat="43.59933" lon="2.95582">
        <ele>543.2</ele>
        <time>2014-02-20T13:07:13.496Z</time>
      </trkpt>
      <trkpt lat="43.5994" lon="2.95589">
        <ele>544.8</ele>
        <time>2014-02-20T13:07:19.498Z</time>
      </trkpt>
      <trkpt lat="43.5994" lon="2.95591">
        <ele>545.6</ele>
        <time>2014-02-20T13:07:20.499Z</time>
      </trkpt>
      <trkpt lat="43.59949" lon="2.95591">
        <ele>550.7</ele>
        <time>2014-02-20T13:07:38.501Z</time>
      </trkpt>
      <trkpt lat="43.59949" lon="2.9559">
        <ele>550.8</ele>
        <time>2014-02-20T13:07:39.496Z</time>
      </trkpt>
      <trkpt lat="43.59949" lon="2.9559">
        <ele>551.1</ele>
        <time>2014-02-20T13:07:45.252Z</time>
      </trkpt>
      <trkpt lat="43.59949" lon="2.9559">
        <ele>551.5</ele>
        <time>2014-02-20T13:08:47.498Z</time>
      </trkpt>
      <trkpt lat="43.59949" lon="2.95591">
        <ele>553.5</ele>
        <time>2014-02-20T13:08:48.495Z</time>
      </trkpt>
      <trkpt lat="43.59944" lon="2.95594">
        <ele>555.6</ele>
        <time>2014-02-20T13:08:55.505Z</time>
      </trkpt>
      <trkpt lat="43.59944" lon="2.95594">
        <ele>556.2</ele>
        <time>2014-02-20T13:08:56.527Z</time>
      </trkpt>
      <trkpt lat="43.59944" lon="2.95594">
        <ele>556.8</ele>
        <time>2014-02-20T13:08:56.803Z</time>
      </trkpt>
      <trkpt lat="43.59944" lon="2.95594">
        <ele>556.8</ele>
        <time>2014-02-20T13:08:57.508Z</time>
      </trkpt>
      <trkpt lat="43.59944" lon="2.95594">
        <ele>556.8</ele>
        <time>2014-02-20T13:08:58.500Z</time>
      </trkpt>
      <trkpt lat="43.59944" lon="2.95594">
        <ele>557.1</ele>
        <time>2014-02-20T13:08:59.503Z</time>
      </trkpt>
      <trkpt lat="43.59943" lon="2.95594">
        <ele>557.4</ele>
        <time>2014-02-20T13:09:00.502Z</time>
      </trkpt>
      <trkpt lat="43.59943" lon="2.95595">
        <ele>555.9</ele>
        <time>2014-02-20T13:09:04.500Z</time>
      </trkpt>
      <trkpt lat="43.59943" lon="2.95595">
        <ele>555.8</ele>
        <time>2014-02-20T13:09:05.499Z</time>
      </trkpt>
      <trkpt lat="43.59942" lon="2.95595">
        <ele>556.4</ele>
        <time>2014-02-20T13:09:34.503Z</time>
      </trkpt>
      <trkpt lat="43.59941" lon="2.95595">
        <ele>556.3</ele>
        <time>2014-02-20T13:09:35.508Z</time>
      </trkpt>
      <trkpt lat="43.59932" lon="2.95594">
        <ele>557.4</ele>
        <time>2014-02-20T13:09:44.506Z</time>
      </trkpt>
      <trkpt lat="43.59931" lon="2.95592">
        <ele>557.6</ele>
        <time>2014-02-20T13:09:45.501Z</time>
      </trkpt>
      <trkpt lat="43.59933" lon="2.95603">
        <ele>554.9</ele>
        <time>2014-02-20T13:10:00.529Z</time>
      </trkpt>
      <trkpt lat="43.59935" lon="2.95604">
        <ele>554.6</ele>
        <time>2014-02-20T13:10:01.533Z</time>
      </trkpt>
      <trkpt lat="43.59941" lon="2.95609">
        <ele>552.9</ele>
        <time>2014-02-20T13:10:14.538Z</time>
      </trkpt>
      <trkpt lat="43.59943" lon="2.95611">
        <ele>552.8</ele>
        <time>2014-02-20T13:10:15.674Z</time>
      </trkpt>
      <trkpt lat="43.59945" lon="2.95611">
        <ele>553.5</ele>
        <time>2014-02-20T13:10:17.675Z</time>
      </trkpt>
      <trkpt lat="43.59945" lon="2.9561">
        <ele>553</ele>
        <time>2014-02-20T13:10:21.179Z</time>
      </trkpt>
      <trkpt lat="43.59946" lon="2.95609">
        <ele>551.7</ele>
        <time>2014-02-20T13:10:21.543Z</time>
      </trkpt>
      <trkpt lat="43.59947" lon="2.95603">
        <ele>549.1</ele>
        <time>2014-02-20T13:10:27.505Z</time>
      </trkpt>
      <trkpt lat="43.59946" lon="2.95604">
        <ele>549.3</ele>
        <time>2014-02-20T13:10:28.508Z</time>
      </trkpt>
      <trkpt lat="43.59946" lon="2.95604">
        <ele>548.9</ele>
        <time>2014-02-20T13:10:29.505Z</time>
      </trkpt>
      <trkpt lat="43.59946" lon="2.95605">
        <ele>548.9</ele>
        <time>2014-02-20T13:10:30.573Z</time>
      </trkpt>
      <trkpt lat="43.59946" lon="2.95604">
        <ele>548.9</ele>
        <time>2014-02-20T13:10:31.503Z</time>
      </trkpt>
      <trkpt lat="43.59947" lon="2.95604">
        <ele>549.2</ele>
        <time>2014-02-20T13:10:49.499Z</time>
      </trkpt>
      <trkpt lat="43.59946" lon="2.95604">
        <ele>548.3</ele>
        <time>2014-02-20T13:10:50.499Z</time>
      </trkpt>
      <trkpt lat="43.59953" lon="2.95597">
        <ele>556.7</ele>
        <time>2014-02-20T13:11:05.501Z</time>
      </trkpt>
      <trkpt lat="43.59953" lon="2.95597">
        <ele>556.9</ele>
        <time>2014-02-20T13:11:06.548Z</time>
      </trkpt>
      <trkpt lat="43.59953" lon="2.95596">
        <ele>558.7</ele>
        <time>2014-02-20T13:11:30.498Z</time>
      </trkpt>
      <trkpt lat="43.59954" lon="2.95596">
        <ele>558.6</ele>
        <time>2014-02-20T13:11:31.500Z</time>
      </trkpt>
      <trkpt lat="43.59962" lon="2.956">
        <ele>559.7</ele>
        <time>2014-02-20T13:11:43.515Z</time>
      </trkpt>
      <trkpt lat="43.59963" lon="2.95601">
        <ele>560.2</ele>
        <time>2014-02-20T13:11:44.509Z</time>
      </trkpt>
      <trkpt lat="43.59972" lon="2.95599">
        <ele>560.3</ele>
        <time>2014-02-20T13:11:48.500Z</time>
      </trkpt>
      <trkpt lat="43.59973" lon="2.956">
        <ele>560.5</ele>
        <time>2014-02-20T13:11:49.503Z</time>
      </trkpt>
      <trkpt lat="43.59982" lon="2.95595">
        <ele>560.7</ele>
        <time>2014-02-20T13:11:56.510Z</time>
      </trkpt>
      <trkpt lat="43.59982" lon="2.95594">
        <ele>560.3</ele>
        <time>2014-02-20T13:11:57.511Z</time>
      </trkpt>
      <trkpt lat="43.59975" lon="2.95588">
        <ele>562.8</ele>
        <time>2014-02-20T13:12:04.537Z</time>
      </trkpt>
      <trkpt lat="43.59974" lon="2.95588">
        <ele>562.9</ele>
        <time>2014-02-20T13:12:05.494Z</time>
      </trkpt>
      <trkpt lat="43.59968" lon="2.95579">
        <ele>558.9</ele>
        <time>2014-02-20T13:12:20.500Z</time>
      </trkpt>
      <trkpt lat="43.59967" lon="2.95576">
        <ele>558.9</ele>
        <time>2014-02-20T13:12:21.630Z</time>
      </trkpt>
      <trkpt lat="43.59962" lon="2.95567">
        <ele>559.3</ele>
        <time>2014-02-20T13:12:28.503Z</time>
      </trkpt>
      <trkpt lat="43.59961" lon="2.95566">
        <ele>559.4</ele>
        <time>2014-02-20T13:12:29.528Z</time>
      </trkpt>
      <trkpt lat="43.59959" lon="2.95567">
        <ele>558.7</ele>
        <time>2014-02-20T13:12:33.512Z</time>
      </trkpt>
      <trkpt lat="43.59959" lon="2.95566">
        <ele>558.6</ele>
        <time>2014-02-20T13:12:34.505Z</time>
      </trkpt>
      <trkpt lat="43.59959" lon="2.95565">
        <ele>559.5</ele>
        <time>2014-02-20T13:13:54.523Z</time>
      </trkpt>
      <trkpt lat="43.59959" lon="2.95566">
        <ele>560.5</ele>
        <time>2014-02-20T13:13:55.519Z</time>
      </trkpt>
      <trkpt lat="43.59966" lon="2.9557">
        <ele>562.8</ele>
        <time>2014-02-20T13:13:58.498Z</time>
      </trkpt>
      <trkpt lat="43.59968" lon="2.95572">
        <ele>564.1</ele>
        <time>2014-02-20T13:13:59.496Z</time>
      </trkpt>
      <trkpt lat="43.59969" lon="2.95578">
        <ele>567.4</ele>
        <time>2014-02-20T13:14:07.512Z</time>
      </trkpt>
      <trkpt lat="43.5997" lon="2.95578">
        <ele>567.1</ele>
        <time>2014-02-20T13:14:11.530Z</time>
      </trkpt>
      <trkpt lat="43.5997" lon="2.95578">
        <ele>567.6</ele>
        <time>2014-02-20T13:14:12.513Z</time>
      </trkpt>
      <trkpt lat="43.59969" lon="2.95578">
        <ele>566.9</ele>
        <time>2014-02-20T13:14:13.495Z</time>
      </trkpt>
      <trkpt lat="43.59968" lon="2.95578">
        <ele>566.5</ele>
        <time>2014-02-20T13:14:15.493Z</time>
      </trkpt>
      <trkpt lat="43.59968" lon="2.95578">
        <ele>566.5</ele>
        <time>2014-02-20T13:14:16.493Z</time>
      </trkpt>
      <trkpt lat="43.59968" lon="2.95579">
        <ele>569.6</ele>
        <time>2014-02-20T13:18:17.503Z</time>
      </trkpt>
      <trkpt lat="43.59968" lon="2.95578">
        <ele>569.2</ele>
        <time>2014-02-20T13:18:18.497Z</time>
      </trkpt>
      <trkpt lat="43.59963" lon="2.95578">
        <ele>568.5</ele>
        <time>2014-02-20T13:18:19.501Z</time>
      </trkpt>
      <trkpt lat="43.59958" lon="2.95576">
        <ele>568.2</ele>
        <time>2014-02-20T13:18:20.499Z</time>
      </trkpt>
      <trkpt lat="43.59951" lon="2.95574">
        <ele>567.2</ele>
        <time>2014-02-20T13:18:21.521Z</time>
      </trkpt>
      <trkpt lat="43.59944" lon="2.95575">
        <ele>567.2</ele>
        <time>2014-02-20T13:18:22.504Z</time>
      </trkpt>
      <trkpt lat="43.59938" lon="2.95572">
        <ele>567.5</ele>
        <time>2014-02-20T13:18:23.510Z</time>
      </trkpt>
      <trkpt lat="43.59935" lon="2.95569">
        <ele>566.3</ele>
        <time>2014-02-20T13:18:24.499Z</time>
      </trkpt>
      <trkpt lat="43.59929" lon="2.95564">
        <ele>567.4</ele>
        <time>2014-02-20T13:18:26.499Z</time>
      </trkpt>
      <trkpt lat="43.59927" lon="2.95562">
        <ele>567.4</ele>
        <time>2014-02-20T13:18:27.496Z</time>
      </trkpt>
      <trkpt lat="43.59922" lon="2.95554">
        <ele>567</ele>
        <time>2014-02-20T13:18:30.495Z</time>
      </trkpt>
      <trkpt lat="43.59919" lon="2.9555">
        <ele>566.9</ele>
        <time>2014-02-20T13:18:31.498Z</time>
      </trkpt>
      <trkpt lat="43.59913" lon="2.9554">
        <ele>567.1</ele>
        <time>2014-02-20T13:18:33.495Z</time>
      </trkpt>
      <trkpt lat="43.5991" lon="2.95536">
        <ele>567.3</ele>
        <time>2014-02-20T13:18:34.502Z</time>
      </trkpt>
      <trkpt lat="43.59907" lon="2.95529">
        <ele>567.3</ele>
        <time>2014-02-20T13:18:35.503Z</time>
      </trkpt>
      <trkpt lat="43.59902" lon="2.9552">
        <ele>567.4</ele>
        <time>2014-02-20T13:18:38.812Z</time>
      </trkpt>
      <trkpt lat="43.59898" lon="2.95513">
        <ele>567.7</ele>
        <time>2014-02-20T13:18:40.507Z</time>
      </trkpt>
      <trkpt lat="43.59896" lon="2.95508">
        <ele>568.2</ele>
        <time>2014-02-20T13:18:41.509Z</time>
      </trkpt>
      <trkpt lat="43.59895" lon="2.95498">
        <ele>568.5</ele>
        <time>2014-02-20T13:18:43.512Z</time>
      </trkpt>
      <trkpt lat="43.59895" lon="2.95493">
        <ele>568.3</ele>
        <time>2014-02-20T13:18:44.513Z</time>
      </trkpt>
      <trkpt lat="43.59896" lon="2.95483">
        <ele>567.7</ele>
        <time>2014-02-20T13:18:46.504Z</time>
      </trkpt>
      <trkpt lat="43.59897" lon="2.95477">
        <ele>567.6</ele>
        <time>2014-02-20T13:18:47.510Z</time>
      </trkpt>
      <trkpt lat="43.59899" lon="2.95468">
        <ele>567.8</ele>
        <time>2014-02-20T13:18:49.511Z</time>
      </trkpt>
      <trkpt lat="43.59899" lon="2.95464">
        <ele>567.8</ele>
        <time>2014-02-20T13:18:50.509Z</time>
      </trkpt>
      <trkpt lat="43.59899" lon="2.95453">
        <ele>568</ele>
        <time>2014-02-20T13:18:53.508Z</time>
      </trkpt>
      <trkpt lat="43.59899" lon="2.95449">
        <ele>567.8</ele>
        <time>2014-02-20T13:18:54.531Z</time>
      </trkpt>
      <trkpt lat="43.59896" lon="2.95443">
        <ele>567.2</ele>
        <time>2014-02-20T13:18:55.534Z</time>
      </trkpt>
      <trkpt lat="43.59892" lon="2.95436">
        <ele>567.2</ele>
        <time>2014-02-20T13:18:56.509Z</time>
      </trkpt>
      <trkpt lat="43.59889" lon="2.9543">
        <ele>567.3</ele>
        <time>2014-02-20T13:18:57.504Z</time>
      </trkpt>
      <trkpt lat="43.59887" lon="2.95424">
        <ele>567.3</ele>
        <time>2014-02-20T13:18:58.505Z</time>
      </trkpt>
      <trkpt lat="43.59883" lon="2.95415">
        <ele>567.6</ele>
        <time>2014-02-20T13:19:00.506Z</time>
      </trkpt>
      <trkpt lat="43.59882" lon="2.9541">
        <ele>566.5</ele>
        <time>2014-02-20T13:19:01.510Z</time>
      </trkpt>
      <trkpt lat="43.59879" lon="2.95402">
        <ele>567.5</ele>
        <time>2014-02-20T13:19:03.505Z</time>
      </trkpt>
      <trkpt lat="43.59878" lon="2.95397">
        <ele>567.5</ele>
        <time>2014-02-20T13:19:04.509Z</time>
      </trkpt>
      <trkpt lat="43.59877" lon="2.95388">
        <ele>567.6</ele>
        <time>2014-02-20T13:19:06.578Z</time>
      </trkpt>
      <trkpt lat="43.59876" lon="2.95385">
        <ele>567.6</ele>
        <time>2014-02-20T13:19:07.500Z</time>
      </trkpt>
      <trkpt lat="43.59874" lon="2.95375">
        <ele>566.9</ele>
        <time>2014-02-20T13:19:11.549Z</time>
      </trkpt>
      <trkpt lat="43.59873" lon="2.95372">
        <ele>566.9</ele>
        <time>2014-02-20T13:19:12.505Z</time>
      </trkpt>
      <trkpt lat="43.59869" lon="2.95364">
        <ele>566.7</ele>
        <time>2014-02-20T13:19:15.503Z</time>
      </trkpt>
      <trkpt lat="43.59867" lon="2.95362">
        <ele>566.7</ele>
        <time>2014-02-20T13:19:16.565Z</time>
      </trkpt>
      <trkpt lat="43.59861" lon="2.95354">
        <ele>566.8</ele>
        <time>2014-02-20T13:19:19.503Z</time>
      </trkpt>
      <trkpt lat="43.5986" lon="2.95352">
        <ele>567</ele>
        <time>2014-02-20T13:19:20.498Z</time>
      </trkpt>
      <trkpt lat="43.59857" lon="2.95346">
        <ele>566.3</ele>
        <time>2014-02-20T13:19:22.502Z</time>
      </trkpt>
      <trkpt lat="43.59855" lon="2.95341">
        <ele>566.2</ele>
        <time>2014-02-20T13:19:23.547Z</time>
      </trkpt>
      <trkpt lat="43.59858" lon="2.95331">
        <ele>564.4</ele>
        <time>2014-02-20T13:19:25.512Z</time>
      </trkpt>
      <trkpt lat="43.59861" lon="2.95325">
        <ele>564</ele>
        <time>2014-02-20T13:19:26.506Z</time>
      </trkpt>
      <trkpt lat="43.59862" lon="2.95313">
        <ele>564.2</ele>
        <time>2014-02-20T13:19:28.507Z</time>
      </trkpt>
      <trkpt lat="43.59861" lon="2.95306">
        <ele>564.5</ele>
        <time>2014-02-20T13:19:29.502Z</time>
      </trkpt>
      <trkpt lat="43.5986" lon="2.95299">
        <ele>564.5</ele>
        <time>2014-02-20T13:19:30.502Z</time>
      </trkpt>
      <trkpt lat="43.59858" lon="2.95293">
        <ele>564.1</ele>
        <time>2014-02-20T13:19:31.508Z</time>
      </trkpt>
      <trkpt lat="43.59856" lon="2.95287">
        <ele>564</ele>
        <time>2014-02-20T13:19:32.504Z</time>
      </trkpt>
      <trkpt lat="43.59854" lon="2.95281">
        <ele>563.8</ele>
        <time>2014-02-20T13:19:33.507Z</time>
      </trkpt>
      <trkpt lat="43.59851" lon="2.95276">
        <ele>563.3</ele>
        <time>2014-02-20T13:19:34.592Z</time>
      </trkpt>
      <trkpt lat="43.59848" lon="2.95271">
        <ele>562.9</ele>
        <time>2014-02-20T13:19:35.510Z</time>
      </trkpt>
      <trkpt lat="43.59845" lon="2.95266">
        <ele>562.6</ele>
        <time>2014-02-20T13:19:36.505Z</time>
      </trkpt>
      <trkpt lat="43.59842" lon="2.95261">
        <ele>562.3</ele>
        <time>2014-02-20T13:19:37.518Z</time>
      </trkpt>
      <trkpt lat="43.59838" lon="2.95256">
        <ele>562.3</ele>
        <time>2014-02-20T13:19:38.502Z</time>
      </trkpt>
      <trkpt lat="43.59834" lon="2.9525">
        <ele>562.6</ele>
        <time>2014-02-20T13:19:39.501Z</time>
      </trkpt>
      <trkpt lat="43.59829" lon="2.95243">
        <ele>563</ele>
        <time>2014-02-20T13:19:40.506Z</time>
      </trkpt>
      <trkpt lat="43.59825" lon="2.95237">
        <ele>563</ele>
        <time>2014-02-20T13:19:41.503Z</time>
      </trkpt>
      <trkpt lat="43.5982" lon="2.95231">
        <ele>563.1</ele>
        <time>2014-02-20T13:19:42.505Z</time>
      </trkpt>
      <trkpt lat="43.59816" lon="2.95226">
        <ele>563.4</ele>
        <time>2014-02-20T13:19:43.505Z</time>
      </trkpt>
      <trkpt lat="43.5981" lon="2.95219">
        <ele>562.9</ele>
        <time>2014-02-20T13:19:44.504Z</time>
      </trkpt>
      <trkpt lat="43.59804" lon="2.95211">
        <ele>562.7</ele>
        <time>2014-02-20T13:19:45.509Z</time>
      </trkpt>
      <trkpt lat="43.59798" lon="2.95204">
        <ele>562.9</ele>
        <time>2014-02-20T13:19:46.510Z</time>
      </trkpt>
      <trkpt lat="43.59792" lon="2.95198">
        <ele>563</ele>
        <time>2014-02-20T13:19:47.508Z</time>
      </trkpt>
      <trkpt lat="43.59789" lon="2.95193">
        <ele>563.4</ele>
        <time>2014-02-20T13:19:48.504Z</time>
      </trkpt>
      <trkpt lat="43.59787" lon="2.95186">
        <ele>561.8</ele>
        <time>2014-02-20T13:19:49.508Z</time>
      </trkpt>
      <trkpt lat="43.59784" lon="2.95181">
        <ele>561.2</ele>
        <time>2014-02-20T13:19:50.504Z</time>
      </trkpt>
      <trkpt lat="43.59781" lon="2.95177">
        <ele>561.1</ele>
        <time>2014-02-20T13:19:51.497Z</time>
      </trkpt>
      <trkpt lat="43.59777" lon="2.95169">
        <ele>559.9</ele>
        <time>2014-02-20T13:19:53.501Z</time>
      </trkpt>
      <trkpt lat="43.59775" lon="2.95165">
        <ele>559.2</ele>
        <time>2014-02-20T13:19:54.504Z</time>
      </trkpt>
      <trkpt lat="43.59771" lon="2.95161">
        <ele>558.7</ele>
        <time>2014-02-20T13:19:55.510Z</time>
      </trkpt>
      <trkpt lat="43.59767" lon="2.95157">
        <ele>557.5</ele>
        <time>2014-02-20T13:19:56.508Z</time>
      </trkpt>
      <trkpt lat="43.59763" lon="2.9515">
        <ele>557.4</ele>
        <time>2014-02-20T13:19:58.514Z</time>
      </trkpt>
      <trkpt lat="43.5976" lon="2.95146">
        <ele>556.8</ele>
        <time>2014-02-20T13:19:59.503Z</time>
      </trkpt>
      <trkpt lat="43.59755" lon="2.95139">
        <ele>554.7</ele>
        <time>2014-02-20T13:20:01.509Z</time>
      </trkpt>
      <trkpt lat="43.59751" lon="2.95136">
        <ele>553.7</ele>
        <time>2014-02-20T13:20:02.501Z</time>
      </trkpt>
      <trkpt lat="43.59746" lon="2.95127">
        <ele>552.1</ele>
        <time>2014-02-20T13:20:04.506Z</time>
      </trkpt>
      <trkpt lat="43.59743" lon="2.9512">
        <ele>551.7</ele>
        <time>2014-02-20T13:20:06.240Z</time>
      </trkpt>
      <trkpt lat="43.59739" lon="2.95113">
        <ele>551.8</ele>
        <time>2014-02-20T13:20:07.500Z</time>
      </trkpt>
      <trkpt lat="43.59734" lon="2.95107">
        <ele>549.4</ele>
        <time>2014-02-20T13:20:08.511Z</time>
      </trkpt>
      <trkpt lat="43.59729" lon="2.95102">
        <ele>548.9</ele>
        <time>2014-02-20T13:20:09.502Z</time>
      </trkpt>
      <trkpt lat="43.59724" lon="2.95098">
        <ele>549.1</ele>
        <time>2014-02-20T13:20:10.507Z</time>
      </trkpt>
      <trkpt lat="43.59719" lon="2.95092">
        <ele>548.9</ele>
        <time>2014-02-20T13:20:11.554Z</time>
      </trkpt>
      <trkpt lat="43.59714" lon="2.95087">
        <ele>548.9</ele>
        <time>2014-02-20T13:20:12.507Z</time>
      </trkpt>
      <trkpt lat="43.59708" lon="2.9508">
        <ele>548.2</ele>
        <time>2014-02-20T13:20:14.503Z</time>
      </trkpt>
      <trkpt lat="43.59705" lon="2.95077">
        <ele>548</ele>
        <time>2014-02-20T13:20:15.509Z</time>
      </trkpt>
      <trkpt lat="43.59698" lon="2.95071">
        <ele>547.6</ele>
        <time>2014-02-20T13:20:17.500Z</time>
      </trkpt>
      <trkpt lat="43.59694" lon="2.95068">
        <ele>546.9</ele>
        <time>2014-02-20T13:20:18.645Z</time>
      </trkpt>
      <trkpt lat="43.5969" lon="2.95064">
        <ele>546.2</ele>
        <time>2014-02-20T13:20:19.608Z</time>
      </trkpt>
      <trkpt lat="43.59687" lon="2.95059">
        <ele>546.1</ele>
        <time>2014-02-20T13:20:20.567Z</time>
      </trkpt>
      <trkpt lat="43.59683" lon="2.95054">
        <ele>546.2</ele>
        <time>2014-02-20T13:20:21.552Z</time>
      </trkpt>
      <trkpt lat="43.5968" lon="2.95048">
        <ele>546.4</ele>
        <time>2014-02-20T13:20:22.546Z</time>
      </trkpt>
      <trkpt lat="43.59677" lon="2.95043">
        <ele>546.1</ele>
        <time>2014-02-20T13:20:23.519Z</time>
      </trkpt>
      <trkpt lat="43.59676" lon="2.95037">
        <ele>545.3</ele>
        <time>2014-02-20T13:20:24.510Z</time>
      </trkpt>
      <trkpt lat="43.59675" lon="2.95031">
        <ele>545.3</ele>
        <time>2014-02-20T13:20:25.515Z</time>
      </trkpt>
      <trkpt lat="43.59674" lon="2.95025">
        <ele>545.3</ele>
        <time>2014-02-20T13:20:26.510Z</time>
      </trkpt>
      <trkpt lat="43.59672" lon="2.95019">
        <ele>545.2</ele>
        <time>2014-02-20T13:20:27.509Z</time>
      </trkpt>
      <trkpt lat="43.5967" lon="2.95012">
        <ele>545.2</ele>
        <time>2014-02-20T13:20:28.598Z</time>
      </trkpt>
      <trkpt lat="43.59677" lon="2.95012">
        <ele>542.8</ele>
        <time>2014-02-20T13:20:32.515Z</time>
      </trkpt>
      <trkpt lat="43.59682" lon="2.95019">
        <ele>542.1</ele>
        <time>2014-02-20T13:20:33.532Z</time>
      </trkpt>
      <trkpt lat="43.59686" lon="2.95027">
        <ele>541.3</ele>
        <time>2014-02-20T13:20:34.521Z</time>
      </trkpt>
      <trkpt lat="43.59692" lon="2.95037">
        <ele>540.5</ele>
        <time>2014-02-20T13:20:35.512Z</time>
      </trkpt>
      <trkpt lat="43.59698" lon="2.95047">
        <ele>540.8</ele>
        <time>2014-02-20T13:20:36.525Z</time>
      </trkpt>
      <trkpt lat="43.59704" lon="2.95055">
        <ele>540.4</ele>
        <time>2014-02-20T13:20:37.510Z</time>
      </trkpt>
      <trkpt lat="43.59709" lon="2.9506">
        <ele>540.6</ele>
        <time>2014-02-20T13:20:38.500Z</time>
      </trkpt>
      <trkpt lat="43.59717" lon="2.95066">
        <ele>541.9</ele>
        <time>2014-02-20T13:20:39.501Z</time>
      </trkpt>
      <trkpt lat="43.59725" lon="2.95068">
        <ele>542.2</ele>
        <time>2014-02-20T13:20:40.511Z</time>
      </trkpt>
      <trkpt lat="43.5973" lon="2.95064">
        <ele>542.5</ele>
        <time>2014-02-20T13:20:41.505Z</time>
      </trkpt>
      <trkpt lat="43.59731" lon="2.95058">
        <ele>542.1</ele>
        <time>2014-02-20T13:20:42.507Z</time>
      </trkpt>
      <trkpt lat="43.59734" lon="2.95047">
        <ele>539.4</ele>
        <time>2014-02-20T13:20:44.514Z</time>
      </trkpt>
      <trkpt lat="43.59731" lon="2.9504">
        <ele>539.1</ele>
        <time>2014-02-20T13:20:45.506Z</time>
      </trkpt>
      <trkpt lat="43.59727" lon="2.95033">
        <ele>537.7</ele>
        <time>2014-02-20T13:20:46.503Z</time>
      </trkpt>
      <trkpt lat="43.59722" lon="2.95025">
        <ele>535.7</ele>
        <time>2014-02-20T13:20:47.501Z</time>
      </trkpt>
      <trkpt lat="43.59717" lon="2.95018">
        <ele>535.2</ele>
        <time>2014-02-20T13:20:48.501Z</time>
      </trkpt>
      <trkpt lat="43.59714" lon="2.95012">
        <ele>535</ele>
        <time>2014-02-20T13:20:49.497Z</time>
      </trkpt>
      <trkpt lat="43.59711" lon="2.95007">
        <ele>533.9</ele>
        <time>2014-02-20T13:20:50.507Z</time>
      </trkpt>
      <trkpt lat="43.59708" lon="2.95002">
        <ele>533.2</ele>
        <time>2014-02-20T13:20:51.507Z</time>
      </trkpt>
      <trkpt lat="43.59705" lon="2.94997">
        <ele>532.8</ele>
        <time>2014-02-20T13:20:52.508Z</time>
      </trkpt>
      <trkpt lat="43.59702" lon="2.9499">
        <ele>532.7</ele>
        <time>2014-02-20T13:20:53.507Z</time>
      </trkpt>
      <trkpt lat="43.597" lon="2.94985">
        <ele>532.4</ele>
        <time>2014-02-20T13:20:54.507Z</time>
      </trkpt>
      <trkpt lat="43.59696" lon="2.94979">
        <ele>532.3</ele>
        <time>2014-02-20T13:20:55.558Z</time>
      </trkpt>
      <trkpt lat="43.59693" lon="2.94974">
        <ele>532.2</ele>
        <time>2014-02-20T13:20:56.502Z</time>
      </trkpt>
      <trkpt lat="43.59689" lon="2.9497">
        <ele>532.5</ele>
        <time>2014-02-20T13:20:57.501Z</time>
      </trkpt>
      <trkpt lat="43.59685" lon="2.94967">
        <ele>532.5</ele>
        <time>2014-02-20T13:20:58.508Z</time>
      </trkpt>
      <trkpt lat="43.59681" lon="2.94963">
        <ele>532.5</ele>
        <time>2014-02-20T13:20:59.505Z</time>
      </trkpt>
      <trkpt lat="43.59677" lon="2.94959">
        <ele>532.9</ele>
        <time>2014-02-20T13:21:00.508Z</time>
      </trkpt>
      <trkpt lat="43.59673" lon="2.94956">
        <ele>533.1</ele>
        <time>2014-02-20T13:21:01.506Z</time>
      </trkpt>
      <trkpt lat="43.59668" lon="2.94957">
        <ele>533.7</ele>
        <time>2014-02-20T13:21:02.505Z</time>
      </trkpt>
      <trkpt lat="43.59662" lon="2.94958">
        <ele>534</ele>
        <time>2014-02-20T13:21:03.504Z</time>
      </trkpt>
      <trkpt lat="43.59657" lon="2.94959">
        <ele>534</ele>
        <time>2014-02-20T13:21:04.505Z</time>
      </trkpt>
      <trkpt lat="43.59653" lon="2.9496">
        <ele>533.8</ele>
        <time>2014-02-20T13:21:05.504Z</time>
      </trkpt>
      <trkpt lat="43.59646" lon="2.94963">
        <ele>534.1</ele>
        <time>2014-02-20T13:21:07.506Z</time>
      </trkpt>
      <trkpt lat="43.59643" lon="2.94965">
        <ele>534.1</ele>
        <time>2014-02-20T13:21:08.504Z</time>
      </trkpt>
      <trkpt lat="43.59637" lon="2.94971">
        <ele>533.9</ele>
        <time>2014-02-20T13:21:10.508Z</time>
      </trkpt>
      <trkpt lat="43.59634" lon="2.94975">
        <ele>533.8</ele>
        <time>2014-02-20T13:21:11.557Z</time>
      </trkpt>
      <trkpt lat="43.59628" lon="2.94978">
        <ele>534</ele>
        <time>2014-02-20T13:21:13.505Z</time>
      </trkpt>
      <trkpt lat="43.59622" lon="2.9498">
        <ele>534.2</ele>
        <time>2014-02-20T13:21:14.504Z</time>
      </trkpt>
      <trkpt lat="43.59616" lon="2.94983">
        <ele>533.8</ele>
        <time>2014-02-20T13:21:15.504Z</time>
      </trkpt>
      <trkpt lat="43.59606" lon="2.94986">
        <ele>533.4</ele>
        <time>2014-02-20T13:21:16.567Z</time>
      </trkpt>
      <trkpt lat="43.59597" lon="2.94988">
        <ele>532.5</ele>
        <time>2014-02-20T13:21:17.508Z</time>
      </trkpt>
      <trkpt lat="43.59588" lon="2.94993">
        <ele>532.2</ele>
        <time>2014-02-20T13:21:18.505Z</time>
      </trkpt>
      <trkpt lat="43.59579" lon="2.94996">
        <ele>531.5</ele>
        <time>2014-02-20T13:21:19.508Z</time>
      </trkpt>
      <trkpt lat="43.59571" lon="2.94999">
        <ele>530.8</ele>
        <time>2014-02-20T13:21:20.516Z</time>
      </trkpt>
      <trkpt lat="43.59563" lon="2.95002">
        <ele>530.2</ele>
        <time>2014-02-20T13:21:21.549Z</time>
      </trkpt>
      <trkpt lat="43.59554" lon="2.95005">
        <ele>527.1</ele>
        <time>2014-02-20T13:21:22.507Z</time>
      </trkpt>
      <trkpt lat="43.59541" lon="2.9501">
        <ele>522.6</ele>
        <time>2014-02-20T13:21:23.502Z</time>
      </trkpt>
      <trkpt lat="43.59525" lon="2.95016">
        <ele>519.3</ele>
        <time>2014-02-20T13:21:24.505Z</time>
      </trkpt>
      <trkpt lat="43.59508" lon="2.95023">
        <ele>516</ele>
        <time>2014-02-20T13:21:25.506Z</time>
      </trkpt>
      <trkpt lat="43.5949" lon="2.9503">
        <ele>507.5</ele>
        <time>2014-02-20T13:21:26.504Z</time>
      </trkpt>
      <trkpt lat="43.59471" lon="2.9504">
        <ele>504.5</ele>
        <time>2014-02-20T13:21:27.501Z</time>
      </trkpt>
      <trkpt lat="43.59455" lon="2.95049">
        <ele>502.6</ele>
        <time>2014-02-20T13:21:28.506Z</time>
      </trkpt>
      <trkpt lat="43.59444" lon="2.95058">
        <ele>500.6</ele>
        <time>2014-02-20T13:21:29.505Z</time>
      </trkpt>
      <trkpt lat="43.59435" lon="2.95065">
        <ele>500.2</ele>
        <time>2014-02-20T13:21:30.504Z</time>
      </trkpt>
      <trkpt lat="43.59428" lon="2.9507">
        <ele>499.7</ele>
        <time>2014-02-20T13:21:31.507Z</time>
      </trkpt>
      <trkpt lat="43.59422" lon="2.95076">
        <ele>498.3</ele>
        <time>2014-02-20T13:21:32.504Z</time>
      </trkpt>
      <trkpt lat="43.59416" lon="2.95082">
        <ele>498.6</ele>
        <time>2014-02-20T13:21:34.503Z</time>
      </trkpt>
      <trkpt lat="43.59411" lon="2.95085">
        <ele>496.8</ele>
        <time>2014-02-20T13:21:35.490Z</time>
      </trkpt>
      <trkpt lat="43.59406" lon="2.95087">
        <ele>497.4</ele>
        <time>2014-02-20T13:21:36.492Z</time>
      </trkpt>
      <trkpt lat="43.59402" lon="2.9509">
        <ele>495</ele>
        <time>2014-02-20T13:21:37.494Z</time>
      </trkpt>
      <trkpt lat="43.59393" lon="2.95088">
        <ele>495.2</ele>
        <time>2014-02-20T13:21:39.488Z</time>
      </trkpt>
      <trkpt lat="43.59389" lon="2.95086">
        <ele>496.4</ele>
        <time>2014-02-20T13:21:40.499Z</time>
      </trkpt>
      <trkpt lat="43.59382" lon="2.95086">
        <ele>495.5</ele>
        <time>2014-02-20T13:21:42.499Z</time>
      </trkpt>
      <trkpt lat="43.59378" lon="2.95086">
        <ele>495.7</ele>
        <time>2014-02-20T13:21:43.497Z</time>
      </trkpt>
      <trkpt lat="43.59369" lon="2.95082">
        <ele>493.2</ele>
        <time>2014-02-20T13:21:45.497Z</time>
      </trkpt>
      <trkpt lat="43.59367" lon="2.95082">
        <ele>490</ele>
        <time>2014-02-20T13:21:46.497Z</time>
      </trkpt>
      <trkpt lat="43.59359" lon="2.9508">
        <ele>489.3</ele>
        <time>2014-02-20T13:21:48.498Z</time>
      </trkpt>
      <trkpt lat="43.59355" lon="2.95077">
        <ele>488.3</ele>
        <time>2014-02-20T13:21:49.500Z</time>
      </trkpt>
      <trkpt lat="43.5935" lon="2.9507">
        <ele>487.1</ele>
        <time>2014-02-20T13:21:51.495Z</time>
      </trkpt>
      <trkpt lat="43.59348" lon="2.95067">
        <ele>485.7</ele>
        <time>2014-02-20T13:21:52.494Z</time>
      </trkpt>
      <trkpt lat="43.59343" lon="2.95058">
        <ele>484.2</ele>
        <time>2014-02-20T13:21:55.498Z</time>
      </trkpt>
      <trkpt lat="43.59341" lon="2.95055">
        <ele>485.3</ele>
        <time>2014-02-20T13:21:56.492Z</time>
      </trkpt>
      <trkpt lat="43.59335" lon="2.95051">
        <ele>486.1</ele>
        <time>2014-02-20T13:21:58.496Z</time>
      </trkpt>
      <trkpt lat="43.59332" lon="2.95048">
        <ele>486.1</ele>
        <time>2014-02-20T13:21:59.493Z</time>
      </trkpt>
      <trkpt lat="43.59326" lon="2.95043">
        <ele>486.5</ele>
        <time>2014-02-20T13:22:01.495Z</time>
      </trkpt>
      <trkpt lat="43.59323" lon="2.9504">
        <ele>486.1</ele>
        <time>2014-02-20T13:22:02.496Z</time>
      </trkpt>
      <trkpt lat="43.59318" lon="2.95035">
        <ele>482.8</ele>
        <time>2014-02-20T13:22:04.494Z</time>
      </trkpt>
      <trkpt lat="43.59316" lon="2.95033">
        <ele>481.9</ele>
        <time>2014-02-20T13:22:05.496Z</time>
      </trkpt>
      <trkpt lat="43.59312" lon="2.95026">
        <ele>482.2</ele>
        <time>2014-02-20T13:22:07.499Z</time>
      </trkpt>
      <trkpt lat="43.5931" lon="2.95023">
        <ele>481.9</ele>
        <time>2014-02-20T13:22:08.496Z</time>
      </trkpt>
      <trkpt lat="43.59307" lon="2.95014">
        <ele>482.3</ele>
        <time>2014-02-20T13:22:10.500Z</time>
      </trkpt>
      <trkpt lat="43.59305" lon="2.95009">
        <ele>482.3</ele>
        <time>2014-02-20T13:22:11.540Z</time>
      </trkpt>
      <trkpt lat="43.593" lon="2.95">
        <ele>482.1</ele>
        <time>2014-02-20T13:22:13.517Z</time>
      </trkpt>
      <trkpt lat="43.59297" lon="2.94996">
        <ele>482.4</ele>
        <time>2014-02-20T13:22:14.501Z</time>
      </trkpt>
      <trkpt lat="43.59291" lon="2.94987">
        <ele>483</ele>
        <time>2014-02-20T13:22:16.555Z</time>
      </trkpt>
      <trkpt lat="43.59288" lon="2.94983">
        <ele>483.3</ele>
        <time>2014-02-20T13:22:17.496Z</time>
      </trkpt>
      <trkpt lat="43.59285" lon="2.94979">
        <ele>483.4</ele>
        <time>2014-02-20T13:22:18.971Z</time>
      </trkpt>
      <trkpt lat="43.59273" lon="2.9497">
        <ele>485</ele>
        <time>2014-02-20T13:22:22.502Z</time>
      </trkpt>
      <trkpt lat="43.59267" lon="2.94967">
        <ele>485</ele>
        <time>2014-02-20T13:22:23.499Z</time>
      </trkpt>
      <trkpt lat="43.59263" lon="2.94965">
        <ele>484.6</ele>
        <time>2014-02-20T13:22:24.497Z</time>
      </trkpt>
      <trkpt lat="43.59256" lon="2.94964">
        <ele>482.9</ele>
        <time>2014-02-20T13:22:26.497Z</time>
      </trkpt>
      <trkpt lat="43.59253" lon="2.94963">
        <ele>482.7</ele>
        <time>2014-02-20T13:22:27.497Z</time>
      </trkpt>
      <trkpt lat="43.59245" lon="2.94961">
        <ele>482.5</ele>
        <time>2014-02-20T13:22:29.496Z</time>
      </trkpt>
      <trkpt lat="43.59241" lon="2.94958">
        <ele>482.1</ele>
        <time>2014-02-20T13:22:30.497Z</time>
      </trkpt>
      <trkpt lat="43.59237" lon="2.94955">
        <ele>481.6</ele>
        <time>2014-02-20T13:22:31.498Z</time>
      </trkpt>
      <trkpt lat="43.59232" lon="2.94952">
        <ele>481.8</ele>
        <time>2014-02-20T13:22:32.588Z</time>
      </trkpt>
      <trkpt lat="43.59227" lon="2.94949">
        <ele>481.8</ele>
        <time>2014-02-20T13:22:33.499Z</time>
      </trkpt>
      <trkpt lat="43.59222" lon="2.94947">
        <ele>482.5</ele>
        <time>2014-02-20T13:22:34.498Z</time>
      </trkpt>
      <trkpt lat="43.59217" lon="2.94945">
        <ele>482.6</ele>
        <time>2014-02-20T13:22:35.489Z</time>
      </trkpt>
      <trkpt lat="43.59211" lon="2.94946">
        <ele>482.5</ele>
        <time>2014-02-20T13:22:36.504Z</time>
      </trkpt>
      <trkpt lat="43.59205" lon="2.94948">
        <ele>483.1</ele>
        <time>2014-02-20T13:22:37.502Z</time>
      </trkpt>
      <trkpt lat="43.592" lon="2.9495">
        <ele>483.7</ele>
        <time>2014-02-20T13:22:38.496Z</time>
      </trkpt>
      <trkpt lat="43.59197" lon="2.94953">
        <ele>484</ele>
        <time>2014-02-20T13:22:39.496Z</time>
      </trkpt>
      <trkpt lat="43.59192" lon="2.94957">
        <ele>484.1</ele>
        <time>2014-02-20T13:22:42.071Z</time>
      </trkpt>
      <trkpt lat="43.59191" lon="2.94965">
        <ele>484.2</ele>
        <time>2014-02-20T13:22:43.499Z</time>
      </trkpt>
      <trkpt lat="43.59189" lon="2.94971">
        <ele>484.5</ele>
        <time>2014-02-20T13:22:44.496Z</time>
      </trkpt>
      <trkpt lat="43.59186" lon="2.94977">
        <ele>484.4</ele>
        <time>2014-02-20T13:22:45.499Z</time>
      </trkpt>
      <trkpt lat="43.59182" lon="2.94983">
        <ele>484.2</ele>
        <time>2014-02-20T13:22:46.500Z</time>
      </trkpt>
      <trkpt lat="43.59175" lon="2.94992">
        <ele>483.4</ele>
        <time>2014-02-20T13:22:47.514Z</time>
      </trkpt>
      <trkpt lat="43.59167" lon="2.95001">
        <ele>482.8</ele>
        <time>2014-02-20T13:22:48.499Z</time>
      </trkpt>
      <trkpt lat="43.59158" lon="2.95012">
        <ele>482.3</ele>
        <time>2014-02-20T13:22:49.500Z</time>
      </trkpt>
      <trkpt lat="43.59152" lon="2.95022">
        <ele>482.4</ele>
        <time>2014-02-20T13:22:50.499Z</time>
      </trkpt>
      <trkpt lat="43.59147" lon="2.95031">
        <ele>482.2</ele>
        <time>2014-02-20T13:22:51.502Z</time>
      </trkpt>
      <trkpt lat="43.59143" lon="2.95038">
        <ele>482.1</ele>
        <time>2014-02-20T13:22:52.499Z</time>
      </trkpt>
      <trkpt lat="43.59138" lon="2.95049">
        <ele>482.7</ele>
        <time>2014-02-20T13:22:54.499Z</time>
      </trkpt>
      <trkpt lat="43.59136" lon="2.95054">
        <ele>482.9</ele>
        <time>2014-02-20T13:22:55.537Z</time>
      </trkpt>
      <trkpt lat="43.59134" lon="2.9506">
        <ele>482.2</ele>
        <time>2014-02-20T13:22:56.499Z</time>
      </trkpt>
      <trkpt lat="43.5913" lon="2.95067">
        <ele>481.4</ele>
        <time>2014-02-20T13:22:57.496Z</time>
      </trkpt>
      <trkpt lat="43.59126" lon="2.95073">
        <ele>480.7</ele>
        <time>2014-02-20T13:22:58.497Z</time>
      </trkpt>
      <trkpt lat="43.59123" lon="2.95078">
        <ele>480.7</ele>
        <time>2014-02-20T13:22:59.487Z</time>
      </trkpt>
      <trkpt lat="43.59118" lon="2.95082">
        <ele>480.3</ele>
        <time>2014-02-20T13:23:00.500Z</time>
      </trkpt>
      <trkpt lat="43.59114" lon="2.95085">
        <ele>480</ele>
        <time>2014-02-20T13:23:01.500Z</time>
      </trkpt>
      <trkpt lat="43.59105" lon="2.95089">
        <ele>479.5</ele>
        <time>2014-02-20T13:23:03.499Z</time>
      </trkpt>
      <trkpt lat="43.59102" lon="2.9509">
        <ele>479.3</ele>
        <time>2014-02-20T13:23:04.501Z</time>
      </trkpt>
      <trkpt lat="43.5909" lon="2.9509">
        <ele>474.4</ele>
        <time>2014-02-20T13:23:05.499Z</time>
      </trkpt>
      <trkpt lat="43.59078" lon="2.9509">
        <ele>472.6</ele>
        <time>2014-02-20T13:23:06.540Z</time>
      </trkpt>
      <trkpt lat="43.59068" lon="2.9509">
        <ele>470.9</ele>
        <time>2014-02-20T13:23:07.497Z</time>
      </trkpt>
      <trkpt lat="43.59058" lon="2.9509">
        <ele>469.1</ele>
        <time>2014-02-20T13:23:08.499Z</time>
      </trkpt>
      <trkpt lat="43.59049" lon="2.9509">
        <ele>468.8</ele>
        <time>2014-02-20T13:23:09.501Z</time>
      </trkpt>
      <trkpt lat="43.59041" lon="2.95091">
        <ele>468.7</ele>
        <time>2014-02-20T13:23:10.499Z</time>
      </trkpt>
      <trkpt lat="43.59034" lon="2.9509">
        <ele>468.8</ele>
        <time>2014-02-20T13:23:11.548Z</time>
      </trkpt>
      <trkpt lat="43.59029" lon="2.9509">
        <ele>469.3</ele>
        <time>2014-02-20T13:23:12.494Z</time>
      </trkpt>
      <trkpt lat="43.59022" lon="2.95089">
        <ele>468.6</ele>
        <time>2014-02-20T13:23:13.499Z</time>
      </trkpt>
      <trkpt lat="43.59016" lon="2.95088">
        <ele>466.9</ele>
        <time>2014-02-20T13:23:14.503Z</time>
      </trkpt>
      <trkpt lat="43.59009" lon="2.95088">
        <ele>467.1</ele>
        <time>2014-02-20T13:23:15.497Z</time>
      </trkpt>
      <trkpt lat="43.59003" lon="2.95086">
        <ele>466.2</ele>
        <time>2014-02-20T13:23:16.496Z</time>
      </trkpt>
      <trkpt lat="43.58997" lon="2.95086">
        <ele>466</ele>
        <time>2014-02-20T13:23:17.497Z</time>
      </trkpt>
      <trkpt lat="43.58991" lon="2.95086">
        <ele>466.2</ele>
        <time>2014-02-20T13:23:18.502Z</time>
      </trkpt>
      <trkpt lat="43.58985" lon="2.95085">
        <ele>466.5</ele>
        <time>2014-02-20T13:23:19.501Z</time>
      </trkpt>
      <trkpt lat="43.58979" lon="2.95085">
        <ele>466.2</ele>
        <time>2014-02-20T13:23:20.599Z</time>
      </trkpt>
      <trkpt lat="43.58974" lon="2.95084">
        <ele>466.4</ele>
        <time>2014-02-20T13:23:21.524Z</time>
      </trkpt>
      <trkpt lat="43.58969" lon="2.95083">
        <ele>466.4</ele>
        <time>2014-02-20T13:23:22.519Z</time>
      </trkpt>
      <trkpt lat="43.58962" lon="2.95085">
        <ele>466.3</ele>
        <time>2014-02-20T13:23:24.505Z</time>
      </trkpt>
      <trkpt lat="43.58958" lon="2.95085">
        <ele>466.4</ele>
        <time>2014-02-20T13:23:25.563Z</time>
      </trkpt>
      <trkpt lat="43.58951" lon="2.95087">
        <ele>466.6</ele>
        <time>2014-02-20T13:23:27.528Z</time>
      </trkpt>
      <trkpt lat="43.58947" lon="2.95087">
        <ele>466.2</ele>
        <time>2014-02-20T13:23:28.501Z</time>
      </trkpt>
      <trkpt lat="43.58939" lon="2.95088">
        <ele>466.2</ele>
        <time>2014-02-20T13:23:30.515Z</time>
      </trkpt>
      <trkpt lat="43.58935" lon="2.95089">
        <ele>466.3</ele>
        <time>2014-02-20T13:23:31.525Z</time>
      </trkpt>
      <trkpt lat="43.58931" lon="2.95091">
        <ele>466</ele>
        <time>2014-02-20T13:23:32.507Z</time>
      </trkpt>
      <trkpt lat="43.58926" lon="2.95093">
        <ele>466</ele>
        <time>2014-02-20T13:23:33.503Z</time>
      </trkpt>
      <trkpt lat="43.58922" lon="2.95096">
        <ele>465.6</ele>
        <time>2014-02-20T13:23:34.503Z</time>
      </trkpt>
      <trkpt lat="43.58918" lon="2.95098">
        <ele>465.4</ele>
        <time>2014-02-20T13:23:35.500Z</time>
      </trkpt>
      <trkpt lat="43.58914" lon="2.95099">
        <ele>465.4</ele>
        <time>2014-02-20T13:23:36.500Z</time>
      </trkpt>
      <trkpt lat="43.58908" lon="2.95101">
        <ele>465.3</ele>
        <time>2014-02-20T13:23:37.645Z</time>
      </trkpt>
      <trkpt lat="43.589" lon="2.95102">
        <ele>465.4</ele>
        <time>2014-02-20T13:23:39.499Z</time>
      </trkpt>
      <trkpt lat="43.58896" lon="2.95102">
        <ele>464.9</ele>
        <time>2014-02-20T13:23:40.518Z</time>
      </trkpt>
      <trkpt lat="43.58887" lon="2.95102">
        <ele>464.7</ele>
        <time>2014-02-20T13:23:43.512Z</time>
      </trkpt>
      <trkpt lat="43.58884" lon="2.95102">
        <ele>464.6</ele>
        <time>2014-02-20T13:23:44.510Z</time>
      </trkpt>
      <trkpt lat="43.58877" lon="2.95102">
        <ele>464.2</ele>
        <time>2014-02-20T13:23:47.515Z</time>
      </trkpt>
      <trkpt lat="43.58873" lon="2.95103">
        <ele>464.1</ele>
        <time>2014-02-20T13:23:48.568Z</time>
      </trkpt>
      <trkpt lat="43.58869" lon="2.95105">
        <ele>463.8</ele>
        <time>2014-02-20T13:23:49.532Z</time>
      </trkpt>
      <trkpt lat="43.58864" lon="2.95108">
        <ele>463.7</ele>
        <time>2014-02-20T13:23:50.502Z</time>
      </trkpt>
      <trkpt lat="43.58858" lon="2.95111">
        <ele>463.5</ele>
        <time>2014-02-20T13:23:51.497Z</time>
      </trkpt>
      <trkpt lat="43.58852" lon="2.95114">
        <ele>463.5</ele>
        <time>2014-02-20T13:23:52.495Z</time>
      </trkpt>
      <trkpt lat="43.58846" lon="2.95116">
        <ele>463.7</ele>
        <time>2014-02-20T13:23:53.498Z</time>
      </trkpt>
      <trkpt lat="43.5884" lon="2.95119">
        <ele>463.8</ele>
        <time>2014-02-20T13:23:54.499Z</time>
      </trkpt>
      <trkpt lat="43.58835" lon="2.95119">
        <ele>464</ele>
        <time>2014-02-20T13:23:55.501Z</time>
      </trkpt>
      <trkpt lat="43.5883" lon="2.9512">
        <ele>463.9</ele>
        <time>2014-02-20T13:23:56.498Z</time>
      </trkpt>
      <trkpt lat="43.58822" lon="2.95124">
        <ele>463.8</ele>
        <time>2014-02-20T13:23:58.541Z</time>
      </trkpt>
      <trkpt lat="43.58819" lon="2.95126">
        <ele>463.6</ele>
        <time>2014-02-20T13:23:59.498Z</time>
      </trkpt>
      <trkpt lat="43.58814" lon="2.95131">
        <ele>463.4</ele>
        <time>2014-02-20T13:24:01.499Z</time>
      </trkpt>
      <trkpt lat="43.58812" lon="2.95138">
        <ele>463.3</ele>
        <time>2014-02-20T13:24:02.497Z</time>
      </trkpt>
      <trkpt lat="43.58812" lon="2.95145">
        <ele>463.2</ele>
        <time>2014-02-20T13:24:03.498Z</time>
      </trkpt>
      <trkpt lat="43.58811" lon="2.95151">
        <ele>463.2</ele>
        <time>2014-02-20T13:24:04.497Z</time>
      </trkpt>
      <trkpt lat="43.58809" lon="2.95162">
        <ele>463.4</ele>
        <time>2014-02-20T13:24:06.538Z</time>
      </trkpt>
      <trkpt lat="43.58808" lon="2.95168">
        <ele>462.3</ele>
        <time>2014-02-20T13:24:07.499Z</time>
      </trkpt>
      <trkpt lat="43.58807" lon="2.95178">
        <ele>461</ele>
        <time>2014-02-20T13:24:09.499Z</time>
      </trkpt>
      <trkpt lat="43.58807" lon="2.95183">
        <ele>461.6</ele>
        <time>2014-02-20T13:24:10.551Z</time>
      </trkpt>
      <trkpt lat="43.58806" lon="2.95194">
        <ele>461.2</ele>
        <time>2014-02-20T13:24:16.561Z</time>
      </trkpt>
      <trkpt lat="43.58807" lon="2.95196">
        <ele>461.2</ele>
        <time>2014-02-20T13:24:17.509Z</time>
      </trkpt>
      <trkpt lat="43.58805" lon="2.95204">
        <ele>461.2</ele>
        <time>2014-02-20T13:24:20.512Z</time>
      </trkpt>
      <trkpt lat="43.58806" lon="2.95208">
        <ele>461.2</ele>
        <time>2014-02-20T13:24:21.744Z</time>
      </trkpt>
      <trkpt lat="43.58805" lon="2.95213">
        <ele>461.2</ele>
        <time>2014-02-20T13:24:22.509Z</time>
      </trkpt>
      <trkpt lat="43.58804" lon="2.95221">
        <ele>461.4</ele>
        <time>2014-02-20T13:24:23.505Z</time>
      </trkpt>
      <trkpt lat="43.58802" lon="2.95231">
        <ele>461.5</ele>
        <time>2014-02-20T13:24:24.505Z</time>
      </trkpt>
      <trkpt lat="43.588" lon="2.95243">
        <ele>461.7</ele>
        <time>2014-02-20T13:24:25.508Z</time>
      </trkpt>
      <trkpt lat="43.58798" lon="2.95254">
        <ele>461.8</ele>
        <time>2014-02-20T13:24:26.505Z</time>
      </trkpt>
      <trkpt lat="43.58796" lon="2.95265">
        <ele>461.7</ele>
        <time>2014-02-20T13:24:27.507Z</time>
      </trkpt>
      <trkpt lat="43.58795" lon="2.95274">
        <ele>461.6</ele>
        <time>2014-02-20T13:24:28.508Z</time>
      </trkpt>
      <trkpt lat="43.58794" lon="2.95282">
        <ele>461.5</ele>
        <time>2014-02-20T13:24:29.507Z</time>
      </trkpt>
      <trkpt lat="43.58794" lon="2.95289">
        <ele>461.6</ele>
        <time>2014-02-20T13:24:30.507Z</time>
      </trkpt>
      <trkpt lat="43.58794" lon="2.95296">
        <ele>461.6</ele>
        <time>2014-02-20T13:24:31.507Z</time>
      </trkpt>
      <trkpt lat="43.58796" lon="2.95307">
        <ele>461.9</ele>
        <time>2014-02-20T13:24:33.504Z</time>
      </trkpt>
      <trkpt lat="43.58799" lon="2.95313">
        <ele>461.9</ele>
        <time>2014-02-20T13:24:34.507Z</time>
      </trkpt>
      <trkpt lat="43.58803" lon="2.95321">
        <ele>461.8</ele>
        <time>2014-02-20T13:24:36.507Z</time>
      </trkpt>
      <trkpt lat="43.58805" lon="2.95325">
        <ele>461.8</ele>
        <time>2014-02-20T13:24:37.507Z</time>
      </trkpt>
      <trkpt lat="43.58808" lon="2.95332">
        <ele>461.8</ele>
        <time>2014-02-20T13:24:39.506Z</time>
      </trkpt>
      <trkpt lat="43.5881" lon="2.95336">
        <ele>461.6</ele>
        <time>2014-02-20T13:24:40.507Z</time>
      </trkpt>
      <trkpt lat="43.58814" lon="2.95344">
        <ele>461.5</ele>
        <time>2014-02-20T13:24:42.506Z</time>
      </trkpt>
      <trkpt lat="43.58816" lon="2.95349">
        <ele>461.4</ele>
        <time>2014-02-20T13:24:43.505Z</time>
      </trkpt>
      <trkpt lat="43.58821" lon="2.95357">
        <ele>461.5</ele>
        <time>2014-02-20T13:24:45.508Z</time>
      </trkpt>
      <trkpt lat="43.58823" lon="2.95362">
        <ele>461.4</ele>
        <time>2014-02-20T13:24:46.506Z</time>
      </trkpt>
      <trkpt lat="43.58826" lon="2.95367">
        <ele>461.2</ele>
        <time>2014-02-20T13:24:47.502Z</time>
      </trkpt>
      <trkpt lat="43.58829" lon="2.95373">
        <ele>461.3</ele>
        <time>2014-02-20T13:24:48.506Z</time>
      </trkpt>
      <trkpt lat="43.58832" lon="2.95379">
        <ele>461.3</ele>
        <time>2014-02-20T13:24:49.506Z</time>
      </trkpt>
      <trkpt lat="43.58835" lon="2.95384">
        <ele>461.4</ele>
        <time>2014-02-20T13:24:50.506Z</time>
      </trkpt>
      <trkpt lat="43.58863" lon="2.95546">
        <ele>460.8</ele>
        <time>2014-02-20T13:25:05.500Z</time>
      </trkpt>
      <trkpt lat="43.58858" lon="2.95564">
        <ele>460</ele>
        <time>2014-02-20T13:25:06.555Z</time>
      </trkpt>
      <trkpt lat="43.58856" lon="2.95576">
        <ele>459.9</ele>
        <time>2014-02-20T13:25:07.500Z</time>
      </trkpt>
      <trkpt lat="43.58856" lon="2.95584">
        <ele>460.1</ele>
        <time>2014-02-20T13:25:08.500Z</time>
      </trkpt>
      <trkpt lat="43.58857" lon="2.95592">
        <ele>460.4</ele>
        <time>2014-02-20T13:25:09.505Z</time>
      </trkpt>
      <trkpt lat="43.58858" lon="2.95597">
        <ele>460.4</ele>
        <time>2014-02-20T13:25:10.503Z</time>
      </trkpt>
      <trkpt lat="43.58864" lon="2.95605">
        <ele>461.5</ele>
        <time>2014-02-20T13:25:12.537Z</time>
      </trkpt>
      <trkpt lat="43.58867" lon="2.95608">
        <ele>461.4</ele>
        <time>2014-02-20T13:25:13.503Z</time>
      </trkpt>
      <trkpt lat="43.58871" lon="2.95612">
        <ele>461.1</ele>
        <time>2014-02-20T13:25:14.501Z</time>
      </trkpt>
      <trkpt lat="43.58875" lon="2.95618">
        <ele>460.8</ele>
        <time>2014-02-20T13:25:15.503Z</time>
      </trkpt>
      <trkpt lat="43.58878" lon="2.95624">
        <ele>460.8</ele>
        <time>2014-02-20T13:25:16.564Z</time>
      </trkpt>
      <trkpt lat="43.5888" lon="2.95629">
        <ele>460.7</ele>
        <time>2014-02-20T13:25:17.502Z</time>
      </trkpt>
      <trkpt lat="43.58881" lon="2.95636">
        <ele>460.6</ele>
        <time>2014-02-20T13:25:18.507Z</time>
      </trkpt>
      <trkpt lat="43.5888" lon="2.95644">
        <ele>460.5</ele>
        <time>2014-02-20T13:25:19.506Z</time>
      </trkpt>
      <trkpt lat="43.58879" lon="2.95651">
        <ele>460.3</ele>
        <time>2014-02-20T13:25:20.596Z</time>
      </trkpt>
      <trkpt lat="43.58879" lon="2.95659">
        <ele>459.5</ele>
        <time>2014-02-20T13:25:21.504Z</time>
      </trkpt>
      <trkpt lat="43.58879" lon="2.95667">
        <ele>459.5</ele>
        <time>2014-02-20T13:25:22.504Z</time>
      </trkpt>
      <trkpt lat="43.58877" lon="2.95673">
        <ele>459.5</ele>
        <time>2014-02-20T13:25:23.503Z</time>
      </trkpt>
      <trkpt lat="43.58873" lon="2.95682">
        <ele>459.1</ele>
        <time>2014-02-20T13:25:25.523Z</time>
      </trkpt>
      <trkpt lat="43.58869" lon="2.95685">
        <ele>459.2</ele>
        <time>2014-02-20T13:25:26.502Z</time>
      </trkpt>
      <trkpt lat="43.58864" lon="2.95688">
        <ele>459.1</ele>
        <time>2014-02-20T13:25:27.506Z</time>
      </trkpt>
      <trkpt lat="43.58859" lon="2.9569">
        <ele>458.9</ele>
        <time>2014-02-20T13:25:28.529Z</time>
      </trkpt>
      <trkpt lat="43.58854" lon="2.9569">
        <ele>458.6</ele>
        <time>2014-02-20T13:25:29.501Z</time>
      </trkpt>
      <trkpt lat="43.58848" lon="2.9569">
        <ele>458.7</ele>
        <time>2014-02-20T13:25:30.511Z</time>
      </trkpt>
      <trkpt lat="43.58842" lon="2.9569">
        <ele>458.7</ele>
        <time>2014-02-20T13:25:31.505Z</time>
      </trkpt>
      <trkpt lat="43.58836" lon="2.95688">
        <ele>458.8</ele>
        <time>2014-02-20T13:25:32.500Z</time>
      </trkpt>
      <trkpt lat="43.58829" lon="2.95687">
        <ele>458.9</ele>
        <time>2014-02-20T13:25:33.503Z</time>
      </trkpt>
      <trkpt lat="43.58821" lon="2.95685">
        <ele>458.8</ele>
        <time>2014-02-20T13:25:34.501Z</time>
      </trkpt>
      <trkpt lat="43.5881" lon="2.95685">
        <ele>451.9</ele>
        <time>2014-02-20T13:25:35.503Z</time>
      </trkpt>
      <trkpt lat="43.58798" lon="2.95684">
        <ele>451.7</ele>
        <time>2014-02-20T13:25:36.504Z</time>
      </trkpt>
      <trkpt lat="43.58788" lon="2.95683">
        <ele>451.7</ele>
        <time>2014-02-20T13:25:37.504Z</time>
      </trkpt>
      <trkpt lat="43.58778" lon="2.95683">
        <ele>451.8</ele>
        <time>2014-02-20T13:25:38.502Z</time>
      </trkpt>
      <trkpt lat="43.58769" lon="2.9568">
        <ele>451.8</ele>
        <time>2014-02-20T13:25:39.539Z</time>
      </trkpt>
      <trkpt lat="43.5876" lon="2.95679">
        <ele>451.4</ele>
        <time>2014-02-20T13:25:40.503Z</time>
      </trkpt>
      <trkpt lat="43.58752" lon="2.95678">
        <ele>451.5</ele>
        <time>2014-02-20T13:25:41.497Z</time>
      </trkpt>
      <trkpt lat="43.58744" lon="2.95678">
        <ele>451.2</ele>
        <time>2014-02-20T13:25:42.498Z</time>
      </trkpt>
      <trkpt lat="43.58735" lon="2.95678">
        <ele>451.5</ele>
        <time>2014-02-20T13:25:43.498Z</time>
      </trkpt>
      <trkpt lat="43.58727" lon="2.9568">
        <ele>451.4</ele>
        <time>2014-02-20T13:25:44.495Z</time>
      </trkpt>
      <trkpt lat="43.5872" lon="2.95681">
        <ele>451.6</ele>
        <time>2014-02-20T13:25:45.499Z</time>
      </trkpt>
      <trkpt lat="43.58715" lon="2.95683">
        <ele>451.4</ele>
        <time>2014-02-20T13:25:46.497Z</time>
      </trkpt>
      <trkpt lat="43.58709" lon="2.95686">
        <ele>451.5</ele>
        <time>2014-02-20T13:25:47.497Z</time>
      </trkpt>
      <trkpt lat="43.58705" lon="2.95689">
        <ele>451.9</ele>
        <time>2014-02-20T13:25:48.503Z</time>
      </trkpt>
      <trkpt lat="43.58702" lon="2.95693">
        <ele>452.1</ele>
        <time>2014-02-20T13:25:49.500Z</time>
      </trkpt>
      <trkpt lat="43.58698" lon="2.95702">
        <ele>452.5</ele>
        <time>2014-02-20T13:25:51.500Z</time>
      </trkpt>
      <trkpt lat="43.58696" lon="2.95708">
        <ele>453.1</ele>
        <time>2014-02-20T13:25:52.496Z</time>
      </trkpt>
      <trkpt lat="43.58693" lon="2.95715">
        <ele>453.1</ele>
        <time>2014-02-20T13:25:53.495Z</time>
      </trkpt>
      <trkpt lat="43.5869" lon="2.9572">
        <ele>453.8</ele>
        <time>2014-02-20T13:25:54.497Z</time>
      </trkpt>
      <trkpt lat="43.58687" lon="2.95728">
        <ele>454.1</ele>
        <time>2014-02-20T13:25:56.492Z</time>
      </trkpt>
      <trkpt lat="43.58686" lon="2.95733">
        <ele>454.2</ele>
        <time>2014-02-20T13:25:57.505Z</time>
      </trkpt>
      <trkpt lat="43.58682" lon="2.95744">
        <ele>454.2</ele>
        <time>2014-02-20T13:26:00.492Z</time>
      </trkpt>
      <trkpt lat="43.5868" lon="2.95747">
        <ele>454.3</ele>
        <time>2014-02-20T13:26:01.497Z</time>
      </trkpt>
      <trkpt lat="43.58678" lon="2.95755">
        <ele>454.4</ele>
        <time>2014-02-20T13:26:03.500Z</time>
      </trkpt>
      <trkpt lat="43.58676" lon="2.95758">
        <ele>454.1</ele>
        <time>2014-02-20T13:26:04.501Z</time>
      </trkpt>
      <trkpt lat="43.58672" lon="2.95766">
        <ele>454.3</ele>
        <time>2014-02-20T13:26:06.586Z</time>
      </trkpt>
      <trkpt lat="43.5867" lon="2.95771">
        <ele>454.1</ele>
        <time>2014-02-20T13:26:07.502Z</time>
      </trkpt>
      <trkpt lat="43.58666" lon="2.95778">
        <ele>454</ele>
        <time>2014-02-20T13:26:09.502Z</time>
      </trkpt>
      <trkpt lat="43.58664" lon="2.9578">
        <ele>453.9</ele>
        <time>2014-02-20T13:26:10.503Z</time>
      </trkpt>
      <trkpt lat="43.5866" lon="2.95791">
        <ele>454.3</ele>
        <time>2014-02-20T13:26:13.501Z</time>
      </trkpt>
      <trkpt lat="43.58659" lon="2.95794">
        <ele>454.2</ele>
        <time>2014-02-20T13:26:14.501Z</time>
      </trkpt>
      <trkpt lat="43.58655" lon="2.95802">
        <ele>452.4</ele>
        <time>2014-02-20T13:26:17.498Z</time>
      </trkpt>
      <trkpt lat="43.58654" lon="2.95806">
        <ele>451.3</ele>
        <time>2014-02-20T13:26:18.501Z</time>
      </trkpt>
      <trkpt lat="43.5865" lon="2.95817">
        <ele>451.1</ele>
        <time>2014-02-20T13:26:20.497Z</time>
      </trkpt>
      <trkpt lat="43.58646" lon="2.95824">
        <ele>450.7</ele>
        <time>2014-02-20T13:26:21.501Z</time>
      </trkpt>
      <trkpt lat="43.58643" lon="2.95831">
        <ele>450.8</ele>
        <time>2014-02-20T13:26:22.569Z</time>
      </trkpt>
      <trkpt lat="43.58638" lon="2.95838">
        <ele>450.8</ele>
        <time>2014-02-20T13:26:23.498Z</time>
      </trkpt>
      <trkpt lat="43.58632" lon="2.95844">
        <ele>450.6</ele>
        <time>2014-02-20T13:26:24.501Z</time>
      </trkpt>
      <trkpt lat="43.58625" lon="2.95848">
        <ele>450</ele>
        <time>2014-02-20T13:26:25.505Z</time>
      </trkpt>
      <trkpt lat="43.58611" lon="2.95859">
        <ele>449.9</ele>
        <time>2014-02-20T13:26:28.717Z</time>
      </trkpt>
      <trkpt lat="43.58604" lon="2.95865">
        <ele>450</ele>
        <time>2014-02-20T13:26:29.495Z</time>
      </trkpt>
      <trkpt lat="43.58597" lon="2.95875">
        <ele>450.2</ele>
        <time>2014-02-20T13:26:30.502Z</time>
      </trkpt>
      <trkpt lat="43.58591" lon="2.95882">
        <ele>449.9</ele>
        <time>2014-02-20T13:26:31.502Z</time>
      </trkpt>
      <trkpt lat="43.58587" lon="2.95891">
        <ele>449.7</ele>
        <time>2014-02-20T13:26:32.499Z</time>
      </trkpt>
      <trkpt lat="43.58582" lon="2.95901">
        <ele>448.9</ele>
        <time>2014-02-20T13:26:33.500Z</time>
      </trkpt>
      <trkpt lat="43.58579" lon="2.95909">
        <ele>448.5</ele>
        <time>2014-02-20T13:26:34.502Z</time>
      </trkpt>
      <trkpt lat="43.58575" lon="2.95917">
        <ele>448</ele>
        <time>2014-02-20T13:26:35.514Z</time>
      </trkpt>
      <trkpt lat="43.58571" lon="2.95923">
        <ele>448.1</ele>
        <time>2014-02-20T13:26:36.516Z</time>
      </trkpt>
      <trkpt lat="43.58566" lon="2.95928">
        <ele>447.9</ele>
        <time>2014-02-20T13:26:37.505Z</time>
      </trkpt>
      <trkpt lat="43.58562" lon="2.95933">
        <ele>448</ele>
        <time>2014-02-20T13:26:38.499Z</time>
      </trkpt>
      <trkpt lat="43.58557" lon="2.95938">
        <ele>448</ele>
        <time>2014-02-20T13:26:39.500Z</time>
      </trkpt>
      <trkpt lat="43.58552" lon="2.95943">
        <ele>447.7</ele>
        <time>2014-02-20T13:26:40.502Z</time>
      </trkpt>
      <trkpt lat="43.58547" lon="2.95948">
        <ele>448.1</ele>
        <time>2014-02-20T13:26:41.500Z</time>
      </trkpt>
      <trkpt lat="43.58541" lon="2.95951">
        <ele>447.7</ele>
        <time>2014-02-20T13:26:42.500Z</time>
      </trkpt>
      <trkpt lat="43.58535" lon="2.95952">
        <ele>447.5</ele>
        <time>2014-02-20T13:26:43.508Z</time>
      </trkpt>
      <trkpt lat="43.58528" lon="2.95953">
        <ele>448</ele>
        <time>2014-02-20T13:26:44.503Z</time>
      </trkpt>
      <trkpt lat="43.58522" lon="2.95955">
        <ele>448</ele>
        <time>2014-02-20T13:26:45.502Z</time>
      </trkpt>
      <trkpt lat="43.58517" lon="2.95956">
        <ele>447.8</ele>
        <time>2014-02-20T13:26:46.501Z</time>
      </trkpt>
      <trkpt lat="43.58511" lon="2.95957">
        <ele>447.7</ele>
        <time>2014-02-20T13:26:47.496Z</time>
      </trkpt>
      <trkpt lat="43.58504" lon="2.9596">
        <ele>447.4</ele>
        <time>2014-02-20T13:26:48.602Z</time>
      </trkpt>
      <trkpt lat="43.58498" lon="2.95962">
        <ele>447.1</ele>
        <time>2014-02-20T13:26:49.556Z</time>
      </trkpt>
      <trkpt lat="43.58491" lon="2.95963">
        <ele>447.3</ele>
        <time>2014-02-20T13:26:50.520Z</time>
      </trkpt>
      <trkpt lat="43.58485" lon="2.95965">
        <ele>447.6</ele>
        <time>2014-02-20T13:26:51.503Z</time>
      </trkpt>
      <trkpt lat="43.58478" lon="2.95965">
        <ele>447.5</ele>
        <time>2014-02-20T13:26:52.516Z</time>
      </trkpt>
      <trkpt lat="43.58471" lon="2.95963">
        <ele>447.2</ele>
        <time>2014-02-20T13:26:53.526Z</time>
      </trkpt>
      <trkpt lat="43.58465" lon="2.95963">
        <ele>447.1</ele>
        <time>2014-02-20T13:26:54.518Z</time>
      </trkpt>
      <trkpt lat="43.58459" lon="2.95961">
        <ele>447.1</ele>
        <time>2014-02-20T13:26:55.542Z</time>
      </trkpt>
      <trkpt lat="43.58454" lon="2.95962">
        <ele>446.6</ele>
        <time>2014-02-20T13:26:56.500Z</time>
      </trkpt>
      <trkpt lat="43.58449" lon="2.95962">
        <ele>446.6</ele>
        <time>2014-02-20T13:26:57.488Z</time>
      </trkpt>
      <trkpt lat="43.58443" lon="2.95967">
        <ele>446.3</ele>
        <time>2014-02-20T13:26:58.502Z</time>
      </trkpt>
      <trkpt lat="43.58439" lon="2.95972">
        <ele>446.3</ele>
        <time>2014-02-20T13:26:59.500Z</time>
      </trkpt>
      <trkpt lat="43.58435" lon="2.95979">
        <ele>446.1</ele>
        <time>2014-02-20T13:27:00.499Z</time>
      </trkpt>
      <trkpt lat="43.58432" lon="2.95989">
        <ele>446.2</ele>
        <time>2014-02-20T13:27:01.502Z</time>
      </trkpt>
      <trkpt lat="43.5843" lon="2.95999">
        <ele>446.3</ele>
        <time>2014-02-20T13:27:02.498Z</time>
      </trkpt>
      <trkpt lat="43.5843" lon="2.96009">
        <ele>446.3</ele>
        <time>2014-02-20T13:27:03.501Z</time>
      </trkpt>
      <trkpt lat="43.58429" lon="2.96018">
        <ele>446.2</ele>
        <time>2014-02-20T13:27:04.496Z</time>
      </trkpt>
      <trkpt lat="43.58428" lon="2.96027">
        <ele>446</ele>
        <time>2014-02-20T13:27:05.537Z</time>
      </trkpt>
      <trkpt lat="43.58427" lon="2.96036">
        <ele>445.9</ele>
        <time>2014-02-20T13:27:06.544Z</time>
      </trkpt>
      <trkpt lat="43.58425" lon="2.96055">
        <ele>445.3</ele>
        <time>2014-02-20T13:27:09.738Z</time>
      </trkpt>
      <trkpt lat="43.58423" lon="2.96066">
        <ele>445.2</ele>
        <time>2014-02-20T13:27:11.053Z</time>
      </trkpt>
      <trkpt lat="43.58422" lon="2.96072">
        <ele>445.1</ele>
        <time>2014-02-20T13:27:11.546Z</time>
      </trkpt>
      <trkpt lat="43.5842" lon="2.96083">
        <ele>444.4</ele>
        <time>2014-02-20T13:27:12.671Z</time>
      </trkpt>
      <trkpt lat="43.5842" lon="2.96092">
        <ele>444.4</ele>
        <time>2014-02-20T13:27:13.503Z</time>
      </trkpt>
      <trkpt lat="43.58418" lon="2.96105">
        <ele>444.4</ele>
        <time>2014-02-20T13:27:14.528Z</time>
      </trkpt>
      <trkpt lat="43.58417" lon="2.96118">
        <ele>444.7</ele>
        <time>2014-02-20T13:27:15.503Z</time>
      </trkpt>
      <trkpt lat="43.58415" lon="2.9613">
        <ele>444.5</ele>
        <time>2014-02-20T13:27:16.564Z</time>
      </trkpt>
      <trkpt lat="43.58413" lon="2.96141">
        <ele>444.4</ele>
        <time>2014-02-20T13:27:17.502Z</time>
      </trkpt>
      <trkpt lat="43.58411" lon="2.9615">
        <ele>443.6</ele>
        <time>2014-02-20T13:27:18.508Z</time>
      </trkpt>
      <trkpt lat="43.58409" lon="2.96159">
        <ele>443.6</ele>
        <time>2014-02-20T13:27:19.504Z</time>
      </trkpt>
      <trkpt lat="43.58408" lon="2.96168">
        <ele>443.1</ele>
        <time>2014-02-20T13:27:20.507Z</time>
      </trkpt>
      <trkpt lat="43.58407" lon="2.96177">
        <ele>442.9</ele>
        <time>2014-02-20T13:27:21.576Z</time>
      </trkpt>
      <trkpt lat="43.58408" lon="2.96183">
        <ele>442.8</ele>
        <time>2014-02-20T13:27:22.503Z</time>
      </trkpt>
      <trkpt lat="43.58409" lon="2.96192">
        <ele>443</ele>
        <time>2014-02-20T13:27:23.500Z</time>
      </trkpt>
      <trkpt lat="43.58409" lon="2.96202">
        <ele>443</ele>
        <time>2014-02-20T13:27:24.501Z</time>
      </trkpt>
      <trkpt lat="43.58407" lon="2.9621">
        <ele>443.1</ele>
        <time>2014-02-20T13:27:25.524Z</time>
      </trkpt>
      <trkpt lat="43.58406" lon="2.96222">
        <ele>442.7</ele>
        <time>2014-02-20T13:27:27.499Z</time>
      </trkpt>
      <trkpt lat="43.58403" lon="2.96229">
        <ele>442.3</ele>
        <time>2014-02-20T13:27:28.504Z</time>
      </trkpt>
      <trkpt lat="43.58401" lon="2.96236">
        <ele>441.7</ele>
        <time>2014-02-20T13:27:29.501Z</time>
      </trkpt>
      <trkpt lat="43.58397" lon="2.96243">
        <ele>441.3</ele>
        <time>2014-02-20T13:27:30.503Z</time>
      </trkpt>
      <trkpt lat="43.58393" lon="2.9625">
        <ele>441.5</ele>
        <time>2014-02-20T13:27:31.501Z</time>
      </trkpt>
      <trkpt lat="43.58388" lon="2.9626">
        <ele>440.9</ele>
        <time>2014-02-20T13:27:32.496Z</time>
      </trkpt>
      <trkpt lat="43.58384" lon="2.96267">
        <ele>441.5</ele>
        <time>2014-02-20T13:27:33.494Z</time>
      </trkpt>
      <trkpt lat="43.5838" lon="2.96274">
        <ele>441.7</ele>
        <time>2014-02-20T13:27:34.504Z</time>
      </trkpt>
      <trkpt lat="43.58376" lon="2.96281">
        <ele>440.8</ele>
        <time>2014-02-20T13:27:35.497Z</time>
      </trkpt>
      <trkpt lat="43.58371" lon="2.96289">
        <ele>440.9</ele>
        <time>2014-02-20T13:27:36.532Z</time>
      </trkpt>
      <trkpt lat="43.58367" lon="2.96296">
        <ele>441.2</ele>
        <time>2014-02-20T13:27:37.509Z</time>
      </trkpt>
      <trkpt lat="43.58364" lon="2.96305">
        <ele>441.2</ele>
        <time>2014-02-20T13:27:38.518Z</time>
      </trkpt>
      <trkpt lat="43.58362" lon="2.96314">
        <ele>439</ele>
        <time>2014-02-20T13:27:39.507Z</time>
      </trkpt>
      <trkpt lat="43.5836" lon="2.96321">
        <ele>437.6</ele>
        <time>2014-02-20T13:27:40.507Z</time>
      </trkpt>
      <trkpt lat="43.58356" lon="2.96328">
        <ele>424</ele>
        <time>2014-02-20T13:27:41.506Z</time>
      </trkpt>
      <trkpt lat="43.58351" lon="2.96336">
        <ele>406.2</ele>
        <time>2014-02-20T13:27:42.508Z</time>
      </trkpt>
      <trkpt lat="43.58346" lon="2.96343">
        <ele>401</ele>
        <time>2014-02-20T13:27:43.517Z</time>
      </trkpt>
      <trkpt lat="43.5834" lon="2.9635">
        <ele>394.5</ele>
        <time>2014-02-20T13:27:44.506Z</time>
      </trkpt>
      <trkpt lat="43.58335" lon="2.96356">
        <ele>394.5</ele>
        <time>2014-02-20T13:27:45.513Z</time>
      </trkpt>
      <trkpt lat="43.58332" lon="2.96362">
        <ele>391.9</ele>
        <time>2014-02-20T13:27:46.512Z</time>
      </trkpt>
      <trkpt lat="43.58328" lon="2.96366">
        <ele>391.8</ele>
        <time>2014-02-20T13:27:47.508Z</time>
      </trkpt>
      <trkpt lat="43.58324" lon="2.96371">
        <ele>387.9</ele>
        <time>2014-02-20T13:27:48.509Z</time>
      </trkpt>
      <trkpt lat="43.58317" lon="2.96377">
        <ele>384.8</ele>
        <time>2014-02-20T13:27:50.507Z</time>
      </trkpt>
      <trkpt lat="43.58314" lon="2.9638">
        <ele>384.7</ele>
        <time>2014-02-20T13:27:51.504Z</time>
      </trkpt>
      <trkpt lat="43.58311" lon="2.96382">
        <ele>383.9</ele>
        <time>2014-02-20T13:27:52.510Z</time>
      </trkpt>
      <trkpt lat="43.58303" lon="2.96391">
        <ele>381.6</ele>
        <time>2014-02-20T13:27:55.834Z</time>
      </trkpt>
      <trkpt lat="43.58301" lon="2.964">
        <ele>378.3</ele>
        <time>2014-02-20T13:27:57.500Z</time>
      </trkpt>
      <trkpt lat="43.58301" lon="2.96406">
        <ele>378.3</ele>
        <time>2014-02-20T13:27:58.502Z</time>
      </trkpt>
      <trkpt lat="43.58301" lon="2.96418">
        <ele>380.2</ele>
        <time>2014-02-20T13:28:00.501Z</time>
      </trkpt>
      <trkpt lat="43.58299" lon="2.96424">
        <ele>381.1</ele>
        <time>2014-02-20T13:28:01.505Z</time>
      </trkpt>
      <trkpt lat="43.58298" lon="2.9643">
        <ele>381.6</ele>
        <time>2014-02-20T13:28:02.499Z</time>
      </trkpt>
      <trkpt lat="43.58296" lon="2.96436">
        <ele>382.8</ele>
        <time>2014-02-20T13:28:03.500Z</time>
      </trkpt>
      <trkpt lat="43.58294" lon="2.96445">
        <ele>382.2</ele>
        <time>2014-02-20T13:28:05.500Z</time>
      </trkpt>
      <trkpt lat="43.58293" lon="2.96449">
        <ele>382.1</ele>
        <time>2014-02-20T13:28:06.542Z</time>
      </trkpt>
      <trkpt lat="43.5829" lon="2.96457">
        <ele>382.4</ele>
        <time>2014-02-20T13:28:08.499Z</time>
      </trkpt>
      <trkpt lat="43.58288" lon="2.96461">
        <ele>382.8</ele>
        <time>2014-02-20T13:28:09.502Z</time>
      </trkpt>
      <trkpt lat="43.58281" lon="2.96462">
        <ele>383.4</ele>
        <time>2014-02-20T13:28:11.521Z</time>
      </trkpt>
      <trkpt lat="43.58278" lon="2.96462">
        <ele>383.7</ele>
        <time>2014-02-20T13:28:12.498Z</time>
      </trkpt>
      <trkpt lat="43.5827" lon="2.96461">
        <ele>383.4</ele>
        <time>2014-02-20T13:28:14.503Z</time>
      </trkpt>
      <trkpt lat="43.58266" lon="2.96461">
        <ele>383.2</ele>
        <time>2014-02-20T13:28:15.502Z</time>
      </trkpt>
      <trkpt lat="43.58258" lon="2.96461">
        <ele>383.4</ele>
        <time>2014-02-20T13:28:17.500Z</time>
      </trkpt>
      <trkpt lat="43.58254" lon="2.96461">
        <ele>383.3</ele>
        <time>2014-02-20T13:28:18.499Z</time>
      </trkpt>
      <trkpt lat="43.58248" lon="2.96461">
        <ele>383.6</ele>
        <time>2014-02-20T13:28:19.505Z</time>
      </trkpt>
      <trkpt lat="43.58242" lon="2.96461">
        <ele>383.7</ele>
        <time>2014-02-20T13:28:20.522Z</time>
      </trkpt>
      <trkpt lat="43.58236" lon="2.96462">
        <ele>384</ele>
        <time>2014-02-20T13:28:21.499Z</time>
      </trkpt>
      <trkpt lat="43.58229" lon="2.96463">
        <ele>384.1</ele>
        <time>2014-02-20T13:28:22.501Z</time>
      </trkpt>
      <trkpt lat="43.58224" lon="2.96465">
        <ele>384</ele>
        <time>2014-02-20T13:28:23.536Z</time>
      </trkpt>
      <trkpt lat="43.58217" lon="2.96464">
        <ele>384</ele>
        <time>2014-02-20T13:28:24.501Z</time>
      </trkpt>
      <trkpt lat="43.58211" lon="2.96464">
        <ele>383.6</ele>
        <time>2014-02-20T13:28:25.499Z</time>
      </trkpt>
      <trkpt lat="43.58204" lon="2.96463">
        <ele>383.8</ele>
        <time>2014-02-20T13:28:26.500Z</time>
      </trkpt>
      <trkpt lat="43.58197" lon="2.96461">
        <ele>383</ele>
        <time>2014-02-20T13:28:27.500Z</time>
      </trkpt>
      <trkpt lat="43.58182" lon="2.96459">
        <ele>383</ele>
        <time>2014-02-20T13:28:31.354Z</time>
      </trkpt>
      <trkpt lat="43.58174" lon="2.96457">
        <ele>383.3</ele>
        <time>2014-02-20T13:28:32.504Z</time>
      </trkpt>
      <trkpt lat="43.58168" lon="2.96457">
        <ele>383.2</ele>
        <time>2014-02-20T13:28:33.546Z</time>
      </trkpt>
      <trkpt lat="43.58163" lon="2.96457">
        <ele>383</ele>
        <time>2014-02-20T13:28:34.506Z</time>
      </trkpt>
      <trkpt lat="43.58157" lon="2.96458">
        <ele>382.8</ele>
        <time>2014-02-20T13:28:35.504Z</time>
      </trkpt>
      <trkpt lat="43.58152" lon="2.96459">
        <ele>382.9</ele>
        <time>2014-02-20T13:28:36.507Z</time>
      </trkpt>
      <trkpt lat="43.58148" lon="2.9646">
        <ele>382.6</ele>
        <time>2014-02-20T13:28:37.504Z</time>
      </trkpt>
      <trkpt lat="43.58143" lon="2.96462">
        <ele>382.9</ele>
        <time>2014-02-20T13:28:38.500Z</time>
      </trkpt>
      <trkpt lat="43.58139" lon="2.96464">
        <ele>382.9</ele>
        <time>2014-02-20T13:28:39.504Z</time>
      </trkpt>
      <trkpt lat="43.58135" lon="2.96468">
        <ele>383</ele>
        <time>2014-02-20T13:28:40.504Z</time>
      </trkpt>
      <trkpt lat="43.58131" lon="2.96473">
        <ele>383.6</ele>
        <time>2014-02-20T13:28:41.502Z</time>
      </trkpt>
      <trkpt lat="43.58126" lon="2.96478">
        <ele>383.2</ele>
        <time>2014-02-20T13:28:42.505Z</time>
      </trkpt>
      <trkpt lat="43.58122" lon="2.96483">
        <ele>382.9</ele>
        <time>2014-02-20T13:28:43.506Z</time>
      </trkpt>
      <trkpt lat="43.58117" lon="2.96488">
        <ele>382.7</ele>
        <time>2014-02-20T13:28:44.503Z</time>
      </trkpt>
      <trkpt lat="43.58106" lon="2.96491">
        <ele>379.8</ele>
        <time>2014-02-20T13:28:45.507Z</time>
      </trkpt>
      <trkpt lat="43.58097" lon="2.96495">
        <ele>380.2</ele>
        <time>2014-02-20T13:28:46.507Z</time>
      </trkpt>
      <trkpt lat="43.5809" lon="2.96499">
        <ele>380.5</ele>
        <time>2014-02-20T13:28:47.505Z</time>
      </trkpt>
      <trkpt lat="43.58082" lon="2.96501">
        <ele>380.2</ele>
        <time>2014-02-20T13:28:48.509Z</time>
      </trkpt>
      <trkpt lat="43.58075" lon="2.96501">
        <ele>379.8</ele>
        <time>2014-02-20T13:28:49.508Z</time>
      </trkpt>
      <trkpt lat="43.58069" lon="2.965">
        <ele>379.1</ele>
        <time>2014-02-20T13:28:50.506Z</time>
      </trkpt>
      <trkpt lat="43.58062" lon="2.96496">
        <ele>378.5</ele>
        <time>2014-02-20T13:28:51.505Z</time>
      </trkpt>
      <trkpt lat="43.58057" lon="2.96491">
        <ele>377.3</ele>
        <time>2014-02-20T13:28:52.505Z</time>
      </trkpt>
      <trkpt lat="43.58052" lon="2.96485">
        <ele>375.6</ele>
        <time>2014-02-20T13:28:53.503Z</time>
      </trkpt>
      <trkpt lat="43.58047" lon="2.96481">
        <ele>374.9</ele>
        <time>2014-02-20T13:28:54.507Z</time>
      </trkpt>
      <trkpt lat="43.58043" lon="2.96476">
        <ele>375.6</ele>
        <time>2014-02-20T13:28:55.506Z</time>
      </trkpt>
      <trkpt lat="43.58037" lon="2.96471">
        <ele>375.5</ele>
        <time>2014-02-20T13:28:56.502Z</time>
      </trkpt>
      <trkpt lat="43.58032" lon="2.96466">
        <ele>375.6</ele>
        <time>2014-02-20T13:28:57.504Z</time>
      </trkpt>
      <trkpt lat="43.58027" lon="2.96461">
        <ele>375.1</ele>
        <time>2014-02-20T13:28:58.507Z</time>
      </trkpt>
      <trkpt lat="43.58021" lon="2.96455">
        <ele>374.2</ele>
        <time>2014-02-20T13:28:59.506Z</time>
      </trkpt>
      <trkpt lat="43.58016" lon="2.9645">
        <ele>372.7</ele>
        <time>2014-02-20T13:29:00.520Z</time>
      </trkpt>
      <trkpt lat="43.5801" lon="2.96445">
        <ele>371.4</ele>
        <time>2014-02-20T13:29:01.504Z</time>
      </trkpt>
      <trkpt lat="43.58005" lon="2.9644">
        <ele>370.6</ele>
        <time>2014-02-20T13:29:02.503Z</time>
      </trkpt>
      <trkpt lat="43.57998" lon="2.96436">
        <ele>369.8</ele>
        <time>2014-02-20T13:29:03.505Z</time>
      </trkpt>
      <trkpt lat="43.57992" lon="2.96433">
        <ele>369.1</ele>
        <time>2014-02-20T13:29:04.514Z</time>
      </trkpt>
      <trkpt lat="43.57986" lon="2.96431">
        <ele>368.4</ele>
        <time>2014-02-20T13:29:05.506Z</time>
      </trkpt>
      <trkpt lat="43.5798" lon="2.96429">
        <ele>368</ele>
        <time>2014-02-20T13:29:06.597Z</time>
      </trkpt>
      <trkpt lat="43.57975" lon="2.96427">
        <ele>368</ele>
        <time>2014-02-20T13:29:07.506Z</time>
      </trkpt>
      <trkpt lat="43.57969" lon="2.96427">
        <ele>367.8</ele>
        <time>2014-02-20T13:29:08.505Z</time>
      </trkpt>
      <trkpt lat="43.57963" lon="2.96425">
        <ele>368</ele>
        <time>2014-02-20T13:29:09.508Z</time>
      </trkpt>
      <trkpt lat="43.57958" lon="2.96424">
        <ele>368</ele>
        <time>2014-02-20T13:29:10.510Z</time>
      </trkpt>
      <trkpt lat="43.57953" lon="2.96423">
        <ele>367.8</ele>
        <time>2014-02-20T13:29:11.545Z</time>
      </trkpt>
      <trkpt lat="43.57948" lon="2.96423">
        <ele>368.1</ele>
        <time>2014-02-20T13:29:12.503Z</time>
      </trkpt>
      <trkpt lat="43.57944" lon="2.96423">
        <ele>362.8</ele>
        <time>2014-02-20T13:29:13.504Z</time>
      </trkpt>
      <trkpt lat="43.57939" lon="2.96428">
        <ele>358.9</ele>
        <time>2014-02-20T13:29:14.506Z</time>
      </trkpt>
      <trkpt lat="43.57935" lon="2.96433">
        <ele>359</ele>
        <time>2014-02-20T13:29:15.506Z</time>
      </trkpt>
      <trkpt lat="43.57931" lon="2.9644">
        <ele>358.8</ele>
        <time>2014-02-20T13:29:16.736Z</time>
      </trkpt>
      <trkpt lat="43.5793" lon="2.96448">
        <ele>357.9</ele>
        <time>2014-02-20T13:29:17.539Z</time>
      </trkpt>
      <trkpt lat="43.57927" lon="2.9646">
        <ele>355.3</ele>
        <time>2014-02-20T13:29:18.509Z</time>
      </trkpt>
      <trkpt lat="43.57924" lon="2.96473">
        <ele>349.6</ele>
        <time>2014-02-20T13:29:19.513Z</time>
      </trkpt>
      <trkpt lat="43.5792" lon="2.96482">
        <ele>349.6</ele>
        <time>2014-02-20T13:29:20.512Z</time>
      </trkpt>
      <trkpt lat="43.57911" lon="2.96495">
        <ele>341.1</ele>
        <time>2014-02-20T13:29:22.500Z</time>
      </trkpt>
      <trkpt lat="43.57906" lon="2.96502">
        <ele>338.8</ele>
        <time>2014-02-20T13:29:23.506Z</time>
      </trkpt>
      <trkpt lat="43.57901" lon="2.96508">
        <ele>338.2</ele>
        <time>2014-02-20T13:29:24.507Z</time>
      </trkpt>
      <trkpt lat="43.57898" lon="2.96515">
        <ele>337.1</ele>
        <time>2014-02-20T13:29:25.532Z</time>
      </trkpt>
      <trkpt lat="43.57894" lon="2.96523">
        <ele>336.1</ele>
        <time>2014-02-20T13:29:26.506Z</time>
      </trkpt>
      <trkpt lat="43.57891" lon="2.96531">
        <ele>335.9</ele>
        <time>2014-02-20T13:29:27.503Z</time>
      </trkpt>
      <trkpt lat="43.57888" lon="2.9654">
        <ele>336.6</ele>
        <time>2014-02-20T13:29:28.507Z</time>
      </trkpt>
      <trkpt lat="43.57886" lon="2.96549">
        <ele>335.3</ele>
        <time>2014-02-20T13:29:29.504Z</time>
      </trkpt>
      <trkpt lat="43.57882" lon="2.96558">
        <ele>330.5</ele>
        <time>2014-02-20T13:29:30.507Z</time>
      </trkpt>
      <trkpt lat="43.57878" lon="2.96566">
        <ele>328.7</ele>
        <time>2014-02-20T13:29:31.507Z</time>
      </trkpt>
      <trkpt lat="43.57873" lon="2.96573">
        <ele>328.8</ele>
        <time>2014-02-20T13:29:32.503Z</time>
      </trkpt>
      <trkpt lat="43.57869" lon="2.96578">
        <ele>328.4</ele>
        <time>2014-02-20T13:29:33.526Z</time>
      </trkpt>
      <trkpt lat="43.57865" lon="2.96583">
        <ele>328.8</ele>
        <time>2014-02-20T13:29:34.509Z</time>
      </trkpt>
      <trkpt lat="43.5786" lon="2.96587">
        <ele>329.1</ele>
        <time>2014-02-20T13:29:35.502Z</time>
      </trkpt>
      <trkpt lat="43.57856" lon="2.96591">
        <ele>328.9</ele>
        <time>2014-02-20T13:29:36.522Z</time>
      </trkpt>
      <trkpt lat="43.57852" lon="2.96595">
        <ele>329.5</ele>
        <time>2014-02-20T13:29:37.508Z</time>
      </trkpt>
      <trkpt lat="43.57848" lon="2.96598">
        <ele>329.4</ele>
        <time>2014-02-20T13:29:38.501Z</time>
      </trkpt>
      <trkpt lat="43.57844" lon="2.96601">
        <ele>329.3</ele>
        <time>2014-02-20T13:29:39.503Z</time>
      </trkpt>
      <trkpt lat="43.5784" lon="2.96603">
        <ele>329.2</ele>
        <time>2014-02-20T13:29:40.500Z</time>
      </trkpt>
      <trkpt lat="43.57836" lon="2.96606">
        <ele>329.2</ele>
        <time>2014-02-20T13:29:41.494Z</time>
      </trkpt>
      <trkpt lat="43.57831" lon="2.96608">
        <ele>329.2</ele>
        <time>2014-02-20T13:29:42.499Z</time>
      </trkpt>
      <trkpt lat="43.57825" lon="2.96609">
        <ele>328.3</ele>
        <time>2014-02-20T13:29:43.502Z</time>
      </trkpt>
      <trkpt lat="43.57819" lon="2.96611">
        <ele>328.3</ele>
        <time>2014-02-20T13:29:44.496Z</time>
      </trkpt>
      <trkpt lat="43.57811" lon="2.9661">
        <ele>325.9</ele>
        <time>2014-02-20T13:29:45.498Z</time>
      </trkpt>
      <trkpt lat="43.57804" lon="2.9661">
        <ele>324.4</ele>
        <time>2014-02-20T13:29:46.500Z</time>
      </trkpt>
      <trkpt lat="43.57796" lon="2.9661">
        <ele>324.2</ele>
        <time>2014-02-20T13:29:47.496Z</time>
      </trkpt>
      <trkpt lat="43.57788" lon="2.9661">
        <ele>324.5</ele>
        <time>2014-02-20T13:29:48.502Z</time>
      </trkpt>
      <trkpt lat="43.57781" lon="2.96611">
        <ele>324.5</ele>
        <time>2014-02-20T13:29:49.522Z</time>
      </trkpt>
      <trkpt lat="43.57774" lon="2.96612">
        <ele>324.4</ele>
        <time>2014-02-20T13:29:50.495Z</time>
      </trkpt>
      <trkpt lat="43.57767" lon="2.96612">
        <ele>324.1</ele>
        <time>2014-02-20T13:29:51.497Z</time>
      </trkpt>
      <trkpt lat="43.57761" lon="2.96613">
        <ele>324.2</ele>
        <time>2014-02-20T13:29:52.499Z</time>
      </trkpt>
      <trkpt lat="43.57754" lon="2.96613">
        <ele>324.6</ele>
        <time>2014-02-20T13:29:53.496Z</time>
      </trkpt>
      <trkpt lat="43.57749" lon="2.96609">
        <ele>324.6</ele>
        <time>2014-02-20T13:29:54.498Z</time>
      </trkpt>
      <trkpt lat="43.57746" lon="2.96604">
        <ele>324.4</ele>
        <time>2014-02-20T13:29:55.504Z</time>
      </trkpt>
      <trkpt lat="43.57744" lon="2.96599">
        <ele>324.2</ele>
        <time>2014-02-20T13:29:56.495Z</time>
      </trkpt>
      <trkpt lat="43.5774" lon="2.96588">
        <ele>324</ele>
        <time>2014-02-20T13:29:58.499Z</time>
      </trkpt>
      <trkpt lat="43.57738" lon="2.96585">
        <ele>323.9</ele>
        <time>2014-02-20T13:29:59.497Z</time>
      </trkpt>
      <trkpt lat="43.57737" lon="2.9658">
        <ele>323.7</ele>
        <time>2014-02-20T13:30:00.501Z</time>
      </trkpt>
      <trkpt lat="43.57738" lon="2.96571">
        <ele>323.3</ele>
        <time>2014-02-20T13:30:01.502Z</time>
      </trkpt>
      <trkpt lat="43.57738" lon="2.96564">
        <ele>323.2</ele>
        <time>2014-02-20T13:30:02.499Z</time>
      </trkpt>
      <trkpt lat="43.57738" lon="2.96559">
        <ele>322.8</ele>
        <time>2014-02-20T13:30:03.499Z</time>
      </trkpt>
      <trkpt lat="43.57733" lon="2.96552">
        <ele>308.9</ele>
        <time>2014-02-20T13:30:05.496Z</time>
      </trkpt>
      <trkpt lat="43.57728" lon="2.96549">
        <ele>305.8</ele>
        <time>2014-02-20T13:30:06.560Z</time>
      </trkpt>
      <trkpt lat="43.57722" lon="2.96545">
        <ele>305.7</ele>
        <time>2014-02-20T13:30:07.500Z</time>
      </trkpt>
      <trkpt lat="43.57715" lon="2.96543">
        <ele>299.5</ele>
        <time>2014-02-20T13:30:08.495Z</time>
      </trkpt>
      <trkpt lat="43.57707" lon="2.96546">
        <ele>295.5</ele>
        <time>2014-02-20T13:30:09.500Z</time>
      </trkpt>
      <trkpt lat="43.57699" lon="2.96549">
        <ele>294.8</ele>
        <time>2014-02-20T13:30:10.536Z</time>
      </trkpt>
      <trkpt lat="43.57692" lon="2.96553">
        <ele>295.4</ele>
        <time>2014-02-20T13:30:11.539Z</time>
      </trkpt>
      <trkpt lat="43.57686" lon="2.96554">
        <ele>293.2</ele>
        <time>2014-02-20T13:30:12.496Z</time>
      </trkpt>
      <trkpt lat="43.57681" lon="2.96556">
        <ele>293.2</ele>
        <time>2014-02-20T13:30:13.495Z</time>
      </trkpt>
      <trkpt lat="43.57676" lon="2.96558">
        <ele>292.8</ele>
        <time>2014-02-20T13:30:14.496Z</time>
      </trkpt>
      <trkpt lat="43.57671" lon="2.9656">
        <ele>292.7</ele>
        <time>2014-02-20T13:30:15.503Z</time>
      </trkpt>
      <trkpt lat="43.57667" lon="2.96564">
        <ele>292.3</ele>
        <time>2014-02-20T13:30:16.561Z</time>
      </trkpt>
      <trkpt lat="43.57663" lon="2.96566">
        <ele>291.9</ele>
        <time>2014-02-20T13:30:17.502Z</time>
      </trkpt>
      <trkpt lat="43.57658" lon="2.96569">
        <ele>291.9</ele>
        <time>2014-02-20T13:30:18.594Z</time>
      </trkpt>
      <trkpt lat="43.57652" lon="2.9657">
        <ele>291.8</ele>
        <time>2014-02-20T13:30:19.505Z</time>
      </trkpt>
      <trkpt lat="43.57646" lon="2.96571">
        <ele>291.4</ele>
        <time>2014-02-20T13:30:20.502Z</time>
      </trkpt>
      <trkpt lat="43.57639" lon="2.96573">
        <ele>290.7</ele>
        <time>2014-02-20T13:30:21.502Z</time>
      </trkpt>
      <trkpt lat="43.57631" lon="2.96575">
        <ele>290.5</ele>
        <time>2014-02-20T13:30:22.504Z</time>
      </trkpt>
      <trkpt lat="43.57624" lon="2.96579">
        <ele>290</ele>
        <time>2014-02-20T13:30:23.500Z</time>
      </trkpt>
      <trkpt lat="43.57616" lon="2.96583">
        <ele>290.3</ele>
        <time>2014-02-20T13:30:24.504Z</time>
      </trkpt>
      <trkpt lat="43.57609" lon="2.96588">
        <ele>290</ele>
        <time>2014-02-20T13:30:25.502Z</time>
      </trkpt>
      <trkpt lat="43.57601" lon="2.96594">
        <ele>289.6</ele>
        <time>2014-02-20T13:30:26.501Z</time>
      </trkpt>
      <trkpt lat="43.57593" lon="2.96601">
        <ele>289.5</ele>
        <time>2014-02-20T13:30:27.505Z</time>
      </trkpt>
      <trkpt lat="43.57585" lon="2.96609">
        <ele>287.7</ele>
        <time>2014-02-20T13:30:28.501Z</time>
      </trkpt>
      <trkpt lat="43.57577" lon="2.96616">
        <ele>287.5</ele>
        <time>2014-02-20T13:30:29.500Z</time>
      </trkpt>
      <trkpt lat="43.57569" lon="2.96622">
        <ele>287.4</ele>
        <time>2014-02-20T13:30:30.492Z</time>
      </trkpt>
      <trkpt lat="43.57561" lon="2.9663">
        <ele>286.4</ele>
        <time>2014-02-20T13:30:31.499Z</time>
      </trkpt>
      <trkpt lat="43.57553" lon="2.96638">
        <ele>286.1</ele>
        <time>2014-02-20T13:30:32.497Z</time>
      </trkpt>
      <trkpt lat="43.57545" lon="2.96643">
        <ele>285.8</ele>
        <time>2014-02-20T13:30:33.496Z</time>
      </trkpt>
      <trkpt lat="43.57538" lon="2.96647">
        <ele>285.7</ele>
        <time>2014-02-20T13:30:34.499Z</time>
      </trkpt>
      <trkpt lat="43.5753" lon="2.96651">
        <ele>285.6</ele>
        <time>2014-02-20T13:30:35.497Z</time>
      </trkpt>
      <trkpt lat="43.57523" lon="2.96653">
        <ele>283.6</ele>
        <time>2014-02-20T13:30:36.499Z</time>
      </trkpt>
      <trkpt lat="43.57517" lon="2.96654">
        <ele>283.3</ele>
        <time>2014-02-20T13:30:37.504Z</time>
      </trkpt>
      <trkpt lat="43.57512" lon="2.96655">
        <ele>282.9</ele>
        <time>2014-02-20T13:30:38.500Z</time>
      </trkpt>
      <trkpt lat="43.57504" lon="2.96658">
        <ele>283.1</ele>
        <time>2014-02-20T13:30:40.500Z</time>
      </trkpt>
      <trkpt lat="43.57501" lon="2.96657">
        <ele>282.6</ele>
        <time>2014-02-20T13:30:41.496Z</time>
      </trkpt>
      <trkpt lat="43.57493" lon="2.96654">
        <ele>281.2</ele>
        <time>2014-02-20T13:30:44.497Z</time>
      </trkpt>
      <trkpt lat="43.5749" lon="2.96653">
        <ele>280.3</ele>
        <time>2014-02-20T13:30:45.500Z</time>
      </trkpt>
      <trkpt lat="43.57484" lon="2.96654">
        <ele>277.2</ele>
        <time>2014-02-20T13:30:47.497Z</time>
      </trkpt>
      <trkpt lat="43.57481" lon="2.96654">
        <ele>276.3</ele>
        <time>2014-02-20T13:30:48.499Z</time>
      </trkpt>
      <trkpt lat="43.57475" lon="2.96654">
        <ele>275.3</ele>
        <time>2014-02-20T13:30:50.496Z</time>
      </trkpt>
      <trkpt lat="43.57472" lon="2.96656">
        <ele>274.8</ele>
        <time>2014-02-20T13:30:51.498Z</time>
      </trkpt>
      <trkpt lat="43.57464" lon="2.96663">
        <ele>273.1</ele>
        <time>2014-02-20T13:30:53.493Z</time>
      </trkpt>
      <trkpt lat="43.5746" lon="2.96665">
        <ele>272.8</ele>
        <time>2014-02-20T13:30:54.494Z</time>
      </trkpt>
      <trkpt lat="43.57454" lon="2.96671">
        <ele>272.6</ele>
        <time>2014-02-20T13:30:56.493Z</time>
      </trkpt>
      <trkpt lat="43.57451" lon="2.96673">
        <ele>272.2</ele>
        <time>2014-02-20T13:30:57.495Z</time>
      </trkpt>
      <trkpt lat="43.57444" lon="2.96678">
        <ele>272.6</ele>
        <time>2014-02-20T13:30:59.493Z</time>
      </trkpt>
      <trkpt lat="43.57441" lon="2.96681">
        <ele>272.7</ele>
        <time>2014-02-20T13:31:00.497Z</time>
      </trkpt>
      <trkpt lat="43.57434" lon="2.96686">
        <ele>272.6</ele>
        <time>2014-02-20T13:31:02.496Z</time>
      </trkpt>
      <trkpt lat="43.57433" lon="2.96689">
        <ele>272.4</ele>
        <time>2014-02-20T13:31:03.499Z</time>
      </trkpt>
      <trkpt lat="43.57441" lon="2.96686">
        <ele>269.6</ele>
        <time>2014-02-20T13:31:21.498Z</time>
      </trkpt>
      <trkpt lat="43.57442" lon="2.96685">
        <ele>269.2</ele>
        <time>2014-02-20T13:31:22.502Z</time>
      </trkpt>
      <trkpt lat="43.57434" lon="2.9669">
        <ele>261.3</ele>
        <time>2014-02-20T13:31:37.500Z</time>
      </trkpt>
      <trkpt lat="43.5743" lon="2.96693">
        <ele>260.2</ele>
        <time>2014-02-20T13:31:38.496Z</time>
      </trkpt>
      <trkpt lat="43.57423" lon="2.96698">
        <ele>261.2</ele>
        <time>2014-02-20T13:31:41.494Z</time>
      </trkpt>
      <trkpt lat="43.57419" lon="2.967">
        <ele>261.3</ele>
        <time>2014-02-20T13:31:42.499Z</time>
      </trkpt>
      <trkpt lat="43.57412" lon="2.96702">
        <ele>261.2</ele>
        <time>2014-02-20T13:31:44.496Z</time>
      </trkpt>
      <trkpt lat="43.57408" lon="2.96703">
        <ele>261</ele>
        <time>2014-02-20T13:31:45.498Z</time>
      </trkpt>
      <trkpt lat="43.574" lon="2.96705">
        <ele>260.1</ele>
        <time>2014-02-20T13:31:47.496Z</time>
      </trkpt>
      <trkpt lat="43.57394" lon="2.96706">
        <ele>259.9</ele>
        <time>2014-02-20T13:31:48.498Z</time>
      </trkpt>
      <trkpt lat="43.57387" lon="2.96709">
        <ele>259.6</ele>
        <time>2014-02-20T13:31:49.536Z</time>
      </trkpt>
      <trkpt lat="43.57378" lon="2.96711">
        <ele>258.7</ele>
        <time>2014-02-20T13:31:50.496Z</time>
      </trkpt>
      <trkpt lat="43.5737" lon="2.96713">
        <ele>258</ele>
        <time>2014-02-20T13:31:51.495Z</time>
      </trkpt>
      <trkpt lat="43.57363" lon="2.96714">
        <ele>257.8</ele>
        <time>2014-02-20T13:31:52.498Z</time>
      </trkpt>
      <trkpt lat="43.57355" lon="2.96716">
        <ele>257.3</ele>
        <time>2014-02-20T13:31:53.494Z</time>
      </trkpt>
      <trkpt lat="43.57348" lon="2.96715">
        <ele>256.8</ele>
        <time>2014-02-20T13:31:54.499Z</time>
      </trkpt>
      <trkpt lat="43.57339" lon="2.96712">
        <ele>256.2</ele>
        <time>2014-02-20T13:31:55.501Z</time>
      </trkpt>
      <trkpt lat="43.57331" lon="2.9671">
        <ele>256.5</ele>
        <time>2014-02-20T13:31:56.499Z</time>
      </trkpt>
      <trkpt lat="43.57323" lon="2.96708">
        <ele>256.5</ele>
        <time>2014-02-20T13:31:57.498Z</time>
      </trkpt>
      <trkpt lat="43.57318" lon="2.96704">
        <ele>256.4</ele>
        <time>2014-02-20T13:31:58.502Z</time>
      </trkpt>
      <trkpt lat="43.57312" lon="2.96699">
        <ele>256.1</ele>
        <time>2014-02-20T13:31:59.499Z</time>
      </trkpt>
      <trkpt lat="43.57305" lon="2.96694">
        <ele>255</ele>
        <time>2014-02-20T13:32:00.499Z</time>
      </trkpt>
      <trkpt lat="43.573" lon="2.96691">
        <ele>254.4</ele>
        <time>2014-02-20T13:32:01.501Z</time>
      </trkpt>
      <trkpt lat="43.57294" lon="2.96689">
        <ele>253.9</ele>
        <time>2014-02-20T13:32:02.498Z</time>
      </trkpt>
      <trkpt lat="43.57288" lon="2.96687">
        <ele>254.3</ele>
        <time>2014-02-20T13:32:03.506Z</time>
      </trkpt>
      <trkpt lat="43.57282" lon="2.96684">
        <ele>253.9</ele>
        <time>2014-02-20T13:32:04.502Z</time>
      </trkpt>
      <trkpt lat="43.57275" lon="2.96683">
        <ele>254.4</ele>
        <time>2014-02-20T13:32:05.498Z</time>
      </trkpt>
      <trkpt lat="43.57267" lon="2.96683">
        <ele>254.8</ele>
        <time>2014-02-20T13:32:06.562Z</time>
      </trkpt>
      <trkpt lat="43.57261" lon="2.96681">
        <ele>253.7</ele>
        <time>2014-02-20T13:32:07.502Z</time>
      </trkpt>
      <trkpt lat="43.57254" lon="2.96681">
        <ele>254.9</ele>
        <time>2014-02-20T13:32:08.497Z</time>
      </trkpt>
      <trkpt lat="43.57248" lon="2.96679">
        <ele>254.7</ele>
        <time>2014-02-20T13:32:09.502Z</time>
      </trkpt>
      <trkpt lat="43.57243" lon="2.96675">
        <ele>254.5</ele>
        <time>2014-02-20T13:32:10.534Z</time>
      </trkpt>
      <trkpt lat="43.57238" lon="2.96671">
        <ele>254.5</ele>
        <time>2014-02-20T13:32:11.539Z</time>
      </trkpt>
      <trkpt lat="43.57235" lon="2.96668">
        <ele>254.2</ele>
        <time>2014-02-20T13:32:12.501Z</time>
      </trkpt>
      <trkpt lat="43.57228" lon="2.96662">
        <ele>253.4</ele>
        <time>2014-02-20T13:32:14.494Z</time>
      </trkpt>
      <trkpt lat="43.57224" lon="2.96659">
        <ele>253.9</ele>
        <time>2014-02-20T13:32:15.504Z</time>
      </trkpt>
      <trkpt lat="43.57216" lon="2.96653">
        <ele>253.8</ele>
        <time>2014-02-20T13:32:17.503Z</time>
      </trkpt>
      <trkpt lat="43.57212" lon="2.96653">
        <ele>253.5</ele>
        <time>2014-02-20T13:32:18.503Z</time>
      </trkpt>
      <trkpt lat="43.57207" lon="2.96652">
        <ele>253.2</ele>
        <time>2014-02-20T13:32:19.504Z</time>
      </trkpt>
      <trkpt lat="43.57202" lon="2.96653">
        <ele>252.9</ele>
        <time>2014-02-20T13:32:20.500Z</time>
      </trkpt>
      <trkpt lat="43.57196" lon="2.96653">
        <ele>252.4</ele>
        <time>2014-02-20T13:32:21.494Z</time>
      </trkpt>
      <trkpt lat="43.57191" lon="2.96654">
        <ele>252</ele>
        <time>2014-02-20T13:32:22.494Z</time>
      </trkpt>
      <trkpt lat="43.57186" lon="2.96654">
        <ele>251.9</ele>
        <time>2014-02-20T13:32:23.494Z</time>
      </trkpt>
      <trkpt lat="43.5718" lon="2.96655">
        <ele>251.7</ele>
        <time>2014-02-20T13:32:24.498Z</time>
      </trkpt>
      <trkpt lat="43.57173" lon="2.96657">
        <ele>250.6</ele>
        <time>2014-02-20T13:32:25.501Z</time>
      </trkpt>
      <trkpt lat="43.57166" lon="2.96657">
        <ele>251.9</ele>
        <time>2014-02-20T13:32:26.575Z</time>
      </trkpt>
      <trkpt lat="43.57158" lon="2.96659">
        <ele>251.5</ele>
        <time>2014-02-20T13:32:27.500Z</time>
      </trkpt>
      <trkpt lat="43.57151" lon="2.96661">
        <ele>251.7</ele>
        <time>2014-02-20T13:32:28.500Z</time>
      </trkpt>
      <trkpt lat="43.57145" lon="2.9666">
        <ele>251.7</ele>
        <time>2014-02-20T13:32:29.497Z</time>
      </trkpt>
      <trkpt lat="43.57142" lon="2.96658">
        <ele>252.4</ele>
        <time>2014-02-20T13:32:30.500Z</time>
      </trkpt>
      <trkpt lat="43.57137" lon="2.9665">
        <ele>250.7</ele>
        <time>2014-02-20T13:32:32.498Z</time>
      </trkpt>
      <trkpt lat="43.57133" lon="2.96647">
        <ele>251.6</ele>
        <time>2014-02-20T13:32:33.498Z</time>
      </trkpt>
      <trkpt lat="43.57129" lon="2.96645">
        <ele>252</ele>
        <time>2014-02-20T13:32:34.500Z</time>
      </trkpt>
      <trkpt lat="43.57124" lon="2.96643">
        <ele>251.9</ele>
        <time>2014-02-20T13:32:35.506Z</time>
      </trkpt>
      <trkpt lat="43.57119" lon="2.96642">
        <ele>251.8</ele>
        <time>2014-02-20T13:32:36.501Z</time>
      </trkpt>
      <trkpt lat="43.57114" lon="2.9664">
        <ele>251.3</ele>
        <time>2014-02-20T13:32:37.504Z</time>
      </trkpt>
      <trkpt lat="43.57106" lon="2.96637">
        <ele>250.6</ele>
        <time>2014-02-20T13:32:39.502Z</time>
      </trkpt>
      <trkpt lat="43.57101" lon="2.96636">
        <ele>250.3</ele>
        <time>2014-02-20T13:32:40.600Z</time>
      </trkpt>
      <trkpt lat="43.57092" lon="2.96635">
        <ele>250</ele>
        <time>2014-02-20T13:32:42.501Z</time>
      </trkpt>
      <trkpt lat="43.57087" lon="2.96637">
        <ele>250.2</ele>
        <time>2014-02-20T13:32:43.504Z</time>
      </trkpt>
      <trkpt lat="43.57083" lon="2.9664">
        <ele>250.3</ele>
        <time>2014-02-20T13:32:44.502Z</time>
      </trkpt>
      <trkpt lat="43.57079" lon="2.96644">
        <ele>250.5</ele>
        <time>2014-02-20T13:32:45.593Z</time>
      </trkpt>
      <trkpt lat="43.57076" lon="2.96648">
        <ele>250.4</ele>
        <time>2014-02-20T13:32:46.504Z</time>
      </trkpt>
      <trkpt lat="43.57071" lon="2.96652">
        <ele>250.8</ele>
        <time>2014-02-20T13:32:47.500Z</time>
      </trkpt>
      <trkpt lat="43.57067" lon="2.96657">
        <ele>251.1</ele>
        <time>2014-02-20T13:32:48.503Z</time>
      </trkpt>
      <trkpt lat="43.57062" lon="2.96663">
        <ele>250.1</ele>
        <time>2014-02-20T13:32:49.503Z</time>
      </trkpt>
      <trkpt lat="43.57058" lon="2.96669">
        <ele>249.7</ele>
        <time>2014-02-20T13:32:50.623Z</time>
      </trkpt>
      <trkpt lat="43.57053" lon="2.96674">
        <ele>249.8</ele>
        <time>2014-02-20T13:32:51.501Z</time>
      </trkpt>
      <trkpt lat="43.57049" lon="2.96679">
        <ele>249.3</ele>
        <time>2014-02-20T13:32:52.503Z</time>
      </trkpt>
      <trkpt lat="43.57045" lon="2.96683">
        <ele>248.9</ele>
        <time>2014-02-20T13:32:53.500Z</time>
      </trkpt>
      <trkpt lat="43.57041" lon="2.96685">
        <ele>248.8</ele>
        <time>2014-02-20T13:32:54.501Z</time>
      </trkpt>
      <trkpt lat="43.57036" lon="2.96687">
        <ele>248.7</ele>
        <time>2014-02-20T13:32:55.502Z</time>
      </trkpt>
      <trkpt lat="43.57031" lon="2.96688">
        <ele>248.5</ele>
        <time>2014-02-20T13:32:56.499Z</time>
      </trkpt>
      <trkpt lat="43.57026" lon="2.9669">
        <ele>248.4</ele>
        <time>2014-02-20T13:32:57.497Z</time>
      </trkpt>
      <trkpt lat="43.5702" lon="2.96688">
        <ele>247.9</ele>
        <time>2014-02-20T13:32:58.499Z</time>
      </trkpt>
      <trkpt lat="43.57014" lon="2.96683">
        <ele>248.1</ele>
        <time>2014-02-20T13:32:59.500Z</time>
      </trkpt>
      <trkpt lat="43.57011" lon="2.96678">
        <ele>247.9</ele>
        <time>2014-02-20T13:33:00.500Z</time>
      </trkpt>
      <trkpt lat="43.57008" lon="2.96671">
        <ele>247.3</ele>
        <time>2014-02-20T13:33:01.497Z</time>
      </trkpt>
      <trkpt lat="43.57006" lon="2.96664">
        <ele>247.2</ele>
        <time>2014-02-20T13:33:02.495Z</time>
      </trkpt>
      <trkpt lat="43.57004" lon="2.96658">
        <ele>246.9</ele>
        <time>2014-02-20T13:33:03.499Z</time>
      </trkpt>
      <trkpt lat="43.57002" lon="2.96651">
        <ele>247.3</ele>
        <time>2014-02-20T13:33:04.500Z</time>
      </trkpt>
      <trkpt lat="43.56999" lon="2.96644">
        <ele>246.5</ele>
        <time>2014-02-20T13:33:05.499Z</time>
      </trkpt>
      <trkpt lat="43.56996" lon="2.96637">
        <ele>245.8</ele>
        <time>2014-02-20T13:33:06.561Z</time>
      </trkpt>
      <trkpt lat="43.56993" lon="2.9663">
        <ele>245.5</ele>
        <time>2014-02-20T13:33:07.506Z</time>
      </trkpt>
      <trkpt lat="43.56989" lon="2.96624">
        <ele>245.6</ele>
        <time>2014-02-20T13:33:08.497Z</time>
      </trkpt>
      <trkpt lat="43.56986" lon="2.96617">
        <ele>245.2</ele>
        <time>2014-02-20T13:33:09.500Z</time>
      </trkpt>
      <trkpt lat="43.56983" lon="2.9661">
        <ele>244.8</ele>
        <time>2014-02-20T13:33:10.500Z</time>
      </trkpt>
      <trkpt lat="43.56979" lon="2.96604">
        <ele>245</ele>
        <time>2014-02-20T13:33:11.543Z</time>
      </trkpt>
      <trkpt lat="43.56976" lon="2.96598">
        <ele>244.9</ele>
        <time>2014-02-20T13:33:12.502Z</time>
      </trkpt>
      <trkpt lat="43.56973" lon="2.9659">
        <ele>244.7</ele>
        <time>2014-02-20T13:33:13.500Z</time>
      </trkpt>
      <trkpt lat="43.5697" lon="2.96584">
        <ele>244.3</ele>
        <time>2014-02-20T13:33:14.499Z</time>
      </trkpt>
      <trkpt lat="43.56967" lon="2.96577">
        <ele>244.1</ele>
        <time>2014-02-20T13:33:15.501Z</time>
      </trkpt>
      <trkpt lat="43.56964" lon="2.96571">
        <ele>244.6</ele>
        <time>2014-02-20T13:33:16.547Z</time>
      </trkpt>
      <trkpt lat="43.56963" lon="2.96566">
        <ele>243.5</ele>
        <time>2014-02-20T13:33:17.499Z</time>
      </trkpt>
      <trkpt lat="43.56959" lon="2.96557">
        <ele>242.6</ele>
        <time>2014-02-20T13:33:19.496Z</time>
      </trkpt>
      <trkpt lat="43.56957" lon="2.96552">
        <ele>241.6</ele>
        <time>2014-02-20T13:33:20.495Z</time>
      </trkpt>
      <trkpt lat="43.56953" lon="2.96544">
        <ele>241.8</ele>
        <time>2014-02-20T13:33:22.503Z</time>
      </trkpt>
      <trkpt lat="43.56951" lon="2.9654">
        <ele>241.9</ele>
        <time>2014-02-20T13:33:23.500Z</time>
      </trkpt>
      <trkpt lat="43.56948" lon="2.96534">
        <ele>242.1</ele>
        <time>2014-02-20T13:33:24.506Z</time>
      </trkpt>
      <trkpt lat="43.56945" lon="2.96529">
        <ele>242.2</ele>
        <time>2014-02-20T13:33:25.512Z</time>
      </trkpt>
      <trkpt lat="43.56942" lon="2.96523">
        <ele>242.2</ele>
        <time>2014-02-20T13:33:26.506Z</time>
      </trkpt>
      <trkpt lat="43.5694" lon="2.96517">
        <ele>242.1</ele>
        <time>2014-02-20T13:33:27.528Z</time>
      </trkpt>
      <trkpt lat="43.56935" lon="2.96507">
        <ele>241.7</ele>
        <time>2014-02-20T13:33:30.511Z</time>
      </trkpt>
      <trkpt lat="43.56933" lon="2.96504">
        <ele>241.5</ele>
        <time>2014-02-20T13:33:31.514Z</time>
      </trkpt>
      <trkpt lat="43.56931" lon="2.96497">
        <ele>240.6</ele>
        <time>2014-02-20T13:33:33.513Z</time>
      </trkpt>
      <trkpt lat="43.56928" lon="2.96491">
        <ele>240.1</ele>
        <time>2014-02-20T13:33:34.511Z</time>
      </trkpt>
      <trkpt lat="43.56925" lon="2.96485">
        <ele>239.8</ele>
        <time>2014-02-20T13:33:35.505Z</time>
      </trkpt>
      <trkpt lat="43.56922" lon="2.96479">
        <ele>239.6</ele>
        <time>2014-02-20T13:33:36.506Z</time>
      </trkpt>
      <trkpt lat="43.56915" lon="2.96472">
        <ele>239.3</ele>
        <time>2014-02-20T13:33:38.504Z</time>
      </trkpt>
      <trkpt lat="43.56912" lon="2.96468">
        <ele>239.1</ele>
        <time>2014-02-20T13:33:39.506Z</time>
      </trkpt>
      <trkpt lat="43.5691" lon="2.96462">
        <ele>239.1</ele>
        <time>2014-02-20T13:33:40.503Z</time>
      </trkpt>
      <trkpt lat="43.56908" lon="2.96456">
        <ele>239.4</ele>
        <time>2014-02-20T13:33:41.507Z</time>
      </trkpt>
      <trkpt lat="43.56904" lon="2.96448">
        <ele>239.6</ele>
        <time>2014-02-20T13:33:43.504Z</time>
      </trkpt>
      <trkpt lat="43.56902" lon="2.96443">
        <ele>239.6</ele>
        <time>2014-02-20T13:33:44.500Z</time>
      </trkpt>
      <trkpt lat="43.56899" lon="2.96438">
        <ele>239.5</ele>
        <time>2014-02-20T13:33:45.500Z</time>
      </trkpt>
      <trkpt lat="43.56897" lon="2.96432">
        <ele>240</ele>
        <time>2014-02-20T13:33:46.502Z</time>
      </trkpt>
      <trkpt lat="43.56895" lon="2.96425">
        <ele>240.4</ele>
        <time>2014-02-20T13:33:47.501Z</time>
      </trkpt>
      <trkpt lat="43.56893" lon="2.96419">
        <ele>239.9</ele>
        <time>2014-02-20T13:33:48.503Z</time>
      </trkpt>
      <trkpt lat="43.56888" lon="2.96411">
        <ele>239.7</ele>
        <time>2014-02-20T13:33:50.498Z</time>
      </trkpt>
      <trkpt lat="43.56885" lon="2.96407">
        <ele>239.7</ele>
        <time>2014-02-20T13:33:51.512Z</time>
      </trkpt>
      <trkpt lat="43.56882" lon="2.96403">
        <ele>240.1</ele>
        <time>2014-02-20T13:33:52.502Z</time>
      </trkpt>
      <trkpt lat="43.5688" lon="2.96396">
        <ele>240.9</ele>
        <time>2014-02-20T13:33:53.501Z</time>
      </trkpt>
      <trkpt lat="43.56877" lon="2.9639">
        <ele>241.5</ele>
        <time>2014-02-20T13:33:54.504Z</time>
      </trkpt>
      <trkpt lat="43.56872" lon="2.96383">
        <ele>241.7</ele>
        <time>2014-02-20T13:33:55.505Z</time>
      </trkpt>
      <trkpt lat="43.56868" lon="2.96376">
        <ele>242.2</ele>
        <time>2014-02-20T13:33:56.504Z</time>
      </trkpt>
      <trkpt lat="43.56865" lon="2.96369">
        <ele>242.3</ele>
        <time>2014-02-20T13:33:57.507Z</time>
      </trkpt>
      <trkpt lat="43.56863" lon="2.96363">
        <ele>242.7</ele>
        <time>2014-02-20T13:33:58.507Z</time>
      </trkpt>
      <trkpt lat="43.5686" lon="2.96357">
        <ele>242.2</ele>
        <time>2014-02-20T13:33:59.505Z</time>
      </trkpt>
      <trkpt lat="43.56858" lon="2.96351">
        <ele>241.4</ele>
        <time>2014-02-20T13:34:00.504Z</time>
      </trkpt>
      <trkpt lat="43.56855" lon="2.96344">
        <ele>241.1</ele>
        <time>2014-02-20T13:34:01.508Z</time>
      </trkpt>
      <trkpt lat="43.56852" lon="2.96338">
        <ele>240.8</ele>
        <time>2014-02-20T13:34:02.508Z</time>
      </trkpt>
      <trkpt lat="43.56848" lon="2.96333">
        <ele>241.1</ele>
        <time>2014-02-20T13:34:03.506Z</time>
      </trkpt>
      <trkpt lat="43.56846" lon="2.96322">
        <ele>240.2</ele>
        <time>2014-02-20T13:34:05.504Z</time>
      </trkpt>
      <trkpt lat="43.56844" lon="2.96317">
        <ele>239.7</ele>
        <time>2014-02-20T13:34:06.566Z</time>
      </trkpt>
      <trkpt lat="43.56843" lon="2.96306">
        <ele>239.3</ele>
        <time>2014-02-20T13:34:08.496Z</time>
      </trkpt>
      <trkpt lat="43.56841" lon="2.96301">
        <ele>239.8</ele>
        <time>2014-02-20T13:34:09.495Z</time>
      </trkpt>
      <trkpt lat="43.56837" lon="2.96293">
        <ele>238.9</ele>
        <time>2014-02-20T13:34:11.579Z</time>
      </trkpt>
      <trkpt lat="43.56835" lon="2.96292">
        <ele>238</ele>
        <time>2014-02-20T13:34:12.497Z</time>
      </trkpt>
      <trkpt lat="43.56829" lon="2.96283">
        <ele>238.8</ele>
        <time>2014-02-20T13:34:14.495Z</time>
      </trkpt>
      <trkpt lat="43.56824" lon="2.96278">
        <ele>239</ele>
        <time>2014-02-20T13:34:15.494Z</time>
      </trkpt>
      <trkpt lat="43.5682" lon="2.96272">
        <ele>241.3</ele>
        <time>2014-02-20T13:34:16.495Z</time>
      </trkpt>
      <trkpt lat="43.56816" lon="2.96266">
        <ele>242</ele>
        <time>2014-02-20T13:34:17.493Z</time>
      </trkpt>
      <trkpt lat="43.56813" lon="2.9626">
        <ele>243.2</ele>
        <time>2014-02-20T13:34:18.494Z</time>
      </trkpt>
      <trkpt lat="43.5681" lon="2.96254">
        <ele>243.7</ele>
        <time>2014-02-20T13:34:19.496Z</time>
      </trkpt>
      <trkpt lat="43.56807" lon="2.96248">
        <ele>242.1</ele>
        <time>2014-02-20T13:34:20.497Z</time>
      </trkpt>
      <trkpt lat="43.56804" lon="2.96241">
        <ele>242.4</ele>
        <time>2014-02-20T13:34:21.497Z</time>
      </trkpt>
      <trkpt lat="43.56801" lon="2.96232">
        <ele>242</ele>
        <time>2014-02-20T13:34:22.501Z</time>
      </trkpt>
      <trkpt lat="43.56798" lon="2.96224">
        <ele>241</ele>
        <time>2014-02-20T13:34:23.497Z</time>
      </trkpt>
      <trkpt lat="43.56796" lon="2.96217">
        <ele>240</ele>
        <time>2014-02-20T13:34:24.504Z</time>
      </trkpt>
      <trkpt lat="43.56793" lon="2.9621">
        <ele>240.4</ele>
        <time>2014-02-20T13:34:25.497Z</time>
      </trkpt>
      <trkpt lat="43.5679" lon="2.96203">
        <ele>240.3</ele>
        <time>2014-02-20T13:34:26.509Z</time>
      </trkpt>
      <trkpt lat="43.56788" lon="2.96196">
        <ele>239.7</ele>
        <time>2014-02-20T13:34:27.500Z</time>
      </trkpt>
      <trkpt lat="43.56785" lon="2.9619">
        <ele>239.8</ele>
        <time>2014-02-20T13:34:28.499Z</time>
      </trkpt>
      <trkpt lat="43.56781" lon="2.96183">
        <ele>241.3</ele>
        <time>2014-02-20T13:34:29.497Z</time>
      </trkpt>
      <trkpt lat="43.56778" lon="2.96176">
        <ele>241.6</ele>
        <time>2014-02-20T13:34:30.495Z</time>
      </trkpt>
      <trkpt lat="43.56775" lon="2.9617">
        <ele>242</ele>
        <time>2014-02-20T13:34:31.499Z</time>
      </trkpt>
      <trkpt lat="43.56772" lon="2.96164">
        <ele>242.4</ele>
        <time>2014-02-20T13:34:32.495Z</time>
      </trkpt>
      <trkpt lat="43.56769" lon="2.96158">
        <ele>242.3</ele>
        <time>2014-02-20T13:34:33.500Z</time>
      </trkpt>
      <trkpt lat="43.56765" lon="2.96147">
        <ele>241.5</ele>
        <time>2014-02-20T13:34:35.495Z</time>
      </trkpt>
      <trkpt lat="43.56763" lon="2.96141">
        <ele>241.7</ele>
        <time>2014-02-20T13:34:36.498Z</time>
      </trkpt>
      <trkpt lat="43.56758" lon="2.96131">
        <ele>241.2</ele>
        <time>2014-02-20T13:34:38.496Z</time>
      </trkpt>
      <trkpt lat="43.56756" lon="2.96126">
        <ele>241.4</ele>
        <time>2014-02-20T13:34:39.500Z</time>
      </trkpt>
      <trkpt lat="43.56752" lon="2.96116">
        <ele>241.9</ele>
        <time>2014-02-20T13:34:41.494Z</time>
      </trkpt>
      <trkpt lat="43.56751" lon="2.96111">
        <ele>241.7</ele>
        <time>2014-02-20T13:34:42.496Z</time>
      </trkpt>
      <trkpt lat="43.56747" lon="2.961">
        <ele>241.3</ele>
        <time>2014-02-20T13:34:44.497Z</time>
      </trkpt>
      <trkpt lat="43.56746" lon="2.96096">
        <ele>240.8</ele>
        <time>2014-02-20T13:34:45.499Z</time>
      </trkpt>
      <trkpt lat="43.56743" lon="2.96088">
        <ele>240.8</ele>
        <time>2014-02-20T13:34:47.498Z</time>
      </trkpt>
      <trkpt lat="43.5674" lon="2.96084">
        <ele>241.6</ele>
        <time>2014-02-20T13:34:48.507Z</time>
      </trkpt>
      <trkpt lat="43.56736" lon="2.96075">
        <ele>241.7</ele>
        <time>2014-02-20T13:34:50.499Z</time>
      </trkpt>
      <trkpt lat="43.56734" lon="2.96071">
        <ele>241.7</ele>
        <time>2014-02-20T13:34:51.504Z</time>
      </trkpt>
      <trkpt lat="43.56729" lon="2.96062">
        <ele>241.4</ele>
        <time>2014-02-20T13:34:54.500Z</time>
      </trkpt>
      <trkpt lat="43.56727" lon="2.96058">
        <ele>241.2</ele>
        <time>2014-02-20T13:34:55.498Z</time>
      </trkpt>
      <trkpt lat="43.56722" lon="2.96049">
        <ele>241</ele>
        <time>2014-02-20T13:34:57.490Z</time>
      </trkpt>
      <trkpt lat="43.56719" lon="2.96043">
        <ele>240.8</ele>
        <time>2014-02-20T13:34:58.498Z</time>
      </trkpt>
      <trkpt lat="43.56716" lon="2.96037">
        <ele>240.4</ele>
        <time>2014-02-20T13:34:59.496Z</time>
      </trkpt>
      <trkpt lat="43.56713" lon="2.96032">
        <ele>240.2</ele>
        <time>2014-02-20T13:35:00.501Z</time>
      </trkpt>
      <trkpt lat="43.5671" lon="2.96026">
        <ele>240.2</ele>
        <time>2014-02-20T13:35:01.490Z</time>
      </trkpt>
      <trkpt lat="43.56708" lon="2.9602">
        <ele>240.1</ele>
        <time>2014-02-20T13:35:02.497Z</time>
      </trkpt>
      <trkpt lat="43.56709" lon="2.96008">
        <ele>239.6</ele>
        <time>2014-02-20T13:35:04.495Z</time>
      </trkpt>
      <trkpt lat="43.56708" lon="2.96001">
        <ele>239.8</ele>
        <time>2014-02-20T13:35:05.495Z</time>
      </trkpt>
      <trkpt lat="43.56706" lon="2.9599">
        <ele>239.2</ele>
        <time>2014-02-20T13:35:07.495Z</time>
      </trkpt>
      <trkpt lat="43.56704" lon="2.95985">
        <ele>239.3</ele>
        <time>2014-02-20T13:35:08.494Z</time>
      </trkpt>
      <trkpt lat="43.56699" lon="2.95975">
        <ele>239.5</ele>
        <time>2014-02-20T13:35:10.496Z</time>
      </trkpt>
      <trkpt lat="43.56695" lon="2.9597">
        <ele>239.4</ele>
        <time>2014-02-20T13:35:11.545Z</time>
      </trkpt>
      <trkpt lat="43.56692" lon="2.95965">
        <ele>239.7</ele>
        <time>2014-02-20T13:35:12.532Z</time>
      </trkpt>
      <trkpt lat="43.56688" lon="2.9596">
        <ele>238.9</ele>
        <time>2014-02-20T13:35:13.497Z</time>
      </trkpt>
      <trkpt lat="43.56682" lon="2.95952">
        <ele>239.3</ele>
        <time>2014-02-20T13:35:15.489Z</time>
      </trkpt>
      <trkpt lat="43.56679" lon="2.95951">
        <ele>239.7</ele>
        <time>2014-02-20T13:35:16.498Z</time>
      </trkpt>
      <trkpt lat="43.56672" lon="2.95956">
        <ele>241.1</ele>
        <time>2014-02-20T13:35:21.498Z</time>
      </trkpt>
      <trkpt lat="43.56671" lon="2.95956">
        <ele>241.3</ele>
        <time>2014-02-20T13:35:22.498Z</time>
      </trkpt>
      <trkpt lat="43.5667" lon="2.95966">
        <ele>240.9</ele>
        <time>2014-02-20T13:35:29.497Z</time>
      </trkpt>
      <trkpt lat="43.56671" lon="2.95969">
        <ele>240.3</ele>
        <time>2014-02-20T13:35:30.658Z</time>
      </trkpt>
      <trkpt lat="43.5667" lon="2.9598">
        <ele>239.1</ele>
        <time>2014-02-20T13:35:34.502Z</time>
      </trkpt>
      <trkpt lat="43.56669" lon="2.95984">
        <ele>238.9</ele>
        <time>2014-02-20T13:35:35.609Z</time>
      </trkpt>
      <trkpt lat="43.56667" lon="2.95993">
        <ele>238.4</ele>
        <time>2014-02-20T13:35:37.500Z</time>
      </trkpt>
      <trkpt lat="43.56666" lon="2.95997">
        <ele>238.4</ele>
        <time>2014-02-20T13:35:38.490Z</time>
      </trkpt>
      <trkpt lat="43.56667" lon="2.96007">
        <ele>236.7</ele>
        <time>2014-02-20T13:35:40.501Z</time>
      </trkpt>
      <trkpt lat="43.56668" lon="2.96011">
        <ele>236.8</ele>
        <time>2014-02-20T13:35:41.500Z</time>
      </trkpt>
      <trkpt lat="43.56672" lon="2.96018">
        <ele>236</ele>
        <time>2014-02-20T13:35:43.495Z</time>
      </trkpt>
      <trkpt lat="43.56673" lon="2.96023">
        <ele>236</ele>
        <time>2014-02-20T13:35:44.496Z</time>
      </trkpt>
      <trkpt lat="43.5667" lon="2.96034">
        <ele>235.5</ele>
        <time>2014-02-20T13:35:58.497Z</time>
      </trkpt>
      <trkpt lat="43.5667" lon="2.96034">
        <ele>235.8</ele>
        <time>2014-02-20T13:35:59.496Z</time>
      </trkpt>
      <trkpt lat="43.56671" lon="2.96033">
        <ele>234</ele>
        <time>2014-02-20T13:36:02.498Z</time>
      </trkpt>
      <trkpt lat="43.56671" lon="2.96032">
        <ele>234</ele>
        <time>2014-02-20T13:36:03.500Z</time>
      </trkpt>
      <trkpt lat="43.56667" lon="2.96024">
        <ele>237.2</ele>
        <time>2014-02-20T13:36:12.494Z</time>
      </trkpt>
      <trkpt lat="43.56665" lon="2.96021">
        <ele>236.5</ele>
        <time>2014-02-20T13:36:13.495Z</time>
      </trkpt>
      <trkpt lat="43.56665" lon="2.96009">
        <ele>238.4</ele>
        <time>2014-02-20T13:36:19.502Z</time>
      </trkpt>
      <trkpt lat="43.56665" lon="2.96006">
        <ele>238.2</ele>
        <time>2014-02-20T13:36:20.913Z</time>
      </trkpt>
      <trkpt lat="43.56672" lon="2.96">
        <ele>236.1</ele>
        <time>2014-02-20T13:36:34.928Z</time>
      </trkpt>
    </trkseg>
  </trk>
</gpx>